GFSSGP_925_spd_000.txt.gz
Wind_Speed
16 13 11 4 2 3 5 2 7 7 7 7 13 13 16 16 9 9 3 18 8 11 19 14 12 11 11 12 14 14 16 17 17 17 17 17 16 17 17 14 14 12 13 12 11 10 9 6 3
17 13 3 3 2 4 4 7 7 5 5 3 9 14 14 13 12 7 6 12 12 16 14 12 12 12 13 14 17 18 18 19 19 19 18 17 17 17 17 16 14 12 12 13 10 11 10 6 4
15 8 2 2 2 3 5 10 7 4 3 4 5 11 7 4 12 6 9 12 14 15 13 12 11 12 12 14 17 18 19 19 19 18 18 18 18 17 18 17 16 14 13 12 11 10 8 4 5
7 2 4 2 5 4 8 8 7 6 5 3 12 10 6 11 5 6 8 9 12 13 14 14 15 16 15 16 17 19 19 19 20 20 20 21 19 19 19 19 18 16 15 14 12 10 7 5 5
4 3 3 4 8 3 8 8 5 5 5 5 8 8 8 7 8 8 10 9 12 12 13 17 16 16 16 18 17 19 19 21 21 21 20 20 22 20 19 18 19 17 15 13 12 10 8 6 5
3 2 4 5 6 5 6 6 5 5 5 7 10 9 5 8 8 9 10 11 12 11 14 18 18 17 18 18 18 18 19 20 21 19 18 14 16 19 17 19 21 18 17 17 13 11 8 5 5
2 3 8 7 7 5 5 6 5 3 7 5 9 9 8 12 6 8 11 13 11 13 13 14 14 16 17 19 17 19 19 18 18 17 15 16 12 14 16 16 21 20 20 19 17 14 10 6 6
2 3 7 4 7 7 7 3 6 2 5 4 5 5 7 11 8 8 11 13 13 12 13 13 12 13 15 15 16 15 16 16 15 15 13 15 11 13 14 16 17 18 19 19 17 18 16 11 8
1 2 4 5 3 5 9 5 4 4 6 5 7 10 11 11 9 12 11 13 11 13 13 11 13 10 11 11 12 13 12 13 14 16 15 14 14 15 16 14 17 15 16 17 14 17 16 14 8
3 3 4 9 7 7 8 9 7 4 9 5 8 7 9 10 12 12 13 12 13 10 11 11 11 10 9 9 10 11 10 13 13 15 17 15 15 14 16 14 16 15 15 14 14 16 13 12 11
4 2 4 6 8 3 8 6 7 5 5 9 10 9 7 9 7 7 9 12 11 11 10 11 9 11 9 10 9 10 11 13 13 15 16 15 14 16 16 17 17 17 16 15 17 16 14 16 13
4 2 4 3 3 1 7 5 3 6 2 7 12 11 8 9 9 10 10 13 12 10 10 9 9 9 10 9 10 9 10 11 13 13 16 16 18 18 19 18 20 20 20 19 19 19 18 17 17
7 5 1 5 1 4 6 6 4 2 6 8 10 8 8 8 9 9 9 9 11 11 9 9 8 8 8 8 7 8 9 10 11 13 14 15 17 17 18 18 18 19 19 21 22 20 22 22 21
3 5 3 4 5 3 5 5 6 9 8 7 8 8 8 8 12 11 11 10 10 9 8 7 6 6 4 4 5 5 9 9 10 11 12 13 15 15 16 16 16 16 18 18 19 21 24 25 24
3 5 4 7 8 5 6 8 11 7 12 12 11 10 9 9 12 14 13 12 10 9 8 5 5 4 2 3 5 6 7 8 9 9 10 12 13 13 14 14 14 15 16 16 18 19 20 24 25
6 8 4 11 10 5 8 7 18 12 14 13 13 11 9 10 14 16 13 11 9 10 9 6 4 3 1 3 4 4 6 8 8 9 10 12 13 13 14 13 13 15 15 15 16 19 22 22 24
7 5 13 7 13 6 11 7 3 16 14 13 13 13 12 11 15 18 16 13 12 10 9 7 5 3 1 1 2 3 5 7 7 8 9 11 12 13 14 14 14 16 16 17 18 19 20 23 25
7 12 9 10 14 14 11 16 5 10 13 15 14 14 13 15 15 19 17 15 13 12 11 9 7 4 2 1 2 3 5 6 8 8 8 12 11 13 14 14 14 16 17 17 19 20 20 19 24
2 9 10 7 12 10 14 14 15 15 17 15 16 16 15 15 18 23 20 16 13 13 12 11 9 6 3 2 2 3 6 8 8 9 8 11 12 14 15 16 16 16 16 18 18 20 23 21 18
9 9 10 9 6 5 9 14 15 16 21 22 19 17 16 14 14 20 22 18 18 17 16 12 10 8 5 3 2 3 6 9 9 8 10 10 11 15 15 16 16 17 19 18 19 20 22 21 21
9 11 9 8 3 6 8 11 20 16 16 17 20 18 16 16 15 14 20 22 19 19 18 14 11 9 7 4 3 3 6 7 9 9 11 10 14 14 16 16 17 18 18 21 20 21 21 22 22
12 6 9 4 3 4 7 6 12 12 17 19 18 19 17 14 13 14 21 22 24 22 17 17 13 11 9 7 5 3 6 8 9 11 12 13 15 16 14 16 18 18 20 19 21 21 24 25 22
7 2 2 5 6 8 10 5 5 8 7 14 16 16 17 15 11 14 17 24 25 23 21 17 14 13 11 8 5 6 7 8 10 11 13 15 15 14 17 18 19 20 21 22 22 23 25 28 28
9 3 2 3 3 7 12 12 8 10 12 7 9 12 13 14 12 11 21 23 25 24 23 20 18 14 12 8 8 9 9 10 10 12 15 14 15 17 18 19 20 21 24 25 24 28 27 28 29
4 4 3 4 4 7 5 12 15 6 4 3 7 8 10 11 11 10 12 18 23 25 24 21 17 16 12 12 11 9 11 12 12 13 14 14 17 18 19 20 22 25 22 27 28 27 29 30 30
12 10 6 6 7 10 4 6 5 7 8 5 9 8 10 10 10 10 12 19 23 26 24 23 20 21 17 14 11 11 11 12 13 13 14 17 18 20 21 25 21 25 29 27 27 29 30 32 31
8 10 12 10 15 8 7 11 10 7 8 8 9 9 10 11 11 13 14 21 23 26 26 25 24 21 19 16 14 12 10 11 13 14 16 19 19 22 22 23 27 27 25 27 28 29 32 32 23
10 2 4 5 5 8 8 10 6 6 12 11 10 10 9 10 12 13 13 21 23 25 26 27 24 23 21 18 15 12 10 12 15 17 18 18 23 25 23 26 25 29 28 26 29 31 28 25 27
6 7 8 4 8 4 10 7 6 6 4 14 11 10 10 10 13 13 12 20 24 23 24 24 24 23 19 17 16 11 11 14 16 17 20 22 23 24 25 27 28 29 28 29 27 29 31 32 31
18 14 21 8 8 9 15 17 7 3 8 9 11 11 10 9 9 10 11 19 22 24 23 24 22 20 20 18 14 12 13 14 16 19 20 22 23 24 27 28 29 30 28 28 30 32 32 27 28

GFSSGP_925_spd_003.txt.gz
Wind_Speed
17 14 10 2 4 5 3 0 5 3 6 5 12 17 11 5 4 8 8 16 11 13 10 14 13 13 12 13 14 17 18 19 18 18 17 15 16 15 15 14 12 11 12 11 8 8 6 4 4
19 14 4 2 4 3 3 2 6 4 5 15 14 9 8 6 4 5 8 19 14 12 13 13 12 13 13 15 17 19 19 19 19 19 18 17 17 17 16 16 14 13 12 10 9 8 6 3 2
15 8 3 4 3 2 4 4 6 3 2 2 6 7 4 2 5 3 9 17 15 16 14 15 13 13 15 17 17 18 18 19 19 22 22 20 19 18 18 17 15 13 12 12 10 8 4 2 2
8 6 4 4 5 5 7 7 6 5 3 5 8 8 4 5 3 5 9 15 16 16 13 15 15 15 16 18 19 20 20 20 20 20 21 21 21 19 18 20 17 15 13 11 10 8 5 2 2
2 3 3 4 3 4 4 6 7 6 4 6 4 4 4 4 10 10 11 15 15 18 16 15 15 16 17 18 18 19 20 20 19 18 16 16 16 19 18 21 20 17 16 14 11 8 5 4 4
4 3 4 2 3 6 5 5 2 4 8 7 6 6 3 6 10 13 12 15 13 17 17 17 15 16 16 17 18 18 17 16 15 15 17 12 15 14 13 17 18 18 19 17 16 11 7 4 5
2 3 3 2 3 4 6 7 3 4 6 5 10 6 5 6 8 15 14 13 18 15 13 16 16 16 16 15 17 17 15 13 11 10 11 13 11 11 12 13 14 16 17 18 17 15 13 8 7
3 3 4 2 6 5 6 6 2 6 0 5 5 7 6 11 11 19 18 13 11 16 13 13 13 14 13 16 13 14 12 10 11 12 9 9 10 11 11 14 14 13 16 14 14 16 15 14 9
3 4 2 4 7 6 6 5 2 1 6 4 2 5 13 22 15 21 19 17 15 13 13 15 14 15 13 12 10 8 9 10 11 12 11 9 10 9 10 12 12 15 17 12 14 15 13 17 14
4 3 3 2 4 6 7 7 7 5 4 3 5 7 18 20 16 19 20 16 13 12 10 10 11 10 10 9 5 7 8 9 9 12 10 10 9 10 7 9 10 11 15 11 12 10 11 15 17
3 4 2 2 3 1 9 7 6 9 4 8 10 9 12 14 14 18 21 21 17 12 10 9 10 9 7 6 5 6 7 8 8 11 12 12 11 12 13 11 11 12 13 12 12 11 11 13 18
1 3 3 2 3 2 7 8 7 7 5 9 14 13 8 9 13 18 21 21 19 15 12 11 11 10 9 6 4 6 6 8 10 11 11 13 13 14 15 14 14 14 15 15 15 15 14 14 16
4 4 3 5 1 5 5 6 7 6 3 11 14 12 10 10 14 16 19 21 19 18 15 13 10 9 8 7 4 5 7 8 9 10 11 13 14 15 14 15 15 16 17 17 19 19 19 19 19
1 6 6 5 5 4 4 4 8 7 9 9 10 10 10 11 18 17 21 23 23 20 18 14 11 8 7 5 4 4 6 6 7 8 9 12 13 14 14 14 14 15 18 17 16 17 19 19 21
3 3 2 6 6 5 3 5 10 6 10 11 10 9 9 12 20 22 24 24 25 22 19 16 12 9 6 5 5 4 4 4 6 6 7 10 11 11 11 11 11 14 15 15 16 16 18 18 20
3 3 2 5 10 5 8 9 10 10 12 12 12 10 9 10 20 25 24 24 24 23 20 16 13 10 7 6 6 4 1 3 3 4 5 7 8 10 10 10 9 11 13 13 15 19 20 22 22
2 4 7 4 11 5 6 8 7 13 17 14 11 12 12 10 15 25 25 24 21 21 20 17 14 12 9 7 6 3 1 1 2 4 5 7 6 8 10 10 10 12 13 12 15 14 17 20 21
7 5 5 6 9 8 8 14 3 9 14 16 14 15 13 16 19 27 26 23 22 19 18 15 15 12 10 9 6 4 2 1 3 4 4 8 7 8 10 10 10 11 12 14 13 16 15 18 21
3 4 6 6 6 9 14 15 14 12 10 13 14 15 19 19 21 29 30 26 22 22 20 17 16 14 13 11 8 5 3 2 4 3 4 8 7 9 9 10 11 10 12 13 15 17 17 19 22
12 9 7 7 3 9 8 18 15 11 17 21 22 18 19 14 13 22 31 31 27 25 22 20 19 16 13 11 8 5 4 3 3 5 5 7 7 10 10 11 10 12 14 13 15 16 19 19 20
12 8 4 6 2 4 5 8 9 13 14 16 20 19 20 21 18 18 24 31 32 28 25 22 21 19 15 11 9 7 5 5 5 5 7 6 7 10 11 10 10 13 13 16 14 15 18 19 21
8 4 5 7 2 5 5 11 6 10 12 11 19 18 19 18 16 17 23 27 34 32 26 25 21 21 17 14 12 10 7 6 5 7 7 7 8 9 7 10 13 13 15 16 17 18 18 16 22
7 4 3 3 3 2 3 3 5 7 8 13 16 20 19 19 19 19 23 32 35 33 30 27 26 21 19 16 15 12 9 8 8 9 9 9 9 8 10 12 14 15 16 16 21 21 19 24 26
7 4 3 4 3 5 7 7 20 8 15 8 5 13 19 18 17 15 27 29 31 34 32 27 27 23 22 21 17 13 12 12 11 11 11 11 8 9 13 13 15 16 20 20 18 25 26 25 25
3 7 2 3 1 10 11 9 23 7 9 9 8 10 15 17 15 14 18 23 27 33 36 32 30 25 24 23 18 14 14 13 15 15 14 10 10 13 14 16 16 20 18 21 26 25 26 26 29
11 11 7 8 6 10 6 8 9 15 21 8 10 9 10 14 15 16 18 25 28 33 38 35 33 30 25 22 17 18 15 15 16 16 14 13 13 15 16 18 19 20 23 26 25 26 29 29 30
7 11 12 3 3 2 6 8 9 4 4 7 9 9 12 13 14 15 15 25 28 32 36 38 36 32 28 24 20 19 16 15 14 12 12 14 15 15 18 21 24 24 26 27 30 30 30 31 34
8 7 3 3 6 7 8 7 8 11 19 11 8 11 11 10 10 12 14 21 27 32 35 38 36 33 30 27 26 21 18 15 14 13 13 14 13 18 21 22 22 25 28 29 30 32 31 30 31
5 9 5 5 6 7 9 7 10 17 11 14 17 11 12 13 13 13 11 21 27 31 34 37 36 35 32 30 27 22 19 16 14 14 15 15 18 18 21 21 25 29 31 32 29 29 33 31 34
16 12 23 8 5 7 15 17 4 9 10 11 13 14 11 12 12 12 12 19 24 29 31 35 36 36 34 32 27 24 20 15 14 14 14 14 17 19 21 25 28 31 29 31 33 35 36 37 35

GFSSGP_925_spd_006.txt.gz
Wind_Speed
13 10 0 3 4 5 1 1 1 1 4 4 4 10 9 3 2 4 11 18 15 11 10 10 10 11 11 12 13 15 15 16 15 14 14 13 13 13 12 12 11 10 9 9 7 6 3 2 4
14 5 2 2 4 4 4 2 3 3 9 10 10 5 6 3 3 5 6 14 12 11 11 10 10 11 13 14 15 15 15 16 16 16 15 15 15 15 14 12 11 10 9 8 7 6 4 1 1
8 4 3 4 3 4 4 3 5 7 12 2 5 5 3 3 2 4 14 15 15 15 12 12 12 14 15 16 15 16 17 18 18 17 16 15 16 15 16 14 13 12 10 9 7 5 3 1 1
5 6 4 4 3 2 6 6 4 7 6 6 5 7 2 3 1 9 19 17 16 16 14 14 14 14 16 17 17 16 16 15 14 13 12 15 15 14 17 17 15 15 13 10 8 6 3 1 2
4 3 4 3 1 2 3 6 6 4 3 4 3 6 4 2 13 18 19 17 19 16 14 15 15 15 17 16 17 16 16 14 14 13 12 13 13 12 13 15 14 16 15 14 13 9 7 3 2
4 3 4 3 2 1 2 5 6 4 3 5 6 6 5 7 14 17 18 18 19 17 15 14 14 15 16 16 16 13 12 11 11 12 11 9 11 12 11 15 14 14 14 15 14 13 11 7 4
5 4 4 3 5 3 5 4 5 6 6 4 10 6 2 5 16 17 18 20 19 16 17 16 15 15 16 15 14 9 9 8 8 7 7 7 8 8 9 12 15 15 15 16 15 12 14 14 7
4 4 4 3 7 6 5 5 5 6 3 4 5 7 5 10 19 20 19 20 18 17 18 17 17 17 16 13 10 8 7 7 8 7 7 7 7 7 9 10 13 14 14 15 14 14 12 15 13
3 4 2 4 6 4 4 5 1 3 6 2 2 6 8 26 23 22 20 19 19 19 18 16 15 15 13 12 8 5 5 6 7 8 8 7 7 7 8 9 9 14 10 11 11 11 10 12 11
4 4 7 4 4 6 6 6 9 5 5 1 1 2 23 26 27 26 22 20 20 20 19 19 17 16 14 10 7 4 4 5 7 9 9 8 8 8 8 8 8 8 10 10 11 11 11 12 14
4 5 5 3 1 5 5 4 4 9 5 7 11 10 10 15 24 24 27 27 24 20 18 17 17 16 13 10 8 5 4 5 6 8 9 9 9 10 10 10 10 11 12 12 12 12 12 13 14
3 5 4 3 1 4 5 4 5 8 8 10 14 17 14 9 16 24 26 27 25 21 19 18 16 16 14 11 9 7 5 6 6 7 8 9 10 10 11 12 13 14 15 15 16 16 15 14 14
4 4 4 4 4 3 2 7 7 8 5 6 12 13 12 10 17 27 32 29 27 24 22 20 18 16 15 13 10 9 8 7 6 5 7 8 9 10 10 11 12 14 15 16 16 17 18 18 18
4 5 4 5 4 3 4 5 4 6 4 8 15 15 11 12 21 24 30 33 31 28 26 23 20 18 16 13 11 10 8 8 6 4 5 7 7 8 9 9 11 12 14 14 15 17 18 18 19
3 3 2 5 5 5 5 7 11 5 7 11 11 10 10 12 23 25 35 35 34 31 28 26 22 19 16 13 12 10 8 7 5 3 3 4 5 7 7 7 8 10 12 12 15 15 17 18 20
4 2 1 5 8 5 8 11 10 10 13 12 12 11 10 12 19 31 34 35 33 31 31 27 23 21 17 15 13 10 7 6 5 3 1 2 2 4 5 5 6 8 11 11 15 16 18 19 20
3 4 7 7 12 4 7 9 7 10 15 15 15 14 14 11 14 28 33 33 35 33 32 28 24 22 18 16 13 10 8 6 5 2 2 1 0 1 3 3 4 6 7 8 9 12 13 16 17
7 6 5 6 6 6 8 16 9 5 15 20 17 17 15 15 20 31 35 32 32 34 31 28 25 22 19 17 15 11 9 7 5 3 2 1 1 1 2 4 5 5 6 8 7 11 10 14 14
4 5 5 4 6 9 15 20 19 12 9 13 13 15 17 21 22 24 34 31 30 34 32 29 27 25 23 22 17 12 11 9 7 5 5 3 3 1 4 5 6 6 7 8 8 10 11 15 15
8 8 9 8 8 10 9 20 18 7 10 16 21 17 20 17 13 19 30 35 37 36 34 31 29 28 26 22 18 10 12 9 7 8 7 6 5 4 6 7 8 6 9 8 11 11 11 14 15
11 14 6 9 3 4 4 11 8 9 16 19 20 18 19 21 22 17 24 32 38 40 38 34 32 30 27 22 17 13 10 8 9 9 9 7 6 5 7 8 5 8 8 10 12 12 13 17 14
16 8 14 10 4 7 6 14 8 7 15 10 20 20 22 22 21 18 22 28 35 40 41 37 33 32 29 24 20 18 15 12 11 10 9 7 6 6 6 4 7 8 10 11 11 15 15 14 18
9 8 9 6 5 1 5 4 3 4 7 15 13 21 23 22 20 22 23 35 39 39 44 39 35 35 31 27 22 20 17 13 10 10 9 8 7 8 7 7 9 9 10 12 15 12 19 19 20
4 3 6 4 3 5 10 8 24 9 15 14 15 11 16 17 20 19 27 29 32 36 41 39 37 37 33 29 25 22 19 15 14 13 12 10 10 9 8 10 9 12 11 14 13 20 19 20 21
4 6 3 4 2 11 11 8 22 8 8 11 15 16 11 14 15 15 18 21 29 34 39 41 40 40 36 33 29 25 20 17 17 14 14 12 12 11 11 10 12 13 15 16 18 21 22 23 24
9 9 7 8 7 12 6 10 13 12 20 20 15 12 6 9 14 17 21 25 31 34 36 39 40 40 38 35 32 27 21 20 18 17 17 16 16 13 12 13 14 15 18 20 21 23 25 27 27
9 9 9 7 1 2 6 9 11 8 10 9 11 9 11 11 15 18 16 25 29 33 38 41 40 40 40 37 33 29 24 22 19 18 17 16 15 14 14 13 16 19 19 20 23 26 28 28 29
10 6 2 0 7 11 10 6 12 5 15 14 10 12 12 9 9 11 14 22 29 32 35 37 41 43 42 38 35 30 26 23 20 18 15 15 14 13 13 15 18 17 19 22 25 28 28 29 29
2 9 5 5 7 13 16 12 9 17 16 12 12 13 14 12 14 13 13 21 26 28 32 36 38 38 40 39 36 30 28 24 22 19 15 15 14 13 14 16 16 20 23 24 25 27 30 30 31
19 17 21 13 16 5 15 23 2 7 8 9 15 10 7 8 8 9 10 16 22 27 30 34 35 37 41 41 36 33 30 26 24 20 16 15 14 13 14 16 19 21 24 25 26 30 30 31 31

GFSSGP_925_spd_009.txt.gz
Wind_Speed
13 9 1 3 4 5 1 3 1 4 1 2 1 3 6 3 2 3 3 18 14 13 10 9 8 7 9 11 12 12 12 11 12 11 11 12 12 12 11 10 9 9 8 7 6 5 3 3 4
13 2 3 2 4 3 3 2 5 4 6 7 6 3 4 2 2 6 7 16 13 12 11 10 9 10 12 13 13 12 12 12 13 13 13 13 14 13 12 11 10 9 8 7 7 5 4 2 2
3 2 3 4 3 4 4 4 5 7 12 4 5 3 2 5 2 6 12 15 14 13 11 11 11 12 14 14 14 13 14 13 13 14 13 13 14 15 14 13 13 11 10 8 7 6 4 2 1
0 4 4 4 3 3 4 7 5 8 5 3 4 6 1 2 3 10 18 16 16 14 13 13 13 14 15 15 15 14 13 11 10 11 11 12 10 13 13 12 14 14 13 13 10 8 5 3 1
3 3 4 3 2 3 3 3 8 6 4 3 2 5 4 2 12 23 19 18 17 16 15 15 14 15 15 15 15 14 12 12 13 13 10 12 13 12 13 12 12 12 13 13 13 12 8 4 2
4 3 4 2 4 3 2 3 5 4 4 4 5 7 5 10 21 22 20 19 17 18 17 15 15 16 15 14 13 12 10 9 9 9 7 8 9 11 11 12 12 14 15 15 13 14 14 12 4
5 4 4 5 3 2 4 6 5 6 4 4 9 7 2 4 19 22 20 20 18 17 18 17 16 15 16 13 12 10 8 6 4 4 4 4 5 6 8 13 12 13 14 15 13 13 12 11 11
4 4 5 3 5 6 4 5 5 7 5 3 6 6 4 8 21 24 23 21 19 18 18 18 18 18 15 13 10 8 5 4 4 4 4 4 4 5 5 7 13 12 13 11 10 9 9 11 10
2 4 3 5 6 6 4 5 3 1 8 3 5 7 4 27 24 24 24 21 21 20 19 19 19 18 15 13 10 6 4 4 4 5 5 4 5 5 5 7 8 11 9 9 9 8 9 11 11
4 3 9 5 5 5 5 5 8 5 4 3 3 4 8 30 30 26 25 24 24 23 22 20 20 18 15 13 9 6 3 3 3 4 5 5 5 6 6 7 7 8 9 9 9 9 9 8 9
3 5 4 3 3 4 5 3 5 7 5 8 12 8 14 16 26 24 27 32 32 29 24 23 22 19 17 14 10 8 5 3 2 3 4 5 5 6 6 7 9 9 11 11 12 11 12 12 11
2 5 3 2 3 4 5 5 5 8 9 6 12 13 19 13 19 23 26 33 32 31 29 26 23 22 19 15 12 10 8 6 4 3 4 4 5 6 8 9 11 12 13 13 14 15 15 14 14
3 3 3 3 4 3 2 7 9 9 8 2 7 8 17 16 22 25 32 36 35 33 32 30 27 24 21 18 15 12 10 8 6 4 4 4 4 6 7 7 9 11 12 14 15 15 16 16 17
3 5 4 5 4 4 4 5 4 7 7 6 9 13 15 16 24 25 27 32 37 36 35 32 28 25 22 20 17 14 12 10 7 5 4 3 4 5 6 6 7 9 11 13 15 17 17 18 18
1 3 4 5 3 5 5 9 12 9 5 9 11 14 15 15 23 28 36 38 42 39 35 33 30 27 24 21 18 15 13 11 9 6 4 3 3 4 5 5 6 8 10 11 13 16 16 18 19
0 2 2 4 6 6 8 14 9 9 9 13 12 12 14 16 22 30 35 38 41 40 36 33 30 27 25 22 19 17 14 12 10 7 5 3 2 2 3 3 4 6 8 10 11 15 16 19 19
4 4 7 8 10 4 8 9 7 6 12 13 13 14 15 15 16 27 35 40 45 42 38 34 31 29 26 22 20 17 15 13 11 8 6 4 3 2 2 2 3 4 5 9 9 12 13 17 18
7 6 5 6 3 4 5 15 13 2 8 17 14 13 14 16 23 28 40 40 43 42 38 36 32 29 26 23 21 19 16 15 13 10 8 6 4 4 3 2 1 2 3 7 7 9 11 13 16
4 4 6 5 6 8 10 18 22 13 8 14 13 14 15 18 23 23 29 39 38 39 38 38 35 32 30 29 26 22 21 18 15 13 10 9 6 5 3 2 1 2 3 5 5 8 9 11 14
5 6 9 8 8 8 10 20 18 15 9 18 18 17 20 20 18 16 30 34 39 42 42 41 39 37 35 33 30 23 23 19 16 14 12 11 8 8 5 4 3 3 4 4 5 7 8 10 14
12 14 8 13 7 5 4 20 9 11 16 13 17 23 18 23 22 20 21 31 37 42 46 48 45 41 38 34 30 21 17 12 17 16 14 14 10 9 8 6 5 3 3 4 6 6 7 8 11
15 8 13 12 3 9 4 15 7 6 14 13 18 17 19 20 21 18 19 28 35 41 46 49 47 44 40 37 34 30 25 19 19 18 15 13 11 11 8 7 5 4 5 5 5 8 6 11 14
7 7 9 7 6 2 5 4 2 3 7 11 13 19 19 20 18 19 21 35 39 38 45 50 48 45 42 41 37 32 26 20 14 16 15 14 13 11 9 9 6 7 6 7 9 8 10 12 13
3 3 1 3 4 7 10 8 28 11 13 11 12 13 14 18 14 19 27 25 28 32 37 43 47 47 45 43 38 34 29 23 19 19 17 16 14 13 12 10 8 8 9 9 9 10 14 15 17
4 5 4 4 2 15 9 9 22 4 6 9 15 17 16 9 10 13 15 16 25 35 37 39 44 41 46 43 40 35 30 26 23 22 19 17 16 15 14 12 10 9 9 11 13 16 18 18 20
11 13 9 6 7 15 5 10 13 10 10 9 13 16 15 14 8 11 16 17 27 32 35 38 39 41 45 45 42 37 32 28 24 22 19 18 17 16 13 12 11 11 11 13 16 17 19 20 23
5 7 15 11 21 5 12 16 13 11 9 11 12 11 16 19 8 11 9 18 22 29 36 40 42 38 44 46 44 40 35 31 27 23 19 19 18 17 15 14 13 13 14 15 15 18 19 21 23
6 4 3 2 9 21 14 6 12 6 7 11 11 13 12 11 7 9 11 16 23 29 33 36 38 42 46 46 46 43 38 33 27 23 21 20 18 17 15 14 14 14 14 15 17 18 20 23 25
10 6 4 4 7 17 19 14 7 14 16 17 12 10 11 11 8 7 7 13 19 23 29 33 36 37 39 42 43 41 39 34 28 24 22 20 18 17 15 14 13 14 15 17 18 20 21 25 25
16 9 3 4 15 6 14 24 3 4 8 7 10 11 11 8 9 8 9 12 18 23 27 34 35 37 39 43 42 42 40 35 31 27 25 22 19 17 14 13 14 14 16 17 19 19 22 23 26

GFSSGP_925_spd_012.txt.gz
Wind_Speed
12 6 4 3 4 5 0 3 2 4 1 2 2 4 5 2 3 3 2 15 12 13 10 9 7 6 7 10 10 10 10 11 11 11 12 12 11 10 9 9 9 9 7 7 6 6 4 5 6
11 1 2 2 4 3 4 2 5 5 3 7 5 3 2 1 1 3 5 17 13 11 11 10 8 9 9 10 11 11 12 12 12 12 12 14 13 13 12 11 10 8 8 8 7 6 5 4 5
3 3 3 4 3 3 4 4 5 4 8 3 3 3 5 4 2 11 13 18 14 12 11 10 10 11 11 11 11 13 13 12 13 12 12 12 13 13 13 14 14 13 13 9 8 7 5 4 4
2 5 4 4 2 3 3 5 5 8 3 2 4 3 1 3 5 11 21 17 14 13 12 11 11 12 13 13 13 11 11 10 11 10 11 10 11 12 11 12 13 14 14 13 12 7 8 6 3
4 3 3 2 2 2 2 3 7 7 3 4 4 5 2 3 6 18 20 18 17 15 14 13 13 15 15 14 12 12 12 13 12 9 10 11 12 12 12 13 14 15 14 14 14 15 11 7 6
3 3 3 2 4 2 3 4 7 4 3 3 3 7 5 4 18 23 20 19 17 17 16 16 16 16 15 14 12 12 11 10 8 7 6 7 11 12 12 12 13 14 14 14 13 14 10 6 8
4 3 4 4 3 3 4 8 5 6 5 5 6 7 3 5 21 21 20 19 18 18 18 19 18 17 16 14 12 10 8 6 4 3 3 3 4 5 9 13 12 12 12 13 11 11 11 8 4
4 4 4 3 4 5 3 6 4 8 7 3 6 6 5 10 24 21 20 20 20 20 20 20 20 19 18 15 11 8 6 3 2 2 2 3 3 4 6 9 12 13 12 12 11 9 10 10 8
3 4 3 5 6 5 3 6 2 1 6 3 7 5 2 26 28 23 22 20 20 21 22 22 22 20 18 16 12 8 5 3 2 3 3 3 4 5 5 9 12 11 12 10 8 7 7 9 10
4 3 8 5 5 4 3 6 8 5 3 4 3 5 3 28 31 27 26 23 26 26 25 24 24 22 19 16 12 9 6 4 3 3 3 4 5 6 7 8 8 9 9 10 10 9 8 7 10
3 5 4 4 5 4 3 3 7 8 5 9 13 9 11 18 22 25 26 32 37 32 29 28 26 23 21 18 14 10 8 5 4 3 3 3 4 6 7 8 9 10 11 12 12 12 12 12 11
2 6 5 3 3 3 4 3 6 9 11 5 12 6 11 14 19 25 26 32 36 35 33 30 27 25 22 19 16 12 10 7 5 4 3 3 4 6 7 7 9 9 11 12 13 13 14 13 13
3 4 4 7 6 5 2 7 9 9 11 3 3 9 14 17 25 27 30 33 37 38 36 33 31 29 26 23 19 15 12 10 8 5 3 3 3 4 6 7 8 9 9 11 12 13 14 14 14
3 4 6 4 4 4 4 6 3 5 6 9 7 11 13 19 25 23 24 30 37 41 39 35 33 31 29 25 21 18 15 13 10 7 4 3 3 4 5 6 6 7 8 10 11 13 14 14 14
4 6 7 4 3 6 4 10 15 6 4 9 10 10 11 16 21 27 38 39 43 43 41 39 36 32 30 27 24 21 18 15 12 9 7 5 4 4 5 5 5 6 7 7 8 11 11 13 13
4 2 3 4 3 4 7 15 13 6 8 13 12 10 11 14 24 32 30 39 40 41 41 40 38 35 32 29 26 23 20 17 14 11 9 7 6 5 5 5 5 5 5 6 7 10 12 14 15
6 5 5 9 8 2 8 8 8 1 8 11 10 12 12 15 15 24 32 39 40 45 44 42 39 37 33 29 26 23 21 19 16 14 11 10 8 7 6 6 4 4 3 5 6 9 11 14 16
6 5 5 6 3 2 7 15 18 8 5 11 11 9 9 12 19 30 40 41 43 44 45 43 41 37 34 30 27 24 22 20 19 16 14 12 10 9 8 6 5 4 2 3 4 6 8 11 14
2 3 6 6 4 4 8 17 18 18 6 12 12 12 14 18 24 23 32 41 41 42 43 46 43 40 37 34 32 28 28 25 22 19 16 14 12 11 9 8 6 4 3 1 2 4 6 8 13
7 7 13 8 7 7 10 21 16 16 12 15 17 16 19 16 16 12 28 33 40 43 45 47 48 45 43 42 39 31 31 27 24 20 19 17 15 14 11 9 8 6 5 3 2 2 3 5 9
8 7 12 13 10 7 7 26 12 10 12 9 13 20 18 18 18 17 16 30 34 36 46 48 52 51 48 44 38 26 26 19 24 24 23 22 19 16 14 11 10 8 6 5 3 1 2 2 7
9 11 14 10 2 9 4 18 3 6 12 7 13 16 19 19 17 16 12 20 34 45 45 50 51 52 50 47 43 41 36 26 30 31 26 23 21 18 17 13 12 10 8 7 5 3 3 2 6
10 7 7 6 5 4 5 4 17 4 5 9 11 13 16 18 17 16 17 30 37 34 42 50 50 50 52 51 48 44 37 33 25 26 25 24 22 19 17 15 14 10 8 8 7 5 6 6 9
1 2 1 4 4 6 8 8 27 5 8 7 7 10 13 13 12 14 21 25 28 32 36 40 45 50 50 52 49 47 43 34 25 25 27 26 23 21 19 17 14 10 9 9 9 7 9 11 12
4 4 4 4 2 11 10 9 27 5 2 5 10 13 16 10 9 9 11 13 22 29 34 37 42 42 46 52 51 48 43 37 32 30 30 28 24 23 21 19 16 11 10 9 10 10 12 14 16
3 8 5 6 4 7 3 9 9 2 7 6 10 12 10 15 10 9 10 9 20 26 32 35 36 36 43 49 50 48 44 40 34 31 29 27 26 23 20 19 16 13 12 11 11 12 13 14 16
3 3 6 11 22 12 14 17 14 10 11 9 12 10 13 13 13 9 9 11 18 25 32 36 35 36 44 47 46 47 46 40 36 31 27 25 23 21 19 18 17 15 14 12 13 13 14 15 16
5 3 6 3 9 20 12 7 12 13 16 19 20 20 20 20 23 16 9 9 19 24 27 32 36 39 41 44 46 47 47 42 36 31 28 26 23 22 20 19 18 16 15 13 13 14 14 16 17
12 13 7 6 8 9 11 9 3 8 11 18 20 20 15 16 20 17 16 12 18 22 27 32 33 34 35 40 41 41 43 41 37 33 29 27 24 22 21 20 18 17 15 13 14 14 15 16 18
15 18 6 4 6 5 7 10 6 18 25 26 24 20 27 22 16 13 11 13 12 19 25 27 27 33 36 39 40 42 44 43 40 35 31 28 25 22 20 19 18 16 15 14 14 15 15 18 20

GFSSGP_925_spd_015.txt.gz
Wind_Speed
8 3 7 3 1 2 2 3 1 4 5 2 4 4 5 1 3 1 2 18 10 15 12 10 8 7 7 9 9 9 11 9 10 11 12 11 10 8 7 7 9 11 9 8 8 7 6 7 9
4 5 3 2 2 1 1 2 5 5 3 9 6 4 2 2 1 2 6 14 13 13 11 10 10 9 10 10 10 11 12 12 12 13 14 14 13 13 13 11 10 7 9 10 9 7 6 5 7
2 3 2 3 2 2 2 4 6 3 10 3 4 0 3 2 2 7 6 16 14 11 11 10 11 10 10 11 12 13 12 13 12 12 11 12 12 12 12 12 13 13 13 10 9 9 6 5 5
1 3 3 2 2 2 2 3 6 10 3 2 3 2 2 4 6 8 19 16 15 13 12 11 13 12 13 13 13 11 12 11 12 12 11 11 12 11 12 12 13 13 14 14 12 8 9 7 5
4 2 2 1 2 2 3 3 10 10 4 5 7 3 3 3 8 14 21 18 16 15 13 12 14 15 15 14 12 12 13 11 10 8 10 10 11 11 11 12 12 13 13 12 13 8 10 9 7
3 2 1 3 3 2 3 5 9 8 3 4 5 5 4 4 12 20 21 19 17 16 15 13 16 17 16 14 13 12 11 9 8 6 7 9 10 10 11 11 11 12 11 12 11 9 8 6 6
4 3 3 3 3 3 3 8 8 11 5 6 3 5 1 7 15 22 20 18 17 16 15 16 16 17 18 15 14 11 9 7 5 4 3 4 5 9 11 11 10 10 11 11 9 8 8 6 4
4 3 3 3 4 5 4 8 4 11 11 2 5 5 4 8 21 21 19 19 17 16 17 19 18 18 17 15 13 11 8 6 4 3 3 4 5 7 6 9 10 10 11 10 7 6 7 7 6
2 2 4 5 6 4 4 7 3 1 4 4 7 3 1 11 24 19 16 15 15 17 21 24 24 22 20 16 14 11 8 6 4 4 4 4 5 6 7 10 9 10 10 8 5 6 7 7 7
3 3 8 4 4 4 4 7 7 5 6 5 5 8 3 20 24 23 22 22 22 24 25 26 26 25 23 20 17 13 10 7 6 5 5 5 5 5 6 7 7 8 8 8 7 7 7 6 8
2 4 3 3 6 3 2 2 5 6 6 8 13 12 12 21 23 24 25 27 29 26 27 29 28 27 25 23 19 16 12 10 8 6 5 4 5 6 7 7 8 8 9 10 10 10 11 10 9
3 4 3 4 2 1 3 0 4 10 11 3 11 3 14 17 23 28 28 28 29 29 32 32 31 29 27 24 21 18 15 12 10 8 6 5 6 6 7 7 8 8 9 9 10 11 11 11 11
2 3 3 7 7 5 2 6 7 6 14 7 2 6 15 18 27 29 31 27 24 27 30 35 34 32 30 27 24 21 17 14 12 10 8 7 7 7 7 7 7 8 8 9 9 10 10 10 11
2 4 7 5 5 4 5 6 3 4 7 11 10 12 14 19 29 28 26 28 29 30 32 37 37 34 32 30 27 24 20 17 15 12 10 8 8 7 7 7 7 7 7 8 8 9 9 9 9
3 6 6 5 4 6 4 10 15 11 6 10 13 16 15 17 23 31 35 36 36 35 33 40 40 37 35 33 29 26 23 20 18 15 12 10 9 8 8 8 7 7 6 7 7 7 7 7 7
4 1 5 3 2 3 6 15 13 6 9 17 16 14 13 16 25 33 28 31 31 30 35 43 43 41 39 36 32 30 26 23 21 18 15 13 11 10 10 9 9 8 6 6 6 6 6 6 7
4 5 4 9 3 3 7 8 5 5 3 12 13 14 13 15 19 28 29 35 33 37 41 43 45 44 43 38 35 32 29 27 24 22 19 16 14 13 12 11 10 9 7 6 4 5 4 5 7
3 4 4 6 2 3 8 17 20 17 10 16 18 16 13 16 22 27 33 33 33 35 37 40 45 45 42 39 35 31 29 28 27 25 22 19 17 15 14 13 12 11 8 6 4 3 4 5 8
2 4 10 16 12 9 18 22 20 21 10 15 17 18 17 20 21 23 26 31 31 33 32 38 42 45 43 39 35 30 33 32 30 27 24 21 19 18 16 15 14 12 10 6 4 3 3 3 9
7 9 14 12 11 7 12 26 20 18 25 20 20 20 21 20 16 17 24 27 33 38 40 39 43 46 48 48 41 27 30 32 31 29 26 24 22 20 19 17 15 13 12 8 6 3 2 2 5
4 7 8 13 12 8 11 19 10 8 15 16 16 20 20 19 20 19 17 26 28 32 39 42 48 52 54 48 40 32 26 23 28 30 30 29 25 23 21 18 16 15 13 10 8 6 4 3 1
6 12 15 11 5 6 5 16 7 11 16 5 12 16 17 16 17 16 15 22 30 40 44 43 46 46 50 51 46 43 36 26 31 33 36 31 28 25 23 20 18 16 15 12 10 9 6 6 2
7 1 4 3 5 6 6 6 19 5 9 12 13 12 11 15 15 16 15 24 31 33 36 43 41 42 46 52 49 47 35 31 31 34 34 31 30 27 24 23 20 19 16 13 12 11 9 9 5
2 2 2 2 2 8 10 10 27 6 3 6 7 7 9 10 14 13 19 19 24 25 31 35 39 45 47 53 51 51 42 35 31 31 31 33 30 29 26 25 22 20 17 15 14 12 11 11 10
2 3 4 3 3 7 3 9 21 7 18 7 10 19 21 21 20 18 17 17 25 22 29 33 37 40 44 47 47 47 43 41 41 36 35 33 30 31 31 28 26 22 18 15 15 14 12 12 14
6 4 2 7 8 14 6 12 12 3 7 13 13 15 17 19 18 20 19 22 25 25 26 29 32 35 38 39 43 43 43 42 38 40 37 36 37 35 33 29 27 23 18 16 15 15 13 14 14
3 1 4 8 18 14 13 18 14 17 9 17 19 20 21 18 18 18 21 29 31 23 21 26 28 31 37 41 40 40 40 40 39 41 37 36 34 32 31 29 27 23 19 17 15 15 14 14 15
5 5 6 3 16 22 18 22 16 16 17 22 27 27 24 20 20 19 20 28 34 25 15 18 23 29 32 37 40 40 40 40 41 43 38 35 33 31 30 29 28 24 21 19 16 16 15 16 16
11 10 10 10 10 15 20 11 2 19 18 24 32 27 22 19 19 19 18 27 29 26 15 15 20 24 26 30 32 34 36 36 37 42 38 35 34 33 31 30 29 25 22 20 18 16 15 16 16
11 4 7 5 12 16 13 19 22 19 30 33 29 25 26 22 21 19 17 20 28 27 20 14 18 22 25 28 30 32 34 39 39 39 39 37 36 34 33 30 29 25 22 20 18 17 15 16 15

GFSSGP_925_spd_018.txt.gz
Wind_Speed
5 2 6 4 4 4 1 3 1 6 5 4 6 6 2 3 5 4 6 12 10 13 10 8 7 6 9 8 8 10 9 8 7 7 9 7 5 4 4 8 11 13 11 9 9 7 7 9 9
1 7 3 2 5 5 3 3 6 5 3 5 4 6 4 2 1 4 10 13 12 12 10 8 9 7 10 10 9 10 11 10 12 12 12 11 12 12 12 8 6 7 10 11 10 7 7 7 8
3 5 3 3 3 7 5 3 6 7 6 7 5 4 2 0 3 3 6 15 14 11 9 9 12 10 11 10 10 11 12 12 10 10 11 10 9 10 10 11 11 12 11 8 9 11 7 7 6
4 4 3 6 8 2 3 1 6 8 5 5 3 4 3 3 4 7 13 16 14 11 10 10 13 12 12 12 12 12 12 11 10 10 10 10 9 10 10 11 12 12 11 9 6 9 9 7 6
2 3 6 7 10 5 4 1 8 11 8 7 8 3 3 5 7 10 18 17 15 12 10 9 13 14 14 13 11 12 11 11 9 8 7 9 9 8 9 10 11 10 10 12 7 4 5 5 6
3 3 8 11 12 5 3 4 9 11 8 6 7 5 3 5 12 15 16 16 13 12 11 10 13 16 15 13 13 14 12 9 8 6 6 8 8 8 8 9 9 10 9 10 10 11 10 6 7
4 4 12 12 13 12 6 6 11 12 11 10 1 6 1 9 14 16 17 15 14 13 12 12 14 16 15 14 14 12 10 9 6 5 5 5 8 8 8 8 8 8 9 8 5 6 5 3 3
2 3 11 11 12 15 3 7 5 11 14 3 5 5 3 8 18 17 16 15 15 14 14 14 15 16 16 14 14 13 11 8 7 5 5 5 7 7 7 8 7 8 8 5 3 4 4 4 4
1 5 12 15 12 14 3 9 5 1 10 5 9 8 3 9 18 18 18 17 17 16 16 16 17 19 18 15 14 14 11 9 6 6 6 7 6 6 6 7 8 7 8 4 3 3 4 5 5
3 5 12 7 9 10 8 10 8 6 12 12 13 12 7 15 21 22 22 22 22 21 20 19 19 20 20 17 15 14 13 10 8 8 7 6 6 6 7 7 5 6 5 4 5 4 4 5 4
1 6 5 4 7 7 9 8 5 9 14 14 16 17 14 17 21 22 23 23 24 23 22 23 22 22 22 19 18 16 13 11 10 10 9 8 7 6 5 5 4 4 5 3 5 6 6 6 5
5 6 6 6 3 5 10 8 12 15 18 6 9 9 11 17 21 26 26 26 25 25 25 25 24 24 24 20 20 17 15 13 12 11 11 9 7 6 5 5 5 4 3 3 3 4 6 6 7
8 7 7 9 11 12 12 17 18 17 15 15 12 7 12 16 23 26 26 24 23 25 26 27 27 27 26 24 21 19 17 15 13 12 12 10 9 8 7 6 5 4 3 3 3 3 3 5 5
2 10 14 12 15 11 13 19 14 9 9 14 16 18 16 17 22 24 26 27 27 27 28 29 31 30 28 27 23 21 18 16 15 14 13 12 10 9 8 7 6 5 4 3 3 2 2 2 3
6 11 13 12 9 9 6 18 17 16 16 20 20 19 18 19 22 26 29 30 30 31 30 32 33 32 31 29 25 22 19 18 16 15 14 13 12 11 9 8 7 6 5 4 3 2 2 1 1
7 7 8 4 3 2 6 21 16 4 7 12 14 14 16 19 21 28 29 29 31 30 31 33 33 33 32 29 26 23 21 20 18 16 15 15 14 13 11 10 9 8 7 5 4 3 2 1 1
3 11 12 14 3 4 10 17 11 5 7 16 19 19 17 16 19 29 28 31 32 32 32 33 34 33 34 30 26 24 22 21 19 18 17 17 16 15 12 11 10 10 8 7 5 4 3 2 2
11 12 14 14 4 7 18 25 27 25 22 22 23 22 22 22 24 29 26 30 31 32 33 34 35 35 34 30 28 24 22 22 21 20 19 19 17 16 14 12 11 11 9 8 7 5 3 2 3
12 13 18 20 21 21 21 23 24 25 23 23 23 23 23 24 23 26 21 23 27 31 34 36 37 39 36 34 31 29 29 25 23 21 20 20 18 18 16 13 13 13 11 10 9 6 5 3 3
11 15 18 17 13 14 19 29 28 27 26 23 20 19 21 19 17 18 19 19 24 30 33 34 38 38 40 38 37 32 30 27 25 22 22 23 21 20 18 16 16 15 12 11 10 9 6 4 1
11 13 16 19 20 16 18 23 10 9 8 10 11 14 17 16 16 16 18 17 16 23 30 35 40 41 43 41 34 28 24 21 25 26 25 26 24 22 20 19 17 16 14 13 12 10 8 6 3
13 5 11 14 11 10 12 16 16 6 2 3 8 13 17 19 18 16 19 23 20 20 24 30 35 39 41 40 36 39 36 31 31 31 29 27 27 25 23 21 19 18 16 14 13 11 9 7 6
11 7 11 14 16 16 12 8 3 11 9 11 17 16 16 16 18 21 19 26 25 24 23 25 30 36 39 42 42 42 39 35 28 28 29 28 27 26 24 23 21 20 18 16 15 13 12 10 8
12 10 14 9 9 7 8 14 12 7 3 15 14 17 18 19 19 20 29 31 28 28 26 22 27 32 37 41 44 44 44 38 31 31 30 30 28 27 26 25 23 22 20 18 17 15 13 12 10
10 11 7 5 5 9 3 9 18 20 12 15 16 20 26 26 23 22 22 27 33 34 32 28 23 31 33 40 44 44 43 42 38 35 33 32 30 29 29 29 26 24 22 20 18 17 15 14 13
10 5 6 9 11 18 18 14 10 12 8 14 17 18 23 27 23 24 24 32 33 34 31 32 26 26 29 35 40 41 40 38 38 36 33 33 33 32 30 31 28 25 23 21 20 18 17 14 14
4 6 10 14 21 18 15 21 23 17 13 28 28 28 30 27 25 27 27 32 32 32 33 31 28 23 24 29 34 37 39 40 39 36 34 34 32 29 30 30 29 27 25 23 20 18 18 15 14
8 11 9 7 8 13 14 23 21 20 28 29 32 34 32 30 30 25 21 29 32 29 30 30 27 23 21 23 29 31 35 38 37 35 35 33 31 29 30 30 29 27 26 24 21 18 17 16 15
14 7 5 6 9 12 18 14 19 29 32 32 30 28 28 29 27 24 23 28 28 29 30 30 26 23 20 20 23 28 31 34 36 35 34 32 31 31 30 31 30 29 27 25 22 19 16 17 15
3 8 9 9 19 18 19 26 26 26 28 27 27 23 25 26 24 23 23 26 27 28 31 30 27 25 21 19 20 25 28 31 34 35 33 32 32 30 30 31 30 29 28 25 23 21 17 17 15

GFSSGP_925_spd_021.txt.gz
Wind_Speed
9 3 2 4 4 6 5 6 4 3 1 5 2 4 10 7 10 4 9 8 11 13 11 10 8 7 9 7 8 8 8 5 4 5 7 6 5 5 7 9 11 13 14 11 9 8 10 11 10
3 1 3 4 7 3 2 5 2 2 5 1 2 2 6 6 4 8 10 10 13 12 10 10 9 8 9 9 9 10 8 6 9 11 10 11 12 12 10 9 8 8 10 13 11 9 8 9 10
2 5 3 4 7 7 4 5 2 3 3 3 2 3 7 4 2 7 6 14 14 11 9 10 11 9 12 10 9 9 8 9 8 9 9 9 10 10 12 12 12 11 9 9 11 12 9 7 7
3 6 5 7 13 8 4 7 5 3 3 4 4 6 3 2 5 5 12 15 14 11 10 9 13 12 12 10 10 11 11 9 8 8 9 9 9 10 10 10 10 9 10 7 8 7 9 7 7
5 5 8 11 11 10 6 4 5 6 5 6 6 6 2 5 3 7 14 14 14 12 11 9 13 14 12 12 13 12 11 11 8 7 8 8 7 8 9 10 9 10 11 11 9 8 7 6 7
4 4 10 11 12 10 1 6 8 9 9 2 5 11 4 10 9 10 13 13 13 13 11 11 12 15 14 12 13 13 12 9 8 6 6 6 6 7 8 8 8 9 9 9 8 8 7 7 10
4 7 13 15 15 13 12 1 9 11 11 9 5 8 2 9 12 13 13 13 13 13 12 12 13 14 14 13 14 14 12 10 8 5 4 6 7 6 7 7 7 7 7 6 6 6 5 5 5
5 4 14 14 12 12 13 3 8 13 13 5 3 7 6 10 16 15 14 13 14 14 14 14 16 15 13 13 14 14 13 11 8 7 5 6 7 5 6 9 7 6 5 4 4 4 6 6 4
3 5 11 14 15 14 11 8 13 4 11 8 7 12 3 6 16 15 15 14 15 16 16 16 17 16 17 15 14 14 13 12 10 8 7 9 4 5 5 5 6 5 4 3 3 3 5 7 7
5 8 11 8 10 11 14 14 12 15 13 14 12 13 5 7 15 16 16 16 18 18 18 18 18 18 18 17 16 15 14 11 10 9 9 7 6 6 7 4 3 4 5 7 5 4 6 6 3
3 9 9 8 7 11 13 15 14 15 17 17 17 14 14 15 16 17 18 18 19 19 18 19 19 19 20 20 18 18 15 14 12 12 10 9 8 7 5 3 2 1 6 2 4 4 3 4 3
9 13 11 9 9 10 13 15 18 14 18 17 19 10 15 13 15 20 21 20 18 19 21 21 22 22 23 22 21 19 17 16 14 14 13 11 9 8 6 5 5 3 1 1 2 2 3 4 4
13 13 10 12 12 15 16 17 19 18 19 19 15 15 12 16 18 22 23 22 20 21 23 25 24 25 25 26 23 21 20 19 16 15 15 13 11 9 8 7 5 4 3 2 1 1 1 2 2
8 12 17 18 17 16 17 19 16 17 13 13 14 16 18 18 19 22 23 25 26 25 25 26 27 28 27 28 26 25 22 19 18 16 16 15 12 11 9 8 7 5 4 3 3 2 1 0 0
11 16 17 18 15 8 8 15 15 15 11 14 17 17 16 17 21 23 26 28 28 27 25 26 27 28 29 28 27 25 23 21 20 18 17 17 15 13 11 9 8 7 6 5 4 3 2 1 2
11 11 11 1 4 1 3 19 17 9 7 13 13 14 14 15 17 23 26 28 28 28 27 27 27 30 31 30 28 26 24 23 22 20 18 19 17 15 13 11 10 9 8 7 6 5 4 3 3
11 10 13 13 4 2 6 17 13 11 16 18 20 20 19 20 18 20 23 23 26 27 28 29 30 32 32 32 29 28 27 26 24 22 20 21 19 17 15 13 12 11 9 9 8 7 6 5 5
15 17 18 18 14 11 20 25 25 24 21 21 21 20 19 18 20 22 23 22 22 24 26 29 29 32 33 31 30 28 27 27 26 25 23 21 21 20 18 15 14 13 11 10 10 9 7 6 5
14 15 19 19 18 18 18 20 25 24 21 21 19 18 15 14 13 15 18 19 18 16 23 26 29 31 33 30 30 31 31 29 28 27 26 25 24 24 23 19 17 17 14 13 12 10 9 7 5
12 16 19 18 13 19 20 25 28 26 19 8 8 7 9 13 15 25 28 30 33 12 16 23 27 29 32 31 32 32 30 29 28 27 28 28 28 26 24 21 21 19 17 15 14 13 10 8 6
14 16 18 18 20 21 19 17 9 12 11 8 20 22 22 19 19 19 22 27 25 26 27 22 23 27 30 29 31 29 28 26 26 30 30 32 30 28 26 24 21 20 18 18 17 15 13 10 8
15 6 12 17 15 10 17 10 13 7 10 19 18 19 19 20 19 18 21 24 25 25 25 24 26 25 28 31 31 32 30 28 34 33 32 31 32 29 28 25 24 22 21 18 18 16 14 12 11
12 10 15 17 17 18 16 8 3 9 10 14 15 17 18 20 21 19 21 26 27 27 28 27 25 26 26 31 34 35 35 31 27 27 29 30 32 31 30 28 26 24 23 20 19 18 16 14 11
11 13 19 20 11 8 12 11 6 5 10 13 12 14 16 21 24 22 28 31 28 29 26 26 27 27 25 29 30 36 37 36 29 28 29 31 32 33 32 31 29 27 25 22 22 20 18 16 13
7 15 7 6 6 7 6 9 12 9 17 15 15 18 22 24 23 23 25 29 29 28 31 28 27 27 29 25 30 32 39 37 36 32 31 30 32 33 35 35 32 29 27 24 22 21 19 17 15
15 8 6 8 9 16 22 11 8 7 16 13 19 20 22 22 24 26 27 29 30 30 30 29 29 28 29 28 26 31 33 37 37 36 33 33 33 36 36 37 33 29 27 25 23 20 19 17 17
6 7 9 11 19 17 11 15 17 6 22 28 30 27 25 23 23 24 28 31 31 31 31 30 32 28 26 28 26 26 32 33 33 36 35 34 33 31 35 37 33 30 28 27 24 21 20 18 17
8 6 6 6 7 11 12 20 17 17 28 30 30 30 28 26 28 25 25 31 33 29 30 29 33 31 25 25 25 23 27 31 31 33 37 33 31 32 34 36 34 31 29 27 25 22 19 19 17
13 13 8 9 9 9 16 13 13 29 22 28 27 26 25 21 23 24 27 34 31 32 29 31 32 32 28 23 25 23 23 27 29 32 37 32 32 32 34 36 35 32 31 29 26 22 20 20 19
8 9 1 4 11 15 16 25 23 21 28 24 25 24 22 22 22 24 29 34 32 28 29 30 30 31 28 27 25 25 21 22 26 30 33 32 31 31 33 35 35 33 31 29 28 25 22 21 20

GFSSGP_925_spd_024.txt.gz
Wind_Speed
10 8 7 4 2 2 2 6 4 7 2 6 5 8 7 7 6 3 10 10 15 15 12 11 10 10 10 10 11 10 8 6 6 7 8 8 7 7 7 9 11 13 14 10 10 10 11 11 10
4 4 3 3 3 2 3 8 8 6 8 4 2 4 4 11 9 9 13 12 16 15 10 12 11 12 10 11 12 11 7 6 10 10 11 12 12 12 12 12 10 10 12 15 11 10 9 10 9
4 4 3 3 4 2 3 11 7 8 6 3 2 5 2 4 6 17 14 17 16 14 16 14 12 11 12 12 12 10 7 10 11 11 11 12 12 12 13 12 12 11 11 10 12 11 11 8 9
5 3 4 3 10 4 11 4 7 2 5 0 8 4 5 11 6 10 19 18 17 14 13 12 12 12 13 11 11 11 11 11 11 11 10 11 11 12 11 10 10 11 10 10 10 9 9 8 8
5 4 3 7 13 7 2 8 4 5 3 4 6 6 3 9 11 15 17 17 17 16 14 12 15 15 13 11 12 13 11 12 11 10 10 10 10 10 10 10 9 10 11 11 10 9 9 9 7
3 3 4 6 11 11 10 3 5 5 7 2 4 6 2 16 15 15 17 16 15 17 13 12 16 15 14 13 14 13 13 11 11 10 9 10 9 9 9 9 9 9 9 9 9 7 7 9 10
3 3 6 9 8 8 9 9 7 7 10 9 5 1 4 11 14 17 16 15 14 15 13 15 14 14 14 13 15 14 13 12 11 9 8 9 9 8 7 8 7 7 7 6 7 7 7 7 6
2 2 5 7 7 8 6 5 3 6 8 8 4 2 5 11 16 16 15 14 15 15 17 18 20 18 13 14 16 16 14 13 11 9 9 9 8 9 8 7 6 6 5 5 6 7 8 8 6
1 2 5 9 8 7 10 10 9 5 2 6 8 5 7 19 16 15 17 15 17 17 18 17 23 21 18 17 18 16 14 13 12 11 8 9 7 8 7 6 5 6 6 5 5 7 8 9 9
2 3 5 6 7 7 10 9 9 10 9 10 9 7 17 20 20 17 15 17 18 18 18 19 22 22 23 21 19 17 16 17 14 12 12 11 10 10 6 4 5 7 9 9 8 8 7 5 4
3 3 5 9 7 7 8 11 9 9 8 8 9 11 1 9 15 15 18 20 20 20 21 20 20 24 24 25 25 19 18 15 14 12 13 13 15 14 9 4 5 6 7 6 5 3 4 6 4
3 8 10 7 7 7 9 11 10 11 11 9 10 9 7 11 10 16 17 20 20 24 25 24 24 24 25 27 25 20 24 19 20 19 14 19 17 13 11 4 6 5 5 5 6 1 5 6 6
9 12 13 7 8 7 10 10 10 13 14 12 13 11 9 8 9 20 23 24 24 22 24 27 25 23 27 26 27 21 26 24 22 21 20 21 16 15 13 14 9 8 8 6 4 4 3 4 5
7 10 13 13 15 12 13 10 7 11 10 10 9 9 9 10 12 18 18 21 23 20 22 28 29 28 23 28 28 28 24 24 23 24 24 22 20 18 18 15 13 11 10 9 6 6 7 4 3
7 12 13 16 15 7 6 8 11 13 11 9 8 9 10 11 15 17 23 21 23 25 24 27 31 31 29 27 29 29 28 25 25 27 26 25 22 21 20 18 16 13 13 9 10 9 7 7 6
6 8 4 5 4 5 7 9 10 8 7 8 9 10 11 11 12 15 17 26 26 23 23 22 30 34 33 29 27 29 31 27 27 25 27 26 25 23 21 20 18 16 14 15 13 11 9 8 7
7 5 9 8 6 2 6 10 7 9 11 14 10 9 9 8 9 15 27 16 17 25 22 24 21 31 32 30 26 27 29 29 28 27 28 28 29 27 25 23 21 21 19 16 15 13 11 9 8
11 12 12 12 8 11 10 15 12 11 10 10 9 8 8 6 20 33 38 41 34 32 15 18 18 23 32 30 28 26 29 31 31 31 29 30 32 31 28 26 24 23 20 18 17 15 13 11 9
8 11 13 13 13 12 9 16 20 19 12 9 7 16 19 19 20 33 36 41 41 45 42 41 40 18 19 28 29 26 28 30 29 31 30 31 34 33 31 29 26 25 24 22 20 17 15 14 11
8 13 14 12 10 13 11 18 22 23 6 20 20 20 19 20 20 26 31 35 36 36 39 41 39 39 37 17 31 31 32 31 31 31 31 33 35 37 36 32 30 29 25 22 22 20 18 15 14
11 12 10 13 15 14 10 7 2 15 22 21 20 17 19 19 19 17 24 30 32 32 35 37 38 37 36 36 19 29 27 28 29 32 36 37 37 37 37 35 33 31 29 27 26 24 21 18 15
9 9 11 12 11 4 10 6 9 10 17 17 12 11 14 16 15 16 23 28 32 29 27 29 31 33 35 39 32 21 29 26 30 35 38 37 37 36 38 36 34 32 31 29 29 26 25 19 18
6 9 13 15 13 11 10 4 6 17 14 12 11 14 13 13 15 18 24 26 26 30 26 27 30 26 29 33 38 32 26 30 31 32 35 35 37 37 38 37 35 34 34 30 30 28 26 25 17
9 11 17 17 8 5 9 10 4 4 13 10 11 12 14 11 11 12 19 23 24 28 25 24 28 28 29 30 29 36 32 27 28 29 31 33 36 38 38 40 38 37 35 34 31 29 27 23 22
9 11 4 2 2 5 14 6 4 16 15 16 13 14 16 15 10 12 13 21 23 26 30 25 24 27 31 30 28 30 36 33 30 34 32 31 31 34 36 42 39 40 38 35 32 30 28 26 22
12 5 4 5 4 8 19 4 6 17 17 13 14 11 9 10 7 9 12 20 25 27 29 30 26 26 29 33 29 27 32 34 31 33 33 33 34 34 37 42 42 40 39 35 33 31 29 26 23
8 4 4 5 9 10 6 6 19 15 17 16 19 15 12 12 8 9 13 18 20 25 26 31 27 27 29 33 33 28 31 34 32 30 36 34 35 37 39 40 41 39 38 37 35 33 31 27 25
5 3 2 3 5 5 4 7 4 23 21 24 21 16 17 15 15 17 24 27 28 32 27 24 23 27 30 32 30 29 33 35 36 32 33 36 34 34 37 42 42 39 39 39 36 33 31 28 26
5 6 7 5 6 4 5 6 7 16 18 23 22 16 13 8 9 11 16 20 25 31 28 23 29 30 26 27 27 27 32 35 36 32 28 34 35 33 39 42 42 42 40 41 38 36 32 31 27
4 7 8 1 5 4 3 17 19 13 21 18 18 14 9 9 9 11 16 21 22 22 28 29 30 32 30 20 23 28 30 31 35 31 28 26 32 34 37 41 41 40 40 42 41 39 33 33 30

GFSSGP_925_spd_027.txt.gz
Wind_Speed
7 5 8 3 4 4 2 6 3 4 3 3 4 2 4 2 4 2 8 23 18 18 17 15 13 13 12 13 13 12 9 9 9 9 9 8 8 7 9 11 11 15 12 11 11 12 12 12 12
7 7 2 2 4 3 3 4 4 5 4 4 4 2 5 1 3 6 11 22 22 17 16 16 14 14 13 13 12 11 9 10 11 12 12 12 12 13 14 12 9 12 13 12 11 10 11 11 13
9 5 2 3 2 3 4 4 7 5 6 3 2 2 1 6 4 21 11 26 20 18 15 17 15 15 14 14 13 11 10 12 13 14 14 14 13 13 13 13 12 11 9 11 10 11 9 10 12
4 5 3 2 5 5 3 3 3 5 1 5 3 5 3 3 19 19 25 23 22 22 20 17 15 14 15 15 13 11 10 12 13 14 14 13 13 13 12 12 12 11 9 9 9 9 8 10 11
3 2 3 2 6 2 5 5 3 1 1 4 5 3 5 3 13 26 28 24 23 24 22 16 14 15 14 13 12 12 12 12 12 12 13 13 12 12 12 11 12 12 11 9 8 8 9 9 10
4 2 3 3 5 6 3 7 4 6 6 6 1 2 4 17 25 25 24 25 24 23 20 17 15 16 14 13 14 14 13 13 12 12 12 12 11 11 12 11 11 11 10 9 9 9 10 11 8
3 3 3 4 6 8 7 6 4 3 5 3 3 2 0 4 18 23 22 22 24 24 22 18 17 17 15 14 14 15 15 14 13 12 12 11 10 10 10 10 9 9 9 8 9 9 9 10 8
3 3 3 3 4 7 6 8 6 7 5 2 2 2 4 9 20 21 19 21 20 24 22 20 20 19 19 18 16 16 15 15 14 13 13 12 10 11 11 9 8 8 8 9 9 10 10 8 8
2 3 2 4 4 6 5 8 8 6 4 5 3 3 8 26 24 23 22 19 22 26 22 22 23 21 21 21 20 18 17 16 15 14 14 11 11 10 9 7 7 8 8 9 10 11 11 11 10
4 3 6 5 2 4 5 5 7 7 10 6 6 5 8 28 28 22 20 23 25 26 27 26 28 26 23 21 22 23 20 19 18 16 15 14 11 10 8 6 9 10 10 10 11 10 8 8 9
4 5 3 6 5 2 4 6 3 6 7 7 7 8 8 8 14 18 21 26 25 29 28 29 28 29 26 26 23 23 25 22 20 18 17 17 15 15 11 8 11 11 11 10 8 7 7 8 6
3 7 6 6 5 4 4 3 6 7 14 9 9 7 1 9 10 16 19 22 25 27 30 29 28 29 29 29 30 25 25 24 22 20 18 22 21 19 15 11 11 11 9 9 7 5 9 10 8
3 5 5 8 10 7 5 6 7 9 12 11 10 10 10 6 12 20 24 25 23 23 31 33 30 26 32 35 34 30 27 23 22 23 21 23 25 21 19 14 13 12 11 10 10 8 8 9 9
4 5 9 8 11 6 8 8 2 9 7 9 6 9 9 9 13 20 18 27 29 27 24 36 36 33 29 38 35 33 28 23 22 23 25 23 26 23 20 18 15 15 14 13 10 10 10 9 8
5 7 8 9 7 6 4 4 6 10 7 5 6 5 3 4 23 25 32 18 22 30 26 33 38 37 36 36 36 33 29 26 28 29 28 27 28 24 23 23 20 17 16 15 13 13 12 11 9
3 1 3 7 4 2 3 9 7 11 5 9 9 8 8 18 24 30 33 34 36 17 28 11 37 41 37 34 36 37 35 32 32 32 28 29 29 25 25 26 23 19 18 18 17 17 15 13 12
4 3 4 9 8 0 3 10 7 7 7 8 7 6 15 15 20 28 33 32 40 43 41 37 27 9 31 40 33 37 38 38 35 32 31 32 32 28 28 28 26 23 22 21 21 19 16 15 13
4 5 4 6 6 9 8 9 12 8 5 11 18 15 14 14 13 24 31 33 34 38 41 41 40 41 14 11 15 28 34 37 37 35 35 33 34 33 30 30 29 27 27 25 23 20 18 16 14
4 3 7 7 7 6 7 10 18 15 16 17 15 13 11 11 16 25 31 34 36 38 39 38 36 37 38 29 21 19 25 38 39 38 38 37 36 35 36 33 32 32 33 30 26 22 21 18 13
6 6 8 7 7 7 8 14 13 17 13 13 12 11 13 14 15 23 29 33 34 34 36 39 39 34 30 35 34 28 21 22 37 42 41 39 37 37 38 38 35 35 34 30 28 26 23 19 18
4 3 4 5 7 5 3 7 5 7 10 13 9 8 12 12 13 14 24 28 32 35 38 38 39 36 34 34 34 37 34 27 18 29 37 38 40 40 41 42 40 38 37 35 32 30 28 23 21
4 3 5 7 6 2 6 4 5 6 8 9 8 9 9 10 10 12 19 25 31 34 37 36 32 33 35 36 37 32 26 23 25 23 32 41 42 42 43 44 43 41 40 38 36 33 31 27 22
7 5 7 8 4 2 4 2 3 8 8 9 11 11 8 7 8 9 16 24 26 28 32 34 31 29 28 30 34 38 30 29 33 35 30 38 43 43 44 45 44 43 42 41 38 36 34 32 28
6 6 12 4 4 2 6 7 1 3 3 7 5 8 8 8 7 10 17 20 21 23 30 28 29 30 25 27 31 34 39 34 30 30 33 33 41 43 43 45 46 45 44 44 41 39 36 35 29
11 6 4 5 2 5 5 4 4 5 9 8 8 8 7 7 4 6 8 17 21 24 31 31 32 30 23 24 25 32 32 34 32 30 28 31 35 38 43 44 46 46 46 45 43 41 39 36 34
4 2 3 4 3 4 13 4 6 9 8 5 4 5 6 7 2 4 5 10 11 19 25 28 33 26 31 29 27 29 29 27 31 30 32 32 31 37 43 48 48 49 48 47 45 42 41 37 35
5 3 4 1 4 1 4 4 2 6 5 6 7 7 6 7 3 4 7 8 6 16 23 25 22 28 31 37 33 30 21 22 31 36 35 32 35 34 41 48 50 49 48 48 47 45 42 40 37
2 3 4 3 3 5 6 4 4 6 7 11 15 14 8 3 4 4 7 14 24 30 31 26 26 26 28 32 34 29 21 27 30 33 33 34 38 35 36 46 49 47 50 49 48 45 43 42 39
4 3 2 2 4 5 4 6 6 3 12 22 27 24 18 9 8 9 16 22 26 22 13 19 24 25 30 34 26 30 35 33 29 28 29 31 35 36 30 41 44 43 45 46 46 45 45 44 41
3 2 2 4 6 3 3 9 8 14 21 22 18 15 9 4 5 6 11 19 20 14 21 26 27 26 26 26 31 32 37 37 26 27 34 36 34 37 23 30 38 40 44 45 44 44 41 45 42

GFSSGP_925_spd_030.txt.gz
Wind_Speed
7 5 4 3 4 3 2 3 2 4 1 2 3 6 4 4 2 3 4 22 12 23 22 18 16 16 15 14 12 11 9 9 9 9 9 8 8 9 10 11 13 12 11 9 10 11 11 13 13
9 6 2 2 4 3 4 3 4 4 5 5 5 5 2 3 2 4 10 23 17 21 22 19 17 16 16 15 14 11 9 10 10 10 9 9 9 11 10 9 12 13 11 9 9 10 11 12 13
7 3 3 4 2 1 3 4 4 3 4 3 4 1 8 4 4 12 7 28 22 20 20 19 17 16 15 16 14 13 11 12 11 11 11 11 12 12 11 12 11 11 12 9 10 9 11 12 12
6 5 4 4 2 4 4 4 2 2 3 2 2 3 1 5 8 13 18 27 26 23 19 19 18 17 17 15 14 13 13 13 13 12 12 12 12 12 10 11 12 11 9 9 8 9 11 11 12
4 3 4 3 4 5 6 5 3 0 1 4 1 2 3 6 5 18 29 30 29 25 22 20 17 16 16 16 14 13 13 14 14 13 12 12 11 11 10 11 11 11 11 10 9 8 9 11 12
4 3 4 2 4 5 6 7 4 3 1 3 2 3 4 4 15 22 32 30 28 27 24 21 18 16 17 16 15 15 14 14 14 13 12 11 11 11 11 10 11 11 11 11 10 10 11 10 11
4 3 3 3 4 6 3 9 4 3 6 3 3 1 3 5 20 27 30 28 27 27 28 25 21 18 17 16 16 15 14 13 13 13 12 11 11 10 10 10 10 10 10 10 10 11 12 12 11
4 4 1 3 2 6 5 7 1 6 5 7 2 2 4 11 22 27 27 26 28 30 28 26 23 20 19 19 18 17 16 15 14 14 13 13 12 11 11 10 10 10 10 10 10 11 12 12 12
3 4 2 4 2 5 4 6 3 4 4 5 5 2 7 10 21 24 23 20 27 28 28 26 24 22 20 20 21 19 18 17 16 14 14 13 12 11 11 10 9 9 10 10 11 11 11 12 12
4 3 7 5 1 4 4 1 5 6 9 5 6 10 11 11 23 23 16 18 26 29 31 29 28 25 24 22 22 22 21 20 18 18 17 15 14 12 10 8 9 9 9 11 11 11 10 11 12
4 5 4 4 4 3 4 5 1 3 7 6 5 8 8 4 9 16 21 23 31 35 34 34 32 29 27 26 25 25 25 23 22 20 19 16 16 14 12 10 10 10 10 11 12 10 9 10 11
1 7 5 5 3 5 5 5 5 6 10 7 8 6 6 7 8 16 20 28 26 30 36 36 35 33 32 30 28 28 28 26 24 22 20 20 20 18 15 11 11 11 11 10 10 9 9 10 10
4 3 4 7 10 6 3 9 4 9 11 10 8 7 10 10 15 23 21 19 19 27 33 39 38 37 36 35 32 31 31 30 26 25 24 22 24 21 19 15 13 12 12 11 11 9 11 11 10
4 4 9 8 7 5 4 4 4 8 5 9 3 19 15 16 20 30 32 28 25 13 13 14 36 40 38 39 38 38 35 33 30 27 27 26 25 23 21 19 17 15 14 12 11 10 11 11 10
5 6 8 5 4 3 2 4 5 8 3 6 15 13 15 17 29 25 24 29 31 31 26 21 8 29 28 40 42 40 40 37 35 32 29 29 27 26 26 23 22 19 16 15 15 14 13 13 12
4 4 4 5 9 5 3 7 7 10 7 11 14 9 14 17 23 26 27 30 34 39 40 41 30 12 8 22 20 20 30 40 39 35 32 30 30 28 28 26 24 21 19 19 19 17 16 15 14
6 2 2 9 5 5 2 7 7 11 5 14 11 10 13 13 20 26 28 31 31 37 41 41 40 37 30 18 7 21 21 32 36 35 34 34 34 32 31 30 26 24 24 23 22 21 19 18 17
3 3 4 4 6 8 7 6 15 16 16 13 9 8 11 12 10 19 25 29 34 33 39 39 37 38 38 33 22 23 6 20 31 34 37 36 37 36 35 32 28 28 27 26 25 24 22 19 17
2 2 5 5 3 5 3 6 10 10 14 12 9 8 8 9 10 18 25 31 32 36 35 34 35 34 35 36 35 30 29 24 12 27 32 35 39 38 37 34 31 32 32 31 28 26 24 22 17
2 3 5 5 5 3 4 6 6 7 6 7 7 7 7 5 7 16 23 28 31 33 33 33 31 30 30 29 30 23 20 26 25 22 18 28 33 39 38 38 36 36 35 34 32 30 27 24 19
3 3 2 5 6 2 1 3 5 4 8 8 7 5 4 5 6 7 17 23 27 31 31 30 30 28 25 26 28 30 26 29 28 30 28 25 27 37 41 41 40 38 38 38 38 36 32 28 25
4 1 2 5 5 3 5 4 5 5 6 6 6 5 4 5 5 6 13 20 21 27 29 26 28 29 21 24 27 27 25 20 23 25 25 27 25 28 40 43 43 43 42 41 42 40 36 32 27
6 3 5 4 5 2 3 2 3 5 5 5 6 6 5 3 2 4 8 15 16 23 28 28 26 31 19 24 23 23 26 25 22 25 28 29 29 29 30 44 47 47 47 45 45 42 39 38 32
5 4 4 4 3 0 5 5 4 1 3 2 4 6 6 4 3 3 8 12 13 18 25 26 26 25 24 25 26 26 27 27 25 27 26 29 33 33 31 32 45 50 50 49 47 46 43 41 40
10 6 4 3 3 6 3 1 1 6 4 2 4 8 8 7 4 4 7 10 12 17 21 21 18 23 26 29 31 29 27 28 18 24 28 29 30 31 34 30 34 43 48 52 50 48 46 44 43
2 3 4 4 3 5 8 4 4 7 6 2 2 6 8 9 5 6 8 10 10 14 16 11 14 20 24 27 30 29 28 24 18 24 28 29 29 30 32 31 33 38 44 49 51 50 47 46 44
3 3 2 0 2 1 3 2 6 5 3 2 6 7 8 7 4 5 9 9 12 15 14 8 15 19 21 24 26 31 27 22 25 30 33 30 29 29 32 36 30 35 39 43 49 47 46 44 46
3 1 3 3 3 5 5 4 5 7 4 5 9 6 6 7 5 7 10 13 14 15 13 13 20 22 21 24 25 30 35 38 35 38 34 28 29 30 33 35 34 29 36 40 44 42 44 42 43
5 3 4 2 4 4 4 6 6 7 3 10 11 12 11 4 6 6 12 23 22 20 13 16 20 25 30 24 24 26 34 37 33 34 39 28 29 33 32 31 32 30 31 38 38 39 40 43 40
2 2 4 4 5 2 3 8 8 5 13 15 14 10 8 6 6 7 16 20 18 17 18 19 24 25 26 22 24 32 31 37 33 36 35 31 30 30 30 31 29 26 25 32 36 37 35 43 37

GFSSGP_925_spd_033.txt.gz
Wind_Speed
9 7 6 4 4 5 3 2 2 3 2 1 1 4 4 3 3 3 1 19 11 23 23 18 17 16 15 14 13 12 10 9 8 8 7 7 7 8 9 10 8 8 7 9 10 11 11 11 13
9 5 3 2 5 4 5 3 3 4 3 6 3 4 1 2 0 3 9 21 13 24 23 20 17 16 15 14 13 11 10 10 9 8 7 7 7 8 7 10 7 7 5 7 9 10 11 12 12
4 3 3 4 3 0 3 3 5 2 3 2 3 1 5 2 1 5 7 23 19 23 23 20 19 17 16 14 12 11 10 10 10 8 8 8 9 9 8 10 9 8 7 7 7 9 10 12 12
2 5 4 4 2 3 2 5 4 2 4 1 1 1 2 2 3 5 10 23 22 21 20 19 17 16 16 14 13 11 10 10 10 9 8 8 8 7 7 9 9 8 6 6 7 8 9 10 10
5 3 4 3 4 5 5 3 3 5 4 4 2 1 3 3 3 9 15 25 24 22 20 18 17 16 16 15 13 11 10 10 9 9 8 8 7 7 6 7 8 8 6 5 4 7 10 9 10
4 3 4 1 4 5 6 6 3 4 4 6 0 2 4 6 8 15 19 24 23 21 21 20 18 16 17 18 15 13 11 10 10 9 8 8 7 6 6 5 6 7 8 7 6 5 7 8 10
5 3 3 2 3 4 3 7 3 4 5 4 5 1 4 7 6 17 21 23 24 22 23 22 20 17 16 16 16 14 13 12 11 10 9 8 7 6 6 5 5 5 6 7 7 7 10 7 9
4 4 2 3 3 5 2 6 1 3 6 9 4 3 4 4 7 18 22 23 24 25 25 25 23 20 19 17 15 15 15 14 13 12 10 9 7 6 6 5 5 5 5 5 5 7 9 9 11
3 4 2 4 4 4 4 6 2 3 3 5 3 1 6 14 14 20 18 20 23 25 27 26 25 23 22 19 17 16 16 17 15 14 12 10 11 9 9 8 6 5 5 5 5 6 10 12 11
4 3 6 4 2 3 4 2 5 6 8 3 5 6 18 5 17 19 16 21 25 27 30 30 28 27 24 22 20 20 18 19 18 17 15 15 13 11 10 8 6 6 6 6 6 6 7 9 10
2 4 3 2 3 2 3 5 3 5 8 6 7 10 14 12 9 10 12 12 11 15 29 33 32 30 28 27 24 24 23 22 22 20 18 17 15 14 13 11 8 8 8 9 9 9 8 8 9
3 5 3 4 2 5 3 4 5 2 8 9 9 10 17 18 17 20 21 21 15 10 21 23 27 32 32 30 28 27 27 26 25 25 23 21 19 18 17 13 10 10 9 9 9 9 8 8 9
2 3 5 7 11 6 3 3 4 7 17 17 19 22 18 16 22 24 23 30 27 22 13 11 28 32 32 32 32 31 31 31 28 27 27 26 24 23 20 17 14 12 13 11 10 10 10 10 9
3 4 8 6 8 2 3 2 2 10 10 16 19 17 16 18 20 27 31 30 33 30 27 16 10 29 33 33 31 27 25 27 30 30 30 28 26 25 23 20 18 16 15 13 12 11 10 10 10
3 6 7 3 6 3 2 3 7 9 15 16 15 14 15 18 25 24 25 27 32 31 35 33 29 4 16 24 28 28 26 27 30 31 30 30 28 27 25 23 22 19 17 15 14 13 13 12 12
4 4 4 3 9 5 3 5 14 17 16 13 11 9 12 12 19 26 28 29 33 35 37 37 37 32 24 2 13 20 25 26 29 31 30 31 32 29 28 26 26 22 20 19 18 16 15 15 15
6 1 1 9 4 4 6 4 13 12 17 12 9 8 9 9 18 26 28 31 32 32 34 35 36 34 32 23 26 9 6 14 22 29 33 31 33 34 33 31 29 25 24 24 21 20 19 19 18
3 3 2 4 6 7 8 5 6 7 14 8 7 7 7 8 8 18 25 28 30 31 32 32 32 32 31 29 25 22 24 27 10 16 27 30 32 34 36 35 31 28 28 27 25 24 22 21 19
2 2 4 5 1 4 7 6 4 4 8 8 7 7 7 7 9 17 21 25 28 29 30 31 31 27 29 30 29 27 23 20 22 23 13 13 24 30 35 38 36 33 33 32 29 26 25 23 19
1 3 5 4 2 3 6 5 4 4 3 4 5 5 5 4 6 12 16 20 25 25 24 26 28 22 24 26 25 20 17 18 20 21 19 19 18 12 23 33 39 40 36 34 32 31 28 25 22
3 4 2 5 4 5 8 3 3 1 3 3 3 2 1 1 4 5 10 12 18 22 23 21 22 17 20 21 23 23 20 20 23 23 23 22 21 22 19 20 31 40 41 40 38 36 34 31 26
3 2 2 4 5 2 3 4 6 4 2 2 3 3 3 2 3 3 6 8 11 15 17 16 17 14 16 18 20 21 21 22 21 21 21 21 21 22 22 20 17 30 37 40 42 41 40 36 28
6 4 5 2 3 3 2 3 3 7 3 1 5 6 5 6 6 6 6 6 6 11 13 13 12 11 12 14 17 20 22 23 21 18 19 20 24 23 22 21 22 21 25 39 43 40 41 43 30
6 3 5 4 3 1 4 4 5 5 6 2 2 6 6 7 7 8 7 7 8 11 12 12 8 10 12 15 17 21 22 24 24 20 17 21 22 23 23 21 22 23 24 29 39 44 45 43 44
10 7 4 4 3 5 2 1 3 6 6 6 2 6 8 8 7 7 8 9 11 14 16 14 10 12 15 17 19 19 20 18 20 18 22 24 25 24 20 20 24 26 27 28 34 39 43 42 44
3 3 4 4 3 5 5 5 2 6 6 4 3 6 7 8 7 7 10 11 15 18 20 17 11 14 16 19 21 20 19 20 21 24 23 24 25 25 21 20 24 27 26 27 30 38 39 38 42
0 2 2 0 1 1 4 4 2 4 4 2 7 7 8 8 7 7 9 14 20 23 23 20 17 17 17 20 23 22 21 23 25 29 26 23 27 28 22 20 22 27 28 27 28 35 37 36 39
2 3 1 3 3 5 5 5 5 11 7 6 7 8 8 7 7 6 12 18 23 24 23 20 20 25 24 27 26 22 24 28 30 27 25 23 28 25 23 26 23 25 29 26 27 32 35 34 37
4 1 4 3 3 4 4 6 5 10 7 4 7 8 6 6 6 7 15 22 28 33 33 31 33 29 26 28 27 27 31 32 32 33 35 35 34 31 28 25 25 22 21 25 26 27 33 31 33
2 2 3 4 3 1 3 8 3 10 9 5 7 4 6 6 7 9 20 26 29 32 35 33 35 31 31 32 27 28 28 31 28 33 33 34 35 30 29 30 29 24 22 24 27 25 27 29 30

GFSSGP_925_spd_036.txt.gz
Wind_Speed
10 8 5 3 4 5 2 3 2 3 4 1 2 1 3 2 3 2 2 16 8 21 21 18 16 15 14 12 10 8 7 6 6 5 4 3 4 6 5 5 5 6 6 8 8 8 9 10 11
9 6 2 2 5 4 5 4 3 4 0 3 1 2 3 1 2 2 7 17 13 22 21 19 16 16 13 11 9 8 7 6 6 5 4 3 3 3 3 5 4 4 4 6 8 7 8 10 10
5 5 3 4 3 2 3 4 6 5 1 1 1 1 3 1 1 4 4 18 16 22 22 20 17 15 13 11 10 8 7 7 6 6 5 3 4 3 2 5 4 4 2 3 6 7 6 8 8
4 6 4 5 2 2 2 5 4 6 4 2 0 2 2 2 1 2 11 18 17 20 19 17 16 15 14 12 10 9 8 7 6 5 4 4 4 2 3 4 3 2 1 3 3 5 5 6 6
5 3 4 3 3 3 3 4 6 4 4 4 2 2 2 3 2 6 15 18 18 19 18 17 15 15 16 14 12 10 9 8 6 5 5 5 4 2 1 3 4 5 1 0 1 3 3 5 6
4 3 5 1 3 5 5 4 3 4 5 7 6 4 3 7 1 8 15 18 16 17 18 17 16 15 14 14 13 12 10 9 8 7 5 5 4 3 2 1 2 2 3 3 4 3 2 4 4
5 3 3 2 2 4 3 8 3 4 6 4 3 3 5 8 7 9 15 17 17 16 17 18 17 15 14 14 15 14 12 11 10 9 7 6 4 4 2 1 1 1 2 2 2 4 2 4 5
4 4 3 2 1 3 5 7 1 3 4 8 4 4 5 9 10 11 14 16 17 17 18 19 19 17 17 16 15 14 13 12 11 10 9 8 6 5 4 2 2 2 1 1 2 3 9 7 8
3 4 0 2 3 3 4 6 3 1 2 4 5 9 14 19 4 10 9 11 12 13 16 18 19 19 18 18 17 15 14 14 14 14 12 10 10 8 7 6 4 3 3 2 2 2 7 8 11
5 3 3 3 2 3 5 3 5 4 7 7 5 18 26 23 17 18 15 9 4 11 15 16 18 18 19 20 19 18 17 18 17 17 16 15 13 11 10 9 7 5 4 4 3 3 6 8 9
2 3 3 1 3 3 4 6 4 6 6 7 5 8 16 23 25 21 20 17 12 9 12 17 19 19 23 24 22 21 21 19 19 19 19 18 16 15 14 13 10 8 8 8 8 8 7 7 8
2 1 2 4 2 5 5 5 8 11 1 3 6 5 15 17 20 20 21 24 22 17 13 7 19 26 26 27 26 24 23 21 20 20 19 19 19 18 16 15 13 10 10 9 9 9 8 8 8
1 3 5 5 7 4 3 9 9 9 5 6 13 18 16 17 19 22 24 31 30 29 24 20 11 22 27 29 29 27 26 25 23 22 22 22 22 21 19 17 16 13 12 11 10 10 9 10 10
2 4 7 4 6 5 3 7 6 7 6 12 14 13 11 16 17 22 29 30 33 33 33 29 23 6 13 23 27 28 26 25 25 25 25 24 25 24 23 21 20 17 15 13 12 11 11 9 10
2 6 5 5 5 3 3 7 9 2 3 12 11 9 11 14 22 23 24 27 29 31 34 36 32 26 11 8 13 21 25 24 24 25 27 27 27 28 26 26 25 22 18 16 15 14 14 12 12
4 5 3 3 8 5 3 2 7 5 7 9 9 8 8 10 17 24 27 27 28 30 31 31 31 31 26 26 11 7 11 16 20 24 26 28 29 30 30 29 30 26 23 21 19 18 17 15 15
7 1 2 6 5 2 7 2 5 6 5 8 7 7 7 7 16 21 22 23 25 27 28 28 29 30 28 26 22 24 20 9 10 17 20 23 26 29 31 33 33 28 26 26 23 22 20 19 18
1 1 2 4 5 9 7 4 2 4 5 6 5 6 6 6 6 14 19 21 22 23 24 25 24 26 25 25 23 21 20 21 21 19 10 12 17 21 27 31 34 32 28 29 27 26 24 22 19
2 1 3 4 1 6 3 5 2 1 3 5 4 4 5 5 7 9 13 18 20 21 23 23 19 21 23 25 25 24 23 21 20 19 17 16 16 10 14 21 29 33 33 32 33 29 26 25 20
1 2 4 3 3 5 4 3 2 1 1 1 2 2 3 3 6 8 9 13 16 18 18 19 16 16 17 16 16 15 17 19 19 19 17 16 16 15 14 10 16 23 31 33 34 32 30 28 24
2 3 2 3 4 5 6 2 5 2 2 1 2 3 4 4 5 7 9 8 11 14 15 15 12 12 12 12 12 12 13 17 18 20 18 17 16 16 16 14 13 12 20 31 32 35 35 26 26
3 2 1 2 1 3 4 5 5 5 4 2 4 5 7 7 6 7 10 10 10 11 12 12 11 11 12 12 14 15 16 16 18 20 19 16 15 17 17 16 13 12 13 20 23 34 35 34 24
6 2 2 1 4 2 2 2 5 6 4 3 4 5 6 7 7 9 13 12 12 12 15 15 15 13 13 13 14 15 16 16 17 17 17 12 18 18 18 16 15 14 13 14 17 23 30 36 31
4 2 5 4 3 1 2 4 4 6 7 4 1 5 6 7 8 13 16 13 13 15 19 21 20 19 15 16 17 18 19 19 17 14 15 18 20 21 21 20 17 15 16 16 17 19 26 32 36
8 6 4 5 4 5 1 0 7 7 8 7 3 4 7 8 8 9 11 12 14 17 22 26 25 24 21 20 21 22 22 21 20 18 17 21 23 22 21 22 20 17 17 19 20 21 24 29 36
4 4 4 4 3 5 4 6 5 7 8 7 3 4 7 8 7 8 11 12 13 19 23 26 28 29 27 25 25 24 24 27 24 20 21 23 24 24 22 24 21 19 19 21 21 22 25 28 34
1 4 3 2 1 1 3 6 3 3 6 5 3 5 7 7 7 8 10 12 17 22 26 29 32 34 30 32 35 31 27 27 25 26 27 23 22 22 24 25 20 20 20 20 21 21 23 26 32
3 4 2 3 3 5 5 6 5 10 11 7 5 6 7 6 7 7 12 18 25 31 34 34 36 38 37 36 37 35 33 33 30 31 30 26 25 22 22 24 22 23 21 21 20 19 23 24 28
3 1 4 3 4 4 3 6 5 14 14 8 7 7 7 7 7 7 16 25 31 34 36 38 38 36 39 38 35 39 44 39 36 31 31 26 27 25 24 24 21 21 22 24 21 21 21 23 26
1 2 4 4 4 1 3 8 4 8 10 8 6 6 6 7 8 9 19 24 27 30 33 33 35 36 38 42 36 37 36 40 40 33 30 28 28 27 25 21 24 24 24 22 21 23 24 24 25

GFSSGP_925_spd_039.txt.gz
Wind_Speed
10 7 2 2 3 4 2 3 2 4 2 1 0 0 3 3 3 4 1 15 7 19 19 16 14 13 11 9 9 7 6 5 4 4 3 2 4 7 6 5 5 4 5 7 7 7 8 9 9
8 4 2 2 4 3 2 3 4 3 3 0 1 1 3 3 1 2 5 14 10 18 16 14 14 13 11 9 8 6 5 4 3 2 2 1 2 2 3 4 4 5 4 5 6 5 7 7 8
5 5 2 4 3 2 1 2 4 3 3 3 2 2 1 2 2 1 1 13 14 18 16 15 13 13 11 10 8 6 6 4 4 3 3 1 2 2 2 4 4 4 4 4 5 5 5 5 5
4 4 3 4 3 1 1 6 5 6 4 8 3 2 1 6 5 3 11 12 15 16 15 15 14 14 12 11 10 8 6 5 5 3 1 3 3 2 5 4 2 1 1 3 2 3 3 3 3
5 3 4 3 1 1 2 4 5 6 5 6 5 5 3 5 8 3 15 13 15 16 16 14 13 12 11 11 9 8 7 6 5 3 3 3 2 1 3 2 1 1 2 1 2 2 2 3 3
3 2 3 1 2 2 2 5 2 5 5 4 4 4 3 10 14 1 13 13 13 14 16 13 12 11 11 10 10 9 8 6 5 5 4 4 3 2 1 2 4 3 1 2 3 3 2 2 1
4 3 2 2 2 3 4 8 4 5 5 7 3 4 2 12 25 1 8 8 9 9 11 10 9 10 10 10 11 11 11 9 8 8 6 6 5 4 2 2 2 2 3 1 3 8 1 1 4
3 3 2 0 2 1 5 6 2 5 4 7 6 5 5 17 16 5 6 5 5 6 7 8 8 9 9 10 11 10 11 11 10 9 8 8 7 6 5 4 3 3 2 1 3 11 5 6 5
2 3 1 1 2 1 3 6 4 3 5 6 7 8 13 18 6 11 10 8 5 2 5 8 10 11 11 12 11 11 10 10 9 9 9 8 8 8 7 6 5 3 3 3 3 4 10 11 10
4 3 2 2 2 1 3 4 6 4 9 7 6 18 19 16 18 20 17 12 12 9 5 8 12 13 14 14 13 12 12 11 11 11 10 10 11 10 9 8 7 5 4 5 5 6 8 10 11
1 2 2 1 2 2 2 4 7 2 7 7 9 14 17 20 23 21 18 15 11 10 6 7 11 15 17 19 17 14 14 14 13 13 13 15 15 13 12 12 10 9 8 7 7 7 7 7 8
2 2 0 3 3 4 2 5 7 11 4 4 6 7 15 20 21 20 20 18 17 16 15 12 10 18 20 22 21 20 18 18 17 18 18 17 17 17 16 15 14 13 11 10 10 10 9 9 9
2 2 3 5 5 10 15 13 9 9 7 7 10 15 15 18 19 19 18 20 20 22 21 21 17 10 14 17 21 22 19 18 17 20 21 20 20 20 19 18 17 16 14 13 11 11 10 10 10
0 2 5 3 4 5 11 4 4 7 6 9 11 14 14 17 16 19 21 21 23 22 25 22 26 20 8 6 11 15 20 22 22 22 23 24 24 24 23 21 20 19 18 15 14 13 12 12 11
1 3 2 6 6 5 5 7 6 5 5 11 11 10 11 14 17 18 16 19 20 22 25 27 25 27 27 17 6 4 8 11 17 21 22 23 26 27 28 26 24 23 20 19 18 17 16 15 14
3 4 1 4 7 1 7 1 3 3 4 9 8 8 9 12 13 14 15 17 22 23 25 26 28 28 26 24 24 20 14 8 10 14 17 19 20 24 28 28 29 24 24 22 22 20 19 18 17
6 0 1 2 6 2 7 3 2 2 4 7 5 5 7 8 12 13 14 16 19 21 21 24 27 28 26 23 20 18 18 19 19 18 13 12 16 19 23 26 28 24 25 26 26 23 22 19 20
1 0 2 2 4 7 5 5 5 4 6 5 3 4 4 5 6 8 12 14 16 18 18 17 20 21 23 24 22 20 18 17 17 17 16 16 16 12 15 21 24 24 23 26 27 26 25 23 17
4 2 2 2 2 3 2 6 8 6 4 5 3 2 2 3 4 4 7 10 13 15 15 15 15 17 18 19 19 18 19 20 19 18 16 14 14 15 14 13 16 20 22 23 27 26 24 23 22
2 1 3 1 3 1 3 5 7 8 4 4 4 2 1 2 4 6 6 7 9 12 14 14 13 14 14 14 14 13 15 17 19 20 18 16 15 14 14 14 13 12 18 22 23 25 17 19 22
1 2 2 1 2 3 4 4 8 6 4 5 5 4 4 4 7 8 8 8 8 10 13 14 15 14 14 13 13 13 14 17 15 19 20 19 15 14 15 15 15 14 13 14 19 23 26 22 17
1 2 1 2 1 2 1 5 5 8 8 7 6 5 6 6 8 11 11 11 10 11 12 14 16 18 17 16 16 14 12 10 17 19 20 19 14 15 16 17 16 16 15 13 13 15 19 25 24
2 2 1 1 2 1 2 3 1 8 10 10 7 3 4 6 7 9 12 14 15 13 13 16 20 22 21 22 21 19 19 20 22 22 19 18 18 20 20 20 20 18 17 15 13 12 14 17 21
1 3 4 3 2 1 2 5 4 7 10 10 5 3 3 5 9 12 14 12 13 14 15 19 22 23 25 26 26 26 24 24 22 24 21 20 20 22 25 25 23 22 20 17 16 15 14 16 18
6 3 2 1 0 2 3 4 8 6 6 12 10 3 4 6 8 9 13 12 12 15 18 22 25 28 30 31 33 32 31 28 28 27 23 22 20 22 27 26 26 23 23 22 18 17 17 15 17
2 1 3 4 3 3 3 5 2 3 9 9 7 2 4 6 5 7 10 10 12 17 23 29 32 30 32 32 33 30 32 35 33 32 32 25 23 25 28 26 26 27 25 24 20 19 18 17 17
2 2 1 4 1 1 2 5 4 5 7 7 7 3 5 7 7 7 10 10 14 21 26 26 28 29 29 29 29 28 28 30 29 30 29 31 30 30 26 24 25 27 25 23 21 20 19 15 15
1 4 1 1 1 3 3 6 6 10 16 13 11 8 6 7 8 8 10 14 19 21 25 26 27 28 31 32 31 31 28 30 30 29 27 29 32 31 27 25 25 27 24 23 23 23 21 18 18
2 1 4 3 1 3 3 6 5 11 16 18 14 8 7 8 9 8 15 20 21 24 26 27 29 31 33 34 34 33 35 33 30 31 30 29 32 28 26 25 23 23 23 21 21 23 22 21 20
0 2 3 3 4 1 1 8 2 6 8 10 13 8 7 9 8 13 19 19 21 24 26 27 30 32 32 33 33 34 35 30 34 36 32 32 30 27 26 23 22 21 20 22 23 25 24 21 19

GFSSGP_925_spd_045.txt.gz
Wind_Speed
12 8 5 5 5 3 11 4 12 12 10 10 10 9 17 19 15 5 3 5 7 11 11 10 9 7 5 2 6 4 5 5 5 6 7 5 6 7 7 8 9 9 10 9 10 8 7 7 7
8 6 5 4 4 3 7 11 9 9 8 3 7 7 15 18 14 10 7 6 8 9 9 9 10 7 7 5 3 3 2 2 3 4 4 4 3 2 6 7 6 7 7 8 7 6 6 6 5
8 6 4 3 5 10 9 8 7 6 8 10 4 12 11 10 14 14 11 8 8 8 8 9 10 9 8 5 4 2 1 2 1 1 4 3 1 1 4 2 3 5 6 5 6 5 5 4 3
5 5 5 1 11 10 10 7 6 3 6 8 8 13 12 16 7 7 8 9 8 7 7 6 8 6 7 3 2 1 3 3 4 5 4 1 1 1 4 2 3 3 2 2 2 4 4 5 2
5 4 3 5 9 10 8 6 7 6 3 8 11 13 13 14 9 7 7 7 8 8 7 5 5 5 3 2 2 2 3 4 4 3 3 1 2 3 4 4 4 6 5 4 4 2 2 2 3
4 3 3 5 9 7 7 5 6 6 5 11 5 5 9 13 12 5 4 6 7 8 6 5 3 3 2 3 3 3 4 4 5 4 3 2 2 4 3 4 5 4 4 6 6 4 2 1 0
5 5 4 3 7 7 4 4 7 5 11 10 11 2 13 21 14 4 4 6 6 6 5 4 5 2 2 3 3 3 4 5 7 4 5 4 4 4 5 4 4 4 5 6 3 4 3 2 2
4 4 4 2 3 4 2 2 4 9 9 6 13 6 5 17 12 3 4 4 5 4 2 0 2 4 2 4 7 5 5 6 7 7 7 7 7 6 7 7 6 6 4 5 4 6 6 5 4
2 4 2 4 2 5 1 3 6 5 11 13 7 9 8 9 7 3 4 4 5 4 3 2 4 6 4 6 8 7 5 5 8 8 7 7 6 6 5 7 12 12 7 6 5 9 10 9 8
3 4 6 3 3 3 1 5 4 4 4 7 10 11 10 9 9 9 7 6 6 7 7 9 11 13 12 8 4 5 3 8 7 7 6 6 6 7 7 8 13 12 10 9 7 7 14 13 10
3 4 6 4 3 3 2 3 4 3 6 6 7 9 10 10 11 10 9 8 9 9 10 12 11 10 11 10 9 9 8 10 12 12 9 7 7 8 8 8 7 7 10 7 10 7 5 7 10
3 6 2 2 2 2 2 5 7 9 6 5 5 6 8 10 11 11 11 12 11 12 14 15 15 12 10 6 7 11 13 15 15 13 13 13 10 9 9 10 9 9 10 10 10 10 10 10 10
1 5 4 5 5 6 6 4 7 8 6 5 5 5 7 8 10 11 11 12 13 14 15 16 17 17 15 11 9 10 10 10 11 13 13 11 13 14 17 12 11 11 11 12 13 12 12 12 12
3 3 6 6 6 8 7 7 3 5 6 5 5 6 7 7 8 9 10 11 12 13 15 15 18 17 16 16 14 13 12 11 13 12 13 13 15 17 18 15 15 14 13 14 14 14 14 14 14
3 6 6 7 7 3 7 7 6 8 7 6 6 6 6 6 7 9 9 10 11 13 14 15 16 16 16 15 14 13 13 12 12 12 12 14 15 16 17 18 20 19 17 15 16 16 16 16 15
7 6 10 8 8 5 4 4 9 9 9 8 6 7 5 5 7 8 8 9 9 10 12 13 14 16 16 16 14 13 13 12 12 12 11 12 13 12 13 14 16 18 17 21 21 17 17 17 17
8 10 8 8 6 3 12 4 10 10 10 9 9 8 7 6 6 6 6 7 7 8 9 11 12 15 15 14 14 14 14 14 13 13 13 15 14 14 14 13 13 13 16 18 19 19 19 19 18
10 6 6 8 8 9 12 14 9 11 11 11 10 9 8 8 6 5 4 4 5 6 7 9 12 14 14 14 14 14 15 15 15 16 15 16 16 15 16 16 15 14 14 13 17 23 24 22 21
8 9 11 6 4 6 15 12 10 11 12 12 11 11 10 9 8 6 3 1 1 3 6 9 11 14 16 16 17 18 18 18 18 17 16 17 18 17 18 17 16 16 16 15 15 16 19 27 21
7 10 10 1 2 6 11 14 13 15 14 13 12 12 11 9 9 9 6 4 3 4 5 9 11 13 14 14 15 16 19 20 21 21 20 20 20 19 19 18 18 18 18 17 16 15 16 19 23
8 9 9 8 3 13 12 17 15 13 13 13 13 12 11 10 9 8 8 5 5 7 7 9 10 12 14 14 16 18 21 22 22 21 22 22 21 23 23 22 21 20 20 19 18 17 17 16 17
10 4 3 5 7 6 1 6 11 14 14 14 14 13 12 11 9 7 7 7 8 10 8 10 11 14 15 18 20 22 23 23 23 25 25 27 25 25 24 25 24 24 22 22 21 21 20 17 18
3 1 5 8 11 11 13 5 7 12 12 16 16 16 14 12 10 8 6 6 8 9 8 10 12 15 18 21 23 23 24 24 26 26 28 28 29 28 28 27 26 25 24 23 23 23 23 22 22
2 6 8 6 7 6 9 7 6 7 10 11 16 16 13 11 9 9 8 7 7 5 7 10 14 17 21 23 25 25 26 29 29 29 30 28 27 27 28 29 28 26 26 25 23 24 23 24 24
6 7 4 6 5 2 4 5 9 5 4 3 12 14 12 11 10 9 8 6 6 7 9 13 16 21 24 25 26 27 27 29 30 30 27 29 27 26 27 28 28 28 27 25 25 27 26 25 26
4 6 6 6 6 6 4 6 3 5 4 3 7 11 11 12 10 8 8 7 9 10 13 17 20 25 26 27 28 28 28 28 29 29 31 31 30 29 29 31 31 31 31 31 29 29 29 26 27
6 5 4 6 8 5 5 6 8 3 5 7 10 11 12 11 10 9 10 10 11 13 17 20 24 26 27 28 28 29 30 30 30 33 32 31 32 31 33 32 30 31 31 31 33 32 29 28 28
6 4 4 4 5 8 5 7 8 7 7 8 11 13 12 11 9 8 10 11 13 16 19 22 24 27 28 29 28 29 30 31 32 32 33 33 34 33 34 33 30 33 32 32 35 36 32 30 30
4 4 5 4 5 7 10 4 7 4 2 9 10 11 12 13 11 7 10 13 16 18 21 23 25 27 28 28 28 29 31 32 32 33 33 34 35 34 35 34 35 35 34 31 34 36 31 30 29
4 6 6 5 5 6 4 12 4 4 3 2 5 5 6 9 8 8 13 15 18 20 23 25 26 27 27 28 29 30 30 31 31 32 33 33 35 36 36 35 34 34 32 31 33 34 31 29 28

GFSSGP_925_spd_048.txt.gz
Wind_Speed
14 11 7 3 2 1 6 7 10 10 8 6 5 18 19 14 9 5 6 7 11 14 10 10 11 8 8 7 6 6 6 8 7 7 7 6 7 8 10 9 10 10 11 11 10 10 10 9 8
15 9 3 3 5 5 5 11 8 7 3 6 9 20 19 18 13 9 8 9 11 12 10 7 10 8 8 8 5 4 6 5 6 6 7 6 5 4 8 8 7 8 8 8 8 9 8 7 6
14 8 2 4 4 5 7 9 4 8 8 8 6 15 6 9 13 7 9 11 10 11 16 9 10 8 6 3 3 3 3 2 3 4 7 6 5 4 4 5 6 6 7 5 6 5 6 5 4
6 3 4 1 9 8 9 6 9 7 8 9 10 12 7 15 4 13 10 10 12 11 8 6 8 8 6 3 1 1 2 4 3 4 5 5 5 3 2 3 2 3 4 3 3 3 4 4 3
5 4 4 7 9 8 7 5 5 6 4 10 8 8 7 10 9 10 7 10 10 13 7 8 6 5 4 2 1 2 2 5 6 4 4 3 3 4 1 3 3 4 3 3 3 2 3 1 2
3 3 4 7 9 7 6 7 6 8 12 11 9 8 6 9 10 5 5 10 12 9 11 3 7 5 4 1 0 0 1 3 7 5 4 3 2 4 4 3 4 3 3 4 4 3 1 1 1
3 4 3 8 7 7 5 7 8 8 11 10 9 7 8 12 8 3 4 10 11 9 4 10 6 7 6 4 1 1 1 4 7 5 5 5 5 5 7 6 5 5 5 4 3 4 3 2 2
3 2 2 6 6 5 2 3 6 9 9 5 10 6 4 10 7 3 4 6 10 7 2 5 8 8 6 3 2 2 2 3 6 6 5 6 7 5 8 8 5 7 9 7 5 6 6 5 3
1 3 4 4 3 5 2 3 7 9 10 13 6 8 4 6 6 1 9 11 13 15 18 19 17 12 3 4 2 3 2 4 6 9 6 6 4 4 5 7 7 12 12 9 7 7 10 10 8
1 3 4 5 6 5 6 5 7 0 9 9 8 9 10 12 13 15 17 16 16 16 16 16 16 16 13 8 7 4 7 5 7 11 11 11 10 6 4 10 13 15 13 11 9 8 10 13 12
4 3 5 4 7 6 3 6 5 3 5 5 5 5 7 12 13 13 13 15 13 12 12 14 15 13 16 10 7 5 6 9 9 11 9 6 5 6 9 8 10 9 10 10 10 11 9 6 7
4 5 3 3 2 3 3 7 4 7 6 7 3 3 7 8 10 12 12 13 14 14 14 15 16 17 17 17 16 14 11 11 11 14 15 15 11 11 9 8 9 7 10 11 11 12 12 12 14
4 6 4 3 2 5 3 4 6 6 7 6 5 4 6 7 11 10 11 12 13 14 14 17 18 19 18 19 16 17 18 17 17 14 13 13 15 15 18 16 14 10 9 10 12 14 14 14 16
3 4 7 5 5 4 6 4 5 6 7 7 7 6 6 6 8 9 10 12 14 14 15 15 18 18 18 18 17 17 17 17 18 19 18 19 18 16 16 18 19 19 15 12 12 13 17 17 17
3 6 5 6 6 5 3 6 8 12 9 8 8 7 7 7 7 9 8 10 13 13 14 15 16 18 19 18 17 16 16 15 15 15 14 15 17 16 18 19 19 18 19 23 24 19 15 15 17
4 8 6 11 10 6 4 5 8 9 8 8 9 9 6 5 10 9 7 8 9 11 12 13 15 16 16 17 16 16 16 16 15 16 15 16 17 15 16 17 17 19 20 19 20 24 27 24 20
7 6 10 5 9 7 7 3 7 9 8 8 7 9 8 7 9 8 7 7 7 8 9 11 12 15 14 14 15 16 17 17 16 16 17 17 17 17 17 17 17 17 18 18 17 17 20 21 21
6 4 8 1 8 5 7 10 11 10 9 8 8 8 8 8 8 10 5 5 4 5 6 8 10 12 14 13 14 15 16 16 17 18 18 18 17 17 18 17 18 17 18 17 17 14 16 20 22
7 8 8 8 6 2 7 11 8 13 8 7 7 7 8 9 14 10 6 3 2 1 4 7 10 11 14 14 16 16 18 18 19 22 21 20 20 18 19 20 20 19 18 19 18 19 18 16 20
7 9 9 2 7 2 8 12 9 15 11 9 9 8 9 7 9 12 11 6 4 3 2 4 9 11 13 13 12 14 16 19 22 22 21 19 21 23 22 22 23 21 21 20 18 18 20 17 14
7 7 7 7 2 8 7 11 14 9 10 8 7 7 7 9 8 9 14 14 9 7 5 3 8 10 12 13 15 17 20 22 23 22 22 24 24 25 26 24 24 24 24 23 19 19 21 22 20
7 8 6 6 5 3 3 5 4 11 9 9 9 8 8 8 6 1 2 1 2 4 7 3 7 11 14 15 18 22 22 23 24 25 27 28 25 25 27 27 26 25 26 25 22 20 19 18 18
4 4 4 5 7 8 8 3 4 11 7 10 10 9 8 7 7 7 10 4 2 6 7 7 10 13 15 18 21 21 24 24 27 26 28 30 30 27 27 29 31 30 28 28 26 23 22 21 25
3 5 8 4 4 4 10 7 4 6 11 9 10 10 10 9 8 7 4 2 4 3 2 6 11 16 16 20 22 22 25 27 27 28 29 28 27 26 26 25 28 29 28 30 28 29 27 23 22
4 4 2 3 3 3 6 4 4 7 6 3 12 11 10 9 7 6 6 8 5 3 7 10 14 16 18 22 23 24 25 26 27 27 27 27 28 27 26 27 28 28 31 31 29 26 26 26 28
6 2 3 4 2 2 4 5 4 7 7 4 4 10 9 8 7 7 8 5 3 8 10 13 15 17 21 21 24 23 24 25 27 27 29 30 29 29 29 33 32 33 33 35 34 34 31 27 28
3 3 3 4 8 4 5 3 4 4 5 4 5 8 8 7 6 6 7 7 8 11 13 13 17 21 21 22 23 23 23 25 28 29 29 30 29 29 29 31 34 33 33 35 34 32 31 30 30
3 5 2 2 3 4 4 6 3 4 5 4 6 6 6 5 6 4 4 8 9 10 14 17 17 20 22 24 23 23 25 26 27 29 30 31 32 31 32 33 33 33 32 31 29 31 33 32 33
3 3 4 1 2 3 3 2 2 7 3 9 8 9 9 9 9 8 10 5 11 14 15 16 19 22 24 24 24 25 26 27 29 28 28 30 32 33 32 32 33 32 33 32 31 31 34 28 33
3 4 3 2 4 3 2 5 8 8 7 7 8 7 7 4 1 6 4 6 13 12 15 18 21 23 23 24 25 26 28 27 27 29 31 28 28 29 31 32 32 34 35 34 33 33 31 30 31

GFSSGP_925_spd_051.txt.gz
Wind_Speed
15 7 8 1 5 5 4 3 3 7 7 13 15 14 12 4 6 6 6 15 15 12 12 13 11 7 9 10 8 9 8 8 10 9 9 8 9 11 9 10 10 11 11 11 12 11 10 9 8
13 10 2 2 5 4 3 2 7 3 5 17 15 14 15 9 6 6 7 15 10 11 12 11 9 9 10 7 5 5 7 6 7 8 9 8 7 7 9 9 9 10 9 9 9 9 8 7 8
13 5 3 4 2 2 2 3 4 4 10 6 7 7 5 4 6 5 13 14 15 15 12 10 10 10 7 4 3 5 5 4 4 6 7 7 6 5 7 7 7 7 7 6 7 7 6 5 5
4 4 4 5 5 2 5 3 2 3 8 10 8 8 4 8 1 10 16 19 17 18 11 8 9 10 8 5 2 2 4 5 5 5 5 5 6 4 3 3 3 3 3 3 3 4 4 4 3
2 3 4 4 5 5 5 5 9 11 5 11 4 3 2 12 8 8 16 18 18 13 7 6 7 7 7 5 3 1 4 1 4 5 4 4 4 4 2 2 2 2 1 1 1 0 2 1 2
4 3 4 2 4 4 5 5 8 5 5 5 6 4 1 10 10 3 16 20 15 7 3 5 9 9 8 7 5 4 5 1 5 5 4 3 3 4 5 4 4 4 2 2 2 1 0 1 2
3 3 1 6 6 4 3 4 5 5 7 6 4 4 0 9 6 6 16 16 9 6 3 7 7 5 4 3 7 8 4 2 4 7 5 6 5 4 6 6 5 6 7 6 4 2 2 3 2
3 3 4 3 3 2 2 3 6 6 3 3 3 3 0 5 11 3 9 18 20 24 25 8 4 0 1 1 1 3 7 5 7 9 8 8 7 3 5 6 5 7 9 8 6 3 5 5 4
3 5 3 3 2 4 4 3 5 4 8 5 3 3 1 7 18 9 20 22 19 16 23 20 15 7 1 4 5 2 4 6 8 9 10 10 10 8 6 5 6 10 11 10 9 6 6 7 7
4 4 1 2 2 3 3 6 2 4 4 5 4 6 10 16 20 23 20 21 24 24 22 23 23 18 14 16 11 7 7 4 3 5 7 5 9 9 11 7 9 8 7 8 10 7 8 8 10
2 4 4 3 4 5 3 3 3 6 2 2 6 3 6 14 17 19 21 22 21 20 21 22 22 23 20 18 14 11 8 8 6 7 6 7 5 4 4 5 10 12 8 7 9 8 8 8 7
5 4 4 3 2 2 1 6 4 3 2 7 5 4 7 9 10 15 19 20 19 19 20 22 22 24 24 22 22 22 22 22 21 20 17 14 11 9 9 10 9 10 10 11 9 10 11 11 11
4 4 5 4 4 4 6 3 6 5 5 6 3 9 8 8 10 13 18 19 18 18 19 21 21 21 21 21 20 21 21 21 20 20 21 21 21 19 17 16 14 13 11 7 8 8 10 13 16
3 6 7 4 4 2 4 3 2 6 7 6 6 7 7 8 8 11 16 18 18 17 17 18 19 20 19 20 20 19 18 17 17 17 18 18 18 19 19 18 18 17 17 16 17 17 14 13 13
6 4 3 6 6 5 6 1 8 8 9 9 8 7 7 7 12 10 12 15 17 14 13 16 15 14 17 17 17 18 17 17 16 16 16 18 17 17 18 18 18 17 18 18 19 18 19 22 21
3 4 3 6 9 3 6 7 4 10 10 9 9 8 8 6 11 10 10 13 14 15 15 13 15 14 13 15 13 14 14 16 17 16 17 17 18 17 18 18 19 19 18 18 17 19 20 20 22
2 4 6 2 8 5 5 5 5 9 10 10 9 9 8 7 8 11 9 9 10 10 11 11 11 13 11 11 13 13 15 13 16 18 22 18 18 19 19 18 19 20 19 19 19 17 15 20 23
3 3 2 5 7 6 7 10 7 12 10 10 9 9 9 9 9 14 11 7 6 7 9 10 8 8 10 11 14 13 17 16 16 21 25 22 21 21 21 21 22 19 19 20 20 21 18 18 18
2 1 4 2 3 5 8 8 10 12 8 9 9 10 9 10 14 18 12 8 7 5 6 6 7 7 9 12 15 15 18 17 21 24 24 21 21 21 26 25 26 25 23 22 21 19 19 19 17
3 3 6 3 2 1 6 13 11 14 15 13 10 9 10 7 8 14 16 12 9 6 4 5 1 5 7 12 11 12 15 21 25 23 22 19 24 25 23 26 27 27 24 24 22 22 18 18 18
3 1 3 2 2 4 3 8 5 2 5 7 6 7 7 13 11 9 18 19 15 10 8 6 2 2 6 11 13 17 22 24 24 24 24 26 24 24 25 28 30 29 27 25 24 24 22 21 18
2 1 2 4 5 3 3 5 6 4 6 8 8 7 8 9 7 8 12 15 16 8 4 4 1 4 8 12 16 20 20 22 24 27 27 28 27 27 26 26 26 28 29 30 29 27 26 21 18
3 1 1 1 1 4 3 1 7 7 4 8 9 9 8 9 10 9 15 15 12 4 2 3 5 9 11 16 17 18 20 23 25 25 25 25 24 24 24 25 29 31 27 32 32 27 28 28 25
3 2 3 2 2 2 6 7 5 4 7 5 6 9 9 8 8 8 10 11 7 4 5 4 6 11 15 15 16 21 21 22 23 23 23 25 26 28 29 29 29 31 31 30 29 31 30 28 31
3 5 3 2 2 5 3 5 7 2 3 5 13 11 10 9 8 8 9 10 8 8 5 6 9 13 13 16 20 19 20 19 20 23 26 28 30 30 29 28 28 30 31 33 33 34 35 35 30
4 6 4 4 3 4 5 5 3 2 5 7 7 9 8 7 7 8 10 10 11 8 7 9 12 11 15 17 17 17 19 21 23 25 26 27 28 29 29 27 28 31 30 30 32 36 35 33 29
1 2 4 1 2 1 4 1 3 4 4 6 8 8 7 8 7 8 10 11 10 9 10 10 10 13 13 15 18 20 21 22 24 25 27 30 31 31 28 32 33 32 29 29 30 32 33 36 36
2 2 2 2 2 4 5 1 2 4 4 4 6 7 7 6 7 7 11 12 10 8 6 9 8 11 15 18 19 19 22 23 25 29 30 29 31 35 32 27 26 27 28 28 27 28 29 31 34
1 2 2 2 5 4 1 5 5 1 1 4 2 5 8 9 9 8 13 10 5 4 6 6 11 15 17 18 21 22 25 28 29 28 29 31 26 24 30 30 32 33 33 31 30 30 31 32 32
1 3 4 4 4 1 4 5 2 8 7 7 5 4 3 5 2 7 4 4 3 4 7 12 15 16 18 21 24 27 28 23 25 32 29 26 29 31 32 34 31 32 33 30 28 30 31 31 32

GFSSGP_925_spd_054.txt.gz
Wind_Speed
13 12 6 2 5 5 2 2 2 7 5 7 8 11 7 5 3 4 5 14 12 16 15 13 9 9 9 6 9 8 8 9 9 9 8 8 10 9 9 10 10 11 10 11 10 9 8 8 8
14 8 2 2 5 4 3 4 8 7 9 8 10 5 6 5 3 8 11 16 13 15 14 13 10 9 10 7 4 7 6 7 6 8 8 7 7 8 8 7 9 9 8 8 8 7 6 5 7
9 4 3 4 3 3 2 3 7 4 3 1 4 4 3 2 2 8 9 18 15 16 12 12 13 14 10 7 5 6 4 3 4 6 7 6 6 7 6 6 6 6 5 5 5 5 4 5 5
3 6 4 4 5 1 3 2 1 1 7 8 4 6 3 3 4 9 20 20 16 12 10 10 12 12 11 9 6 5 3 4 5 5 5 5 6 4 3 3 2 2 2 2 2 3 2 2 3
2 3 5 3 2 3 4 5 6 6 4 6 1 2 2 7 13 17 23 20 16 11 7 9 8 7 6 5 4 5 4 4 5 4 4 3 4 4 2 1 1 1 0 1 1 2 2 1 1
3 3 5 3 2 1 3 2 5 4 5 4 6 4 2 10 10 9 22 18 12 12 10 8 6 5 4 3 4 6 4 1 4 4 3 3 3 4 4 3 3 3 2 2 2 3 4 3 4
5 4 3 6 4 2 1 5 6 5 2 4 2 3 3 7 13 7 12 16 20 9 7 5 5 5 4 4 5 5 3 4 6 8 7 6 4 3 4 4 4 5 6 5 3 2 3 5 4
4 4 3 1 3 3 2 3 6 4 1 2 1 4 1 5 11 29 28 26 25 24 13 5 5 3 3 2 2 3 4 4 7 8 8 7 7 4 3 3 4 6 8 7 6 4 4 6 6
3 5 2 3 5 3 1 3 3 2 6 3 2 4 2 8 26 24 26 26 27 24 20 14 9 3 3 3 5 3 2 2 3 5 7 5 7 8 7 8 7 7 8 8 8 7 5 6 8
4 4 7 2 2 4 2 4 7 5 3 4 3 5 12 18 22 22 20 24 26 27 24 20 18 17 15 13 8 7 6 5 4 5 6 7 7 8 3 6 8 8 10 8 7 8 7 7 8
2 5 5 3 4 4 5 3 2 9 2 5 7 4 7 16 19 20 20 23 25 28 27 24 21 19 19 19 18 18 17 14 14 14 13 9 8 7 7 6 6 7 10 10 9 9 10 9 9
4 1 3 4 2 3 5 6 4 1 2 8 6 6 6 9 11 17 19 22 25 26 25 25 24 23 22 21 20 19 20 18 19 19 19 17 16 13 13 12 11 8 8 6 7 9 10 12 14
3 4 4 4 5 5 6 2 5 4 4 6 9 9 8 9 13 15 19 20 22 24 23 23 21 21 20 21 20 19 20 19 18 19 19 18 17 17 17 16 15 14 12 11 11 12 12 10 10
3 3 3 3 3 2 4 2 1 6 5 6 8 7 6 9 11 14 19 18 20 19 18 17 19 18 17 18 17 18 17 16 16 17 18 18 18 19 18 18 17 17 16 14 14 15 15 15 16
6 4 4 2 4 3 5 3 7 6 8 8 8 7 7 8 13 13 15 17 17 17 15 14 13 12 12 13 13 13 13 12 14 17 19 17 18 18 19 20 20 21 20 17 17 16 16 17 17
4 4 0 4 7 2 4 9 3 9 11 10 9 8 8 6 12 14 15 16 16 16 15 12 9 9 9 10 11 11 12 12 14 18 22 19 18 18 18 20 21 22 20 18 19 18 19 19 19
4 3 5 7 9 5 6 7 3 8 10 10 9 9 8 7 8 15 16 17 16 15 14 11 7 7 8 10 11 10 13 15 17 20 22 22 18 19 19 23 23 22 22 22 21 20 20 19 18
5 3 4 4 6 6 5 12 2 8 7 11 9 8 8 9 9 17 16 15 13 12 12 9 6 5 6 9 10 10 13 14 18 21 21 21 19 21 23 25 23 24 24 26 23 22 20 18 20
3 2 4 4 2 5 6 7 8 11 7 9 9 10 8 10 14 19 18 14 12 12 12 10 5 1 3 5 6 8 12 17 22 21 21 20 20 23 22 24 24 25 28 27 27 26 24 24 19
2 3 4 3 2 4 5 11 10 9 15 18 14 12 10 7 7 15 19 17 15 13 12 10 6 2 1 3 4 8 14 20 22 21 22 22 21 22 22 24 25 26 26 26 27 27 27 26 24
0 3 2 4 4 4 4 8 5 1 1 6 6 10 8 13 12 9 17 21 18 16 13 12 8 4 2 3 7 12 17 20 21 23 23 22 21 21 21 21 22 23 24 28 29 23 23 28 27
2 3 1 1 3 3 3 5 6 4 3 6 8 9 10 10 9 8 17 19 20 18 12 13 9 6 4 7 11 14 15 18 21 21 21 21 21 21 21 22 24 26 28 28 27 28 29 24 22
4 2 0 1 2 3 3 3 7 2 3 7 9 9 8 9 11 9 18 23 21 17 14 14 10 6 7 11 12 13 16 17 18 18 19 21 23 26 26 24 24 24 25 25 27 28 28 29 27
3 3 7 5 3 2 4 5 5 3 5 3 5 7 7 8 9 12 23 19 19 17 15 13 8 8 10 11 12 14 15 15 16 19 21 23 24 26 26 27 25 24 24 24 27 28 28 28 30
5 5 3 3 2 6 1 4 7 5 3 3 10 9 8 9 9 8 10 18 17 17 15 10 8 10 10 10 12 12 12 15 16 18 21 23 25 28 29 28 27 27 27 29 29 31 31 30 30
3 6 5 5 3 4 4 4 4 3 6 6 2 7 7 8 7 9 14 17 15 15 13 11 11 10 8 9 9 12 14 15 17 19 22 25 28 29 27 27 29 30 28 27 27 28 29 28 28
1 2 2 2 2 2 3 4 6 2 6 8 6 5 8 8 8 8 13 16 16 16 13 10 7 6 5 8 11 12 13 16 19 23 25 25 25 27 25 26 23 21 23 26 28 30 31 30 31
2 2 2 3 2 4 4 4 3 5 1 2 3 4 5 6 7 8 12 15 13 9 5 2 1 4 7 9 11 14 18 22 25 24 23 26 30 28 25 29 32 32 31 31 30 31 31 31 31
2 2 2 3 4 4 2 5 3 2 3 3 4 7 7 8 4 5 5 4 2 1 1 2 5 8 10 12 15 20 23 24 23 25 29 30 25 29 33 32 32 30 30 29 29 29 30 29 29
3 4 4 4 3 1 4 6 2 2 8 7 5 5 5 1 2 4 5 3 1 3 4 7 8 11 13 17 22 24 24 24 27 27 25 30 37 32 32 33 31 31 31 31 29 29 28 29 30

GFSSGP_925_spd_057.txt.gz
Wind_Speed
13 11 3 2 5 5 3 3 4 2 5 4 2 7 8 3 3 4 2 13 8 16 15 12 8 10 8 6 8 8 7 7 7 7 7 8 9 6 11 9 9 10 10 9 8 8 9 7 8
12 5 2 3 5 4 3 5 3 1 7 6 6 4 7 3 3 4 6 12 12 14 15 15 11 12 9 7 5 7 7 5 6 7 6 6 7 7 7 6 8 7 7 7 6 6 7 6 5
6 4 3 4 4 4 3 2 3 4 4 2 4 4 3 2 2 12 7 16 15 14 14 12 11 10 10 5 5 5 4 3 5 5 6 5 5 5 4 5 4 4 4 4 4 4 4 4 2
3 5 4 4 4 3 0 3 5 5 5 7 3 5 2 4 3 4 19 16 14 12 11 9 9 9 7 3 4 4 3 4 4 5 4 5 4 3 2 2 2 2 1 0 1 2 2 1 2
5 3 5 4 2 2 2 3 4 5 4 4 2 3 3 4 5 12 20 18 14 13 11 9 9 7 5 3 2 4 4 5 5 4 4 3 4 3 2 2 3 3 2 1 2 2 1 2 1
4 3 4 3 2 3 2 0 3 3 2 2 4 4 1 6 8 13 15 15 10 13 11 9 8 6 4 4 5 6 2 4 6 5 5 4 4 5 5 5 5 6 6 5 3 4 4 4 4
5 4 3 4 3 1 4 2 3 4 2 4 2 3 2 11 6 18 14 9 9 10 9 8 7 6 4 3 3 4 4 5 7 8 6 7 5 3 5 5 5 6 8 9 7 5 4 5 5
5 4 4 2 4 3 2 3 4 3 2 1 1 3 1 3 24 27 22 21 15 12 7 9 7 6 5 4 3 4 4 2 3 6 6 5 4 4 3 4 6 6 7 9 8 7 6 6 7
3 5 3 6 6 4 4 4 3 2 6 3 2 3 3 18 27 27 22 22 23 18 14 11 9 6 5 7 5 2 2 3 5 7 9 6 7 7 4 5 6 8 8 9 9 9 7 7 8
4 4 9 6 5 4 3 3 6 3 3 3 4 7 15 18 23 23 19 20 23 24 21 18 16 13 13 12 7 6 7 6 7 9 9 7 8 9 8 5 5 7 9 9 9 9 9 9 9
3 5 5 3 3 5 5 4 2 8 3 6 8 6 5 17 20 21 22 23 22 22 21 20 20 18 17 16 16 17 16 16 16 16 16 14 13 11 11 9 10 8 10 7 9 10 11 12 12
4 3 4 4 3 3 5 5 3 1 1 5 9 7 7 10 13 21 23 25 24 24 22 21 20 19 19 18 19 18 17 17 18 18 18 17 17 17 16 15 14 13 13 11 10 11 11 11 11
3 3 4 4 6 4 5 3 2 3 3 6 10 9 9 10 13 18 25 26 26 25 22 20 19 20 19 18 17 17 17 17 17 17 17 16 17 17 17 16 16 16 14 14 14 14 13 13 13
2 4 3 2 3 3 3 1 2 4 5 6 8 8 8 11 15 16 19 21 23 23 21 20 19 17 15 16 15 15 14 14 15 18 18 15 15 15 16 17 18 18 18 16 15 16 16 15 15
4 3 4 2 3 2 5 2 7 6 7 8 7 7 7 9 17 21 20 20 20 18 18 16 14 12 12 11 11 11 11 12 15 18 17 16 15 15 16 17 18 18 18 18 19 18 17 18 18
4 5 2 2 4 0 3 8 2 9 11 10 8 7 7 6 15 17 17 18 17 17 15 13 11 9 9 10 10 11 11 13 17 19 18 18 16 16 19 19 19 18 18 18 20 20 20 20 19
6 3 4 7 7 3 4 7 1 6 8 9 9 8 7 7 7 17 18 19 18 15 13 11 8 7 7 8 7 8 10 14 18 19 19 19 18 20 20 19 20 20 20 21 22 21 21 22 20
6 4 4 5 2 2 3 13 2 5 8 11 9 8 8 8 9 19 21 19 18 16 14 11 8 4 4 4 5 7 9 13 18 19 19 19 19 20 21 21 22 23 23 23 22 22 22 21 22
4 3 4 3 2 5 7 10 11 9 7 9 9 9 9 9 10 19 21 21 19 18 16 13 9 6 2 1 3 5 8 12 16 18 18 18 17 18 19 21 23 23 24 25 24 27 26 25 22
3 2 4 4 1 5 3 11 10 6 8 14 14 12 12 6 7 15 20 21 21 20 18 14 11 7 5 2 2 3 8 12 15 17 16 16 16 17 18 18 20 21 24 25 25 26 24 24 24
2 4 3 4 4 2 5 8 5 1 2 6 8 10 8 11 10 9 19 24 21 19 19 17 12 8 7 4 3 5 9 12 14 15 16 15 15 16 19 21 23 24 24 25 25 24 21 23 24
2 2 2 1 3 3 3 5 6 4 8 3 6 8 9 9 7 8 17 21 22 21 18 16 14 11 8 6 6 8 9 12 15 15 16 17 20 22 23 23 23 24 23 23 22 21 21 20 21
3 3 3 2 3 3 2 2 8 5 6 5 5 7 8 10 12 11 18 28 25 20 18 15 15 12 9 8 8 8 10 13 13 13 16 19 22 23 24 24 26 26 24 24 24 25 27 25 25
3 4 7 4 3 1 4 4 5 3 4 7 2 7 9 9 10 11 22 23 19 17 17 15 14 12 10 9 8 9 11 11 13 17 19 21 23 25 27 27 25 23 22 25 26 28 26 27 27
5 5 3 3 2 5 1 3 7 5 3 4 7 9 8 6 7 8 10 15 19 19 19 15 14 12 10 8 7 7 8 11 14 17 20 22 26 28 26 24 25 26 27 28 28 26 26 25 27
2 5 5 4 2 4 1 5 3 2 5 5 5 4 5 7 6 8 11 17 18 18 15 13 12 11 7 5 5 8 10 13 16 19 23 24 24 24 26 29 28 26 25 24 26 30 32 31 30
2 2 3 4 2 1 3 6 4 5 7 8 9 5 3 5 6 8 9 12 12 10 10 10 8 4 2 5 7 10 14 18 22 24 23 21 25 30 30 27 27 31 35 37 35 33 32 30 29
2 4 2 3 2 4 4 4 3 6 5 8 8 6 4 4 6 5 4 3 5 4 3 2 2 1 4 7 10 14 19 21 21 19 22 27 29 28 30 37 35 31 31 32 32 31 30 30 29
2 1 5 3 4 3 2 5 4 2 3 1 4 7 6 6 4 3 1 1 2 3 4 3 4 5 8 12 15 19 18 17 20 24 28 28 32 36 36 34 33 31 31 31 31 31 31 30 29
2 4 5 4 3 1 4 6 2 3 5 5 4 5 5 6 6 5 4 2 3 5 5 5 6 9 12 15 17 16 19 24 28 28 30 31 36 35 33 33 33 31 31 32 31 30 30 31 30

GFSSGP_925_spd_060.txt.gz
Wind_Speed
11 7 2 3 4 5 2 2 2 3 3 4 2 7 7 3 2 4 2 10 4 14 14 10 7 7 7 6 7 7 7 8 7 5 6 8 7 8 11 9 10 10 10 10 10 10 9 8 8
9 2 2 3 5 4 4 4 2 1 6 5 6 3 5 3 2 4 4 9 11 14 13 10 7 8 6 5 5 7 5 6 6 6 5 5 6 7 7 7 8 8 9 8 8 9 8 7 6
3 3 3 4 4 4 4 0 2 2 2 1 4 4 2 2 2 7 7 12 13 13 11 10 8 6 6 3 5 4 2 4 5 5 5 5 5 5 6 6 6 6 6 6 6 6 6 5 4
1 5 4 4 3 1 2 4 4 4 1 6 2 6 2 2 2 5 13 13 14 12 11 9 8 7 5 2 4 4 4 5 5 5 5 6 4 4 5 6 6 6 4 4 4 5 4 3 2
4 3 4 4 2 1 1 1 3 2 1 3 2 4 3 2 4 8 16 13 12 12 10 10 8 6 5 3 3 4 5 5 5 5 5 5 6 6 5 6 7 8 7 6 5 4 4 3 3
4 3 4 3 2 0 1 4 3 2 1 1 4 4 2 4 7 15 14 11 8 10 10 10 7 5 4 4 5 6 3 5 7 6 6 5 4 6 7 7 7 9 10 9 8 6 5 5 4
5 4 5 6 6 2 5 6 4 5 4 1 3 3 2 8 12 14 12 10 8 8 8 9 8 5 5 5 4 4 5 6 6 5 5 6 6 4 5 6 7 7 9 10 9 8 6 5 6
4 4 5 3 6 4 4 3 4 2 2 1 1 3 4 1 19 18 13 10 11 8 8 9 9 8 7 6 5 5 4 3 6 8 7 2 4 2 1 3 5 7 8 9 10 9 7 6 6
3 5 3 7 7 4 5 4 2 1 5 2 3 2 5 17 21 23 20 18 14 9 10 11 9 7 6 8 5 3 5 6 7 8 8 8 10 11 5 4 4 5 6 6 8 9 9 8 8
4 4 9 6 5 4 5 3 6 4 3 3 3 6 13 16 19 22 19 21 19 18 15 12 10 9 8 8 8 9 12 12 13 12 12 12 11 11 10 9 7 7 8 7 7 9 10 10 11
3 4 5 3 3 4 6 3 2 7 3 6 8 7 5 14 16 18 20 20 21 19 18 16 15 15 15 15 15 15 16 16 16 16 16 16 15 15 15 14 15 13 11 11 9 8 10 11 11
3 2 4 4 3 4 5 6 2 3 1 3 9 8 7 9 11 18 20 22 22 21 19 17 16 16 17 17 16 16 17 16 17 17 16 15 16 16 17 17 16 16 16 14 14 12 12 12 12
3 2 5 5 6 5 6 3 3 4 3 7 10 8 9 9 11 17 22 21 21 21 19 18 17 17 17 17 17 16 17 17 17 17 16 15 15 16 15 16 16 17 17 16 16 16 15 14 14
3 3 4 2 3 3 3 2 0 4 6 7 9 9 8 11 16 18 20 21 21 21 20 19 18 17 15 16 15 15 15 16 16 17 16 15 15 15 16 16 17 16 16 16 17 17 16 16 16
5 1 2 1 3 2 5 2 7 5 7 9 8 8 8 11 20 23 25 24 23 21 20 18 16 14 13 13 13 14 14 15 17 17 16 16 15 16 16 16 16 17 16 16 17 17 16 17 17
5 5 2 0 3 1 2 7 2 7 10 9 9 8 8 7 18 21 22 23 22 22 19 16 14 13 12 13 13 12 12 14 15 15 16 15 15 16 16 16 17 17 17 18 18 19 19 19 19
5 3 3 8 4 2 3 6 1 5 7 9 9 9 8 7 9 17 20 21 22 20 18 16 13 12 11 10 9 9 9 12 14 14 15 15 15 16 17 18 17 18 18 18 18 19 19 21 21
6 3 3 5 1 1 2 11 5 5 8 11 9 8 8 8 9 21 21 20 19 18 15 14 12 10 8 8 7 5 6 9 11 13 13 15 16 17 18 19 19 20 21 20 20 21 21 19 20
5 3 3 2 2 3 6 9 12 8 7 9 9 9 9 9 10 19 20 20 18 17 16 14 12 9 7 5 3 1 4 6 8 11 12 14 15 16 18 20 21 21 22 22 23 24 24 24 21
3 3 3 3 1 3 4 11 11 4 6 9 13 11 11 7 7 14 19 20 21 20 17 15 12 9 6 3 1 2 4 5 8 10 10 11 11 13 16 18 21 22 23 24 23 21 21 20 18
2 3 2 4 4 1 6 7 5 2 2 3 6 5 6 12 11 8 18 22 21 21 21 18 14 11 8 6 4 5 6 7 7 10 11 10 11 13 15 17 19 21 23 23 22 20 18 16 19
1 1 2 2 3 3 4 5 6 4 8 4 5 7 9 10 7 7 15 21 24 24 20 18 15 13 10 9 8 8 9 9 9 11 12 13 16 17 19 19 20 22 22 20 19 19 20 20 22
2 4 3 3 3 3 3 2 7 5 6 8 7 6 7 8 9 10 18 30 28 21 19 18 16 14 12 10 10 11 10 9 10 10 13 16 19 21 23 24 23 22 21 20 21 22 23 23 26
6 4 6 4 3 1 2 3 5 4 5 7 5 5 6 7 7 9 17 16 20 17 17 16 15 14 12 10 11 10 9 8 10 13 16 19 23 26 26 25 23 23 25 26 26 27 27 27 27
5 5 3 4 3 5 1 2 6 5 4 4 9 9 5 5 6 7 8 12 18 18 15 14 12 11 10 9 8 7 7 9 11 15 19 24 26 26 24 25 29 30 30 27 27 27 26 26 27
2 5 5 4 2 4 1 5 2 3 5 5 4 3 2 2 2 4 6 7 10 11 10 10 10 9 8 6 5 5 8 11 15 19 22 24 23 23 28 30 29 29 31 32 34 34 34 32 31
2 2 2 5 3 1 3 5 4 7 8 8 10 10 8 7 6 6 4 2 1 3 5 5 6 6 3 2 5 9 14 18 20 21 22 22 26 29 29 29 33 34 30 30 29 31 32 31 30
2 5 3 3 2 3 4 4 3 5 5 7 9 8 7 6 7 5 5 3 2 1 2 2 2 2 0 5 11 15 19 19 20 22 25 26 28 29 32 35 33 33 32 29 29 29 29 30 29
2 0 5 4 3 4 2 5 5 2 4 6 7 8 8 8 7 7 7 8 6 4 4 4 3 0 5 11 15 18 19 19 21 24 26 28 31 34 35 33 32 31 31 30 30 32 32 30 29
2 4 5 4 4 1 4 5 1 3 4 4 6 6 6 6 6 6 8 6 4 4 3 2 1 6 11 15 17 17 18 22 26 27 29 33 37 34 34 32 31 32 32 31 32 32 28 28 28

GFSSGP_925_spd_063.txt.gz
Wind_Speed
7 2 8 3 3 4 2 2 1 2 1 1 2 4 7 4 2 5 1 8 2 12 11 7 5 7 7 7 8 8 9 9 8 7 8 9 8 9 10 11 10 11 12 12 12 11 9 9 9
5 4 3 3 4 3 1 1 3 2 7 8 7 5 3 4 0 4 3 7 9 14 11 8 7 8 6 7 7 6 7 8 8 7 7 7 8 9 8 8 9 9 9 11 11 10 9 7 7
0 1 3 4 3 3 3 1 5 4 3 1 4 4 3 3 1 3 4 11 14 13 11 9 8 7 5 6 6 5 4 7 7 7 7 6 6 7 7 7 7 7 8 8 8 8 8 7 5
1 3 3 3 3 1 2 5 6 7 0 2 4 6 2 1 1 3 10 13 13 12 10 8 8 7 4 5 5 5 6 6 6 6 6 6 5 6 6 7 8 8 7 6 5 6 7 6 5
4 2 4 4 1 1 2 4 8 4 2 2 1 5 4 1 3 7 14 13 12 12 10 8 8 7 5 4 5 6 5 5 5 5 5 6 6 7 7 8 10 10 9 8 6 4 5 7 7
2 2 3 4 3 1 1 5 4 3 2 3 4 6 3 3 4 12 13 12 10 11 10 8 6 7 4 4 6 6 4 7 7 7 7 7 6 7 8 8 9 10 11 10 9 7 5 4 6
4 3 4 5 6 3 5 7 3 4 3 2 5 4 1 2 8 13 13 11 11 10 9 8 7 6 7 5 5 4 6 5 5 5 3 4 4 4 5 6 7 8 9 10 10 10 8 6 5
4 4 4 3 6 4 6 5 3 4 4 2 0 5 4 4 11 15 14 13 12 11 10 10 9 8 7 6 6 7 7 5 7 9 10 9 8 3 4 7 8 7 7 7 9 9 9 8 7
3 4 3 7 7 3 8 4 1 1 4 2 1 1 3 13 14 16 14 11 10 10 10 10 9 10 11 9 3 5 9 9 10 9 9 10 12 11 8 7 9 12 8 6 7 8 8 8 8
2 3 7 5 5 4 7 4 10 6 4 1 1 3 8 11 12 16 13 14 11 11 12 10 8 7 10 13 9 10 11 13 13 13 12 13 12 12 10 10 10 8 9 8 7 8 9 9 10
2 4 5 4 4 5 6 4 4 7 4 7 8 12 12 11 10 14 13 15 15 13 13 12 10 11 14 14 15 15 16 16 16 15 14 13 13 13 13 12 13 13 12 12 10 10 10 11 11
2 3 2 4 5 5 7 8 4 5 1 1 8 17 12 13 13 14 13 14 18 17 16 16 16 16 17 18 18 18 17 16 16 15 14 13 14 14 15 14 14 14 14 13 14 13 12 12 12
3 2 4 4 5 5 7 2 1 5 1 7 15 13 13 12 12 10 13 15 17 19 18 17 17 17 18 18 18 17 16 15 15 14 14 14 15 15 13 14 14 15 14 14 15 14 14 12 13
4 4 4 2 3 4 3 1 1 2 6 10 12 12 12 14 16 13 14 15 15 19 18 18 17 17 17 17 15 16 15 15 15 16 15 14 14 14 14 15 15 15 15 16 16 16 15 14 14
4 5 2 1 2 2 4 2 6 4 9 12 11 11 11 13 14 18 18 18 20 19 19 18 18 16 14 14 14 15 15 14 15 15 13 13 13 14 14 14 14 15 15 16 16 15 15 14 14
3 4 3 1 4 1 2 5 1 8 13 13 12 11 11 12 17 14 18 19 20 21 20 18 16 14 13 14 14 13 13 13 13 12 12 12 13 13 13 14 14 14 15 16 16 17 17 14 14
4 3 3 3 2 3 3 4 1 6 9 11 12 12 12 11 12 14 18 20 21 20 19 17 15 14 14 13 12 11 10 9 10 10 10 10 11 13 15 15 15 15 16 17 17 16 17 16 16
3 1 2 4 2 1 2 10 5 5 11 13 12 12 12 14 16 20 20 21 20 18 17 16 16 14 13 12 10 8 6 5 6 6 7 8 9 12 14 16 17 18 19 18 18 18 15 14 16
4 3 3 1 1 1 3 7 13 7 8 11 12 13 14 14 14 16 19 21 20 19 19 18 17 15 13 11 9 6 4 2 1 2 4 5 7 10 12 15 17 17 19 20 20 18 16 16 13
3 3 3 1 2 2 3 12 10 2 5 8 13 14 15 11 11 15 17 20 23 22 20 19 17 15 12 9 7 5 3 4 4 3 4 5 7 9 12 15 18 18 20 18 18 16 13 12 11
2 3 3 3 1 2 5 6 3 1 2 3 6 8 12 16 16 13 18 20 22 22 22 20 17 14 12 10 8 6 5 6 6 5 6 6 9 12 14 15 17 19 20 19 20 17 12 14 14
3 1 3 3 2 2 3 4 3 4 4 5 7 4 8 14 12 12 17 17 24 24 20 19 17 15 12 11 11 9 8 8 7 9 9 10 13 15 17 18 19 19 19 18 17 16 16 14 18
3 3 3 2 3 1 2 1 4 4 5 9 8 7 4 8 12 13 18 18 18 20 19 18 17 15 13 13 13 11 11 10 11 10 11 14 17 19 21 21 22 20 19 18 20 21 20 20 21
7 4 5 3 2 0 1 2 2 3 5 9 9 9 2 4 7 8 6 13 15 16 16 15 14 15 15 14 13 12 11 9 9 11 14 18 21 23 24 23 23 23 22 22 21 21 21 22 23
3 4 2 2 1 3 1 1 3 5 5 5 10 9 5 4 1 2 5 4 8 12 14 14 14 14 13 12 11 9 7 6 9 13 16 19 19 21 24 25 23 22 22 23 23 23 24 25 26
2 4 4 3 2 2 1 4 1 3 5 7 6 6 9 8 5 4 0 5 9 11 12 12 12 11 11 8 6 4 4 8 12 16 18 19 20 21 25 25 24 24 25 25 25 24 24 23 23
3 2 2 5 2 1 2 3 2 3 6 10 11 11 9 7 6 6 6 4 2 3 4 6 9 8 6 4 2 3 8 13 15 17 19 22 23 23 21 24 26 27 25 25 24 24 25 24 24
1 5 2 2 2 3 2 3 3 1 5 7 10 11 10 9 10 8 9 7 5 3 2 3 3 4 3 0 5 10 13 15 16 19 21 22 23 25 26 26 25 25 24 24 24 24 24 24 24
2 1 5 3 1 2 2 3 3 2 1 3 4 6 7 8 8 6 6 6 6 4 3 3 4 2 1 6 10 13 15 16 18 21 22 24 25 24 25 25 25 25 24 24 25 25 26 26 27
2 3 3 3 3 1 0 4 1 3 1 4 5 4 4 4 4 5 5 5 3 2 0 1 1 3 6 10 13 14 16 18 20 21 23 25 25 25 25 25 25 24 25 25 25 27 26 27 28

GFSSGP_925_spd_069.txt.gz
Wind_Speed
7 4 5 5 4 5 3 5 3 5 4 3 3 9 11 12 10 5 7 8 9 10 9 9 8 10 9 9 8 9 10 10 9 10 11 11 12 12 13 13 12 13 13 14 12 12 12 11 12
4 3 6 4 5 4 5 6 5 5 6 8 5 2 6 11 13 12 11 8 11 10 9 10 10 9 9 8 7 8 9 9 10 9 10 10 11 11 12 12 11 11 10 11 12 11 10 10 9
3 6 4 4 4 4 6 4 8 9 7 2 3 4 3 4 6 9 13 12 12 10 10 10 10 8 8 7 6 7 8 8 9 10 9 9 10 10 11 11 11 11 10 9 8 8 10 10 10
4 5 5 8 4 3 6 9 12 9 2 1 2 7 6 8 5 13 14 13 12 10 11 10 9 7 7 7 7 7 7 7 8 8 8 9 9 10 10 11 12 12 12 11 10 9 8 9 9
7 5 9 10 2 5 5 12 12 7 5 5 3 8 5 6 10 15 14 12 11 10 10 10 9 6 7 7 6 8 7 7 8 8 7 7 8 9 10 10 11 12 12 12 11 10 9 7 5
6 4 11 9 7 6 7 11 9 5 5 6 4 7 7 12 13 14 13 11 10 10 11 9 9 8 7 7 6 7 8 6 5 7 7 6 6 8 8 9 10 10 10 11 11 10 9 8 7
9 9 13 9 6 8 6 9 7 5 5 5 4 4 8 14 14 14 13 11 10 10 9 12 11 7 8 8 6 6 7 8 10 6 6 8 8 7 9 10 10 8 10 7 9 9 9 9 9
5 6 15 7 7 8 8 9 1 3 4 4 2 2 7 15 15 15 13 12 11 9 9 10 8 11 7 9 8 7 6 5 7 7 8 12 10 7 5 8 9 11 8 7 9 9 9 9 10
3 8 10 11 8 7 10 12 5 3 2 6 6 2 6 17 17 15 14 11 11 9 7 13 8 10 11 10 9 7 5 6 7 9 10 8 7 8 9 10 10 12 11 13 13 13 12 10 9
8 10 14 3 7 6 13 12 10 6 8 7 7 4 7 15 18 17 13 13 11 11 8 7 11 7 7 7 8 8 7 7 6 6 6 6 7 8 7 13 14 14 13 12 15 16 14 12 10
8 13 9 3 3 5 13 11 9 7 7 8 10 11 11 15 17 17 15 13 14 11 6 9 7 10 8 8 6 5 5 5 7 8 7 7 7 7 8 8 10 11 13 12 13 12 12 13 12
10 12 6 5 4 8 12 10 8 10 2 4 2 8 13 15 15 16 16 12 10 10 8 8 8 8 8 8 6 7 6 6 7 8 8 7 7 8 8 9 9 10 11 12 12 12 13 13 13
13 5 3 4 7 7 8 9 4 10 4 3 3 8 12 13 14 13 9 8 9 12 11 10 10 10 10 8 8 8 7 7 8 8 9 8 8 8 8 9 10 10 11 12 13 13 14 14 14
5 1 3 5 7 5 8 5 2 8 6 6 7 10 12 13 13 12 11 12 13 12 11 11 11 10 9 9 9 9 8 8 8 8 8 9 8 8 8 9 10 11 11 12 12 14 15 15 15
1 6 4 5 5 3 5 7 11 6 8 8 9 10 11 12 13 13 14 14 13 13 11 11 10 10 10 10 10 9 8 8 7 7 7 8 8 8 8 8 9 10 11 12 12 13 14 15 15
6 3 4 5 1 4 5 9 10 7 8 8 10 10 11 12 14 14 14 13 12 12 12 12 11 11 10 10 9 9 8 7 6 5 5 5 6 6 7 7 8 10 10 11 12 13 15 15 16
9 11 15 8 3 2 7 8 7 4 6 8 9 10 12 12 14 15 14 14 13 13 13 13 12 12 11 10 9 8 7 5 4 4 3 3 3 4 4 5 7 8 9 10 11 12 13 16 17
16 16 13 11 9 10 10 15 5 7 7 9 10 11 12 13 15 16 15 14 14 13 13 13 12 12 11 10 8 6 5 5 4 4 3 2 1 1 3 5 7 8 9 10 11 13 14 15 17
6 10 13 3 3 4 12 13 11 8 10 9 11 12 12 13 14 16 16 16 15 14 13 13 13 12 11 9 8 7 7 7 6 5 5 4 3 3 4 5 8 9 10 12 13 14 16 17 17
11 11 11 5 3 2 14 20 15 5 4 5 8 11 13 13 14 17 18 18 16 15 13 13 13 12 11 9 9 7 7 7 7 7 7 6 6 6 6 7 9 11 13 13 14 14 16 16 17
12 12 9 7 4 6 14 15 16 7 4 2 2 5 10 12 14 15 19 18 16 15 14 14 13 13 12 10 8 7 6 4 6 8 9 8 8 7 8 9 11 13 13 14 15 16 15 17 17
14 6 4 6 4 7 5 8 8 8 5 2 6 6 3 7 11 13 16 17 17 15 13 13 13 13 13 12 11 11 11 12 10 5 7 9 10 10 10 11 13 14 15 17 17 17 17 18 19
4 6 5 5 7 6 12 5 1 5 5 5 8 8 6 2 8 12 15 16 15 14 13 13 13 13 13 13 13 12 14 13 11 10 10 11 11 12 12 14 14 15 17 18 19 20 20 20 21
9 8 6 4 5 8 11 7 3 3 6 5 6 9 7 4 5 9 11 12 12 11 12 11 14 14 14 14 14 13 14 14 14 13 12 12 12 13 14 15 16 17 18 19 19 20 21 22 24
7 7 5 6 5 5 3 4 5 6 5 5 6 9 9 8 6 6 8 7 7 9 11 12 12 13 13 14 14 14 13 13 13 12 12 13 14 15 16 17 18 19 20 21 22 23 24 24 25
10 7 7 6 6 1 5 6 5 7 6 8 8 9 10 10 8 6 4 4 5 7 8 10 10 11 12 11 11 10 9 9 9 10 11 13 15 17 17 19 20 21 22 23 24 25 25 25 25
6 6 4 7 7 8 8 7 7 7 7 8 9 9 9 9 10 10 10 9 7 6 4 2 4 5 5 7 8 8 8 9 10 11 13 14 16 18 20 21 22 23 24 24 25 25 26 26 26
4 2 3 4 4 7 6 4 3 11 9 9 9 10 9 9 9 9 10 10 9 8 6 5 3 1 3 4 5 6 8 10 11 13 15 17 19 20 21 23 24 25 25 25 26 26 26 26 25
5 5 4 4 3 5 6 4 7 10 10 8 8 8 8 8 7 7 8 7 6 5 4 3 2 3 4 5 6 8 10 12 13 15 17 19 21 22 24 25 26 26 26 26 27 27 27 27 27
4 4 6 5 5 4 3 1 1 9 7 7 8 7 6 6 5 5 4 4 4 5 6 6 7 7 6 7 9 11 12 13 16 18 20 21 23 23 24 26 26 27 27 27 27 27 27 26 25

GFSSGP_925_spd_075.txt.gz
Wind_Speed
10 6 7 2 4 4 2 1 5 4 4 2 9 13 8 3 3 4 16 24 23 21 17 15 13 13 13 13 13 14 13 13 13 14 14 14 15 15 15 14 14 15 15 16 15 14 15 14 13
7 5 3 1 4 1 3 4 6 5 5 7 10 7 6 4 4 8 16 24 22 22 18 17 14 13 13 12 13 13 13 13 12 13 13 14 14 15 16 15 15 14 14 13 12 14 15 13 12
6 3 2 3 1 2 2 4 8 5 6 3 4 5 4 5 6 12 24 24 27 22 20 17 15 14 12 12 12 12 12 12 13 13 13 14 14 15 15 15 15 15 14 14 12 11 11 11 10
3 5 3 2 1 4 4 6 9 6 2 5 6 7 5 5 8 18 25 30 28 23 21 16 15 14 13 12 11 12 11 11 11 12 13 13 13 13 14 14 15 15 15 15 14 13 11 9 10
3 2 1 1 4 7 2 8 9 7 7 2 7 2 4 8 25 26 26 28 24 22 19 16 15 14 13 12 12 12 12 12 12 11 11 12 12 12 13 14 14 15 14 14 14 13 13 14 14
2 1 1 2 5 6 1 9 8 7 7 6 6 6 5 25 27 24 26 25 22 21 19 17 16 15 13 12 13 11 10 10 10 11 10 11 12 14 14 14 13 13 13 13 13 14 14 14 15
4 2 4 5 4 4 8 8 8 8 7 4 10 4 5 11 25 22 24 26 25 20 19 21 17 15 14 11 10 12 12 11 12 13 12 9 11 11 10 11 13 14 15 15 15 15 14 13 11
3 3 3 4 6 7 4 5 7 7 3 3 7 6 6 11 26 21 23 29 23 23 22 22 19 16 14 12 10 9 10 11 12 13 14 12 12 13 13 13 14 13 15 16 17 14 14 15 14
0 1 3 4 6 6 5 6 3 3 7 4 3 4 12 32 28 23 22 28 28 24 26 23 19 16 15 12 10 10 11 13 12 11 11 9 10 13 15 15 13 15 12 13 13 13 13 13 12
4 3 7 3 5 3 1 5 8 5 5 4 6 10 26 30 30 21 18 21 24 29 29 27 22 19 17 14 12 13 12 11 11 12 11 11 12 11 12 11 11 14 13 14 15 15 14 15 15
5 5 2 5 0 4 9 6 3 9 3 8 11 11 16 15 22 18 19 24 34 34 27 29 23 20 16 14 16 14 12 12 12 10 11 12 12 12 11 13 14 14 14 14 14 14 14 13 14
2 4 3 9 1 5 3 8 5 5 5 4 11 14 8 9 10 15 14 19 32 25 29 25 24 23 15 17 13 15 14 11 10 9 10 10 11 11 12 13 13 13 13 14 14 15 15 14 13
5 4 5 5 6 6 7 4 5 6 6 9 11 10 10 9 11 14 15 17 30 23 24 23 26 21 19 18 19 16 14 11 10 12 12 10 12 12 11 11 11 13 12 15 16 17 18 19 18
5 6 3 4 5 4 7 2 3 2 6 9 10 10 9 10 14 19 15 26 29 29 27 27 26 21 20 17 16 15 13 10 13 13 12 11 11 10 8 9 10 12 13 14 15 17 18 19 19
4 5 4 1 1 3 4 5 6 3 4 8 8 7 8 10 14 15 27 30 29 25 24 23 24 21 17 17 15 14 11 12 13 12 11 12 10 9 7 8 10 10 10 11 13 14 15 18 20
5 5 4 1 5 2 2 3 7 7 5 3 6 6 6 6 7 17 28 34 30 26 23 22 21 20 20 17 14 14 12 12 11 9 9 9 9 6 5 6 6 7 8 9 12 15 17 18 21
1 5 4 2 3 5 3 4 2 4 8 7 5 7 7 7 8 18 18 30 31 28 26 22 19 21 17 12 15 14 12 12 11 8 7 7 7 5 3 3 3 5 7 8 11 13 15 17 21
5 4 3 6 6 3 3 5 6 7 4 8 6 3 7 8 8 21 24 32 29 26 24 22 18 19 16 16 16 14 12 12 9 9 6 4 4 4 3 2 2 5 7 8 11 12 14 16 20
7 8 10 3 6 5 5 6 8 8 5 7 6 4 2 7 7 25 31 33 32 28 23 20 16 21 21 18 18 14 12 12 11 10 9 8 7 6 5 4 5 5 7 8 11 13 15 19 17
13 6 4 4 6 5 7 9 9 7 3 6 7 6 0 3 7 15 28 31 32 28 23 22 19 19 18 17 15 12 15 16 16 15 14 13 13 11 9 8 8 8 8 11 12 13 15 14 16
15 8 6 7 3 3 5 6 6 2 5 6 5 5 5 4 8 7 18 28 28 27 26 24 21 21 21 17 15 11 9 7 12 15 16 16 14 13 13 12 11 11 12 13 14 14 13 12 14
11 5 8 13 8 5 6 4 5 7 6 5 6 7 5 5 1 7 12 21 24 20 22 23 23 24 21 18 17 15 12 10 10 11 14 15 14 14 14 13 14 13 12 13 14 13 14 16 18
4 5 9 8 6 5 3 3 6 7 5 4 5 6 5 5 2 8 12 24 23 20 20 17 21 22 21 20 20 18 13 11 10 8 9 12 13 14 13 15 12 12 12 12 13 16 18 18 18
7 7 8 5 4 1 8 6 3 4 6 4 3 3 5 7 5 8 20 24 21 18 19 16 12 9 13 17 16 15 13 13 14 13 7 7 10 9 4 5 7 9 13 16 19 20 20 20 21
6 6 3 2 1 5 4 5 5 5 6 8 8 5 6 7 8 8 8 11 14 14 13 10 7 5 1 2 7 11 13 12 13 9 7 4 4 6 9 11 14 17 20 21 21 22 23 24 24
4 6 5 6 5 4 3 4 4 5 7 8 8 7 7 8 7 8 9 11 11 9 5 2 1 3 6 7 2 1 4 5 7 7 7 6 9 12 14 17 19 20 21 25 25 25 26 26 26
4 2 4 3 1 4 3 3 4 5 7 7 8 8 7 8 8 8 14 19 18 16 15 14 10 7 5 4 2 2 3 1 3 4 6 10 12 13 16 20 23 23 23 24 24 26 27 27 27
2 3 3 2 2 3 2 4 4 8 7 7 7 8 7 7 8 8 12 15 13 11 9 7 6 6 4 3 4 4 6 7 7 5 8 11 14 16 16 17 18 20 22 24 25 26 27 28 30
1 1 1 3 4 4 1 4 6 10 11 11 9 8 8 8 7 7 10 11 10 8 6 5 3 2 3 4 5 5 8 9 10 11 11 11 13 17 19 20 22 23 24 25 26 26 26 26 26
1 3 5 4 4 1 4 5 5 11 11 12 9 8 7 8 8 7 9 8 9 8 4 1 2 5 7 7 5 3 4 7 10 12 12 16 20 21 22 23 25 26 27 27 27 28 28 25 27

GFSSGP_925_spd_078.txt.gz
Wind_Speed
11 3 3 2 4 4 2 4 4 3 3 3 2 9 8 4 1 3 6 18 22 23 19 16 15 14 14 14 13 13 13 13 13 14 14 14 14 13 13 13 13 13 14 15 14 14 13 12 13
7 3 3 2 4 0 4 1 5 5 7 8 8 4 6 3 3 10 15 24 22 22 20 17 16 14 14 14 13 13 13 13 13 14 14 14 15 14 14 14 13 13 13 11 12 12 12 11 10
5 1 3 3 1 4 3 3 6 4 10 4 4 4 5 4 6 15 20 27 23 22 20 17 16 14 13 13 13 13 13 13 13 14 14 14 14 14 14 14 14 14 13 13 11 10 9 9 10
2 4 3 2 4 3 4 6 5 7 3 6 6 6 4 5 17 16 32 28 25 23 20 18 16 14 13 13 12 12 12 12 13 13 13 13 13 13 13 14 14 15 14 14 13 13 13 13 12
2 2 3 1 4 3 3 5 8 6 5 4 4 3 2 5 17 32 33 29 27 24 20 18 17 15 13 12 12 12 13 13 12 12 12 12 12 13 14 13 14 14 13 13 13 13 13 14 15
2 3 3 2 4 5 3 6 7 6 4 5 6 5 4 18 32 33 32 29 26 25 22 20 18 16 14 14 13 12 11 11 12 11 10 12 13 13 13 13 13 13 13 14 13 13 11 13 15
5 3 5 5 4 5 5 5 6 7 7 4 11 5 2 6 30 35 33 28 25 24 24 21 20 17 15 14 13 12 11 12 13 13 12 11 11 11 12 13 12 14 14 15 13 14 15 12 13
4 4 5 5 5 7 5 7 5 8 5 4 6 6 6 13 31 32 31 28 28 26 24 23 22 19 17 15 13 12 11 12 13 12 13 13 13 13 14 15 11 12 15 15 14 13 13 13 13
4 2 3 5 6 7 4 6 1 2 6 2 3 7 10 34 29 32 26 24 27 26 26 24 23 20 18 16 15 14 14 13 12 11 11 11 13 14 13 12 13 15 14 14 14 13 13 13 13
4 4 8 5 3 6 7 6 8 6 5 3 2 3 30 34 28 26 22 22 23 29 27 26 24 22 20 16 16 15 13 11 10 11 11 12 12 11 12 11 13 14 13 13 13 13 12 12 12
6 6 6 4 6 4 5 6 3 10 2 7 10 12 20 19 20 23 23 29 35 36 31 27 24 22 22 20 19 17 14 13 14 14 12 13 13 12 12 13 13 13 12 14 15 16 16 15 14
4 4 2 4 5 4 2 2 5 4 7 9 12 21 15 14 14 18 22 24 26 31 30 28 24 23 20 21 19 18 16 15 14 13 13 11 12 12 13 13 13 14 15 16 18 18 18 17 17
6 5 5 4 3 3 1 1 4 4 1 8 9 13 16 14 15 21 22 27 28 29 31 30 25 22 22 21 18 19 17 12 12 12 11 9 12 12 11 13 13 14 14 15 16 17 17 18 18
7 7 5 3 3 4 4 2 0 2 1 9 13 11 9 10 13 11 18 26 27 30 34 30 27 22 21 20 21 20 15 12 13 12 12 12 12 11 10 11 11 11 11 12 13 14 16 17 19
5 5 3 4 3 2 3 6 4 4 3 8 7 6 7 8 13 12 24 27 33 30 33 32 29 24 24 22 20 17 12 13 14 13 12 11 9 9 8 8 8 8 8 9 10 12 14 16 19
6 5 5 3 5 2 5 3 4 5 7 4 5 7 8 7 10 12 26 33 33 34 32 32 29 27 22 19 16 13 12 14 14 13 12 10 9 7 6 5 5 5 5 6 9 12 14 16 19
1 5 4 3 1 4 3 4 5 2 3 6 7 6 8 7 7 23 32 36 36 36 35 33 30 26 22 17 13 14 14 14 13 12 11 10 8 6 4 3 1 1 3 5 9 11 15 17 21
4 6 3 6 7 2 4 6 4 5 5 4 5 7 8 7 10 24 33 38 37 36 35 32 30 26 20 16 16 15 14 13 13 10 9 9 8 7 6 5 4 3 5 6 9 12 14 16 18
5 6 6 2 5 4 8 4 7 7 5 7 6 7 6 9 3 16 27 35 35 33 33 33 29 23 22 22 20 17 16 16 14 14 12 11 10 10 9 8 7 7 7 7 9 10 13 17 16
4 5 4 1 4 3 6 8 10 5 5 6 8 6 4 4 7 12 24 33 36 35 31 28 25 25 22 20 20 18 16 15 15 14 15 14 13 13 12 11 10 10 10 9 9 10 11 12 11
6 5 5 5 3 1 6 6 6 4 3 4 4 5 6 2 9 8 16 25 32 30 27 26 26 25 23 19 19 14 12 13 15 16 17 17 17 16 15 15 13 13 13 12 12 11 11 10 11
11 8 8 7 7 5 3 4 4 3 5 4 3 3 5 2 6 7 11 20 31 30 26 26 25 25 23 21 20 18 15 11 12 13 16 18 19 19 17 16 16 15 13 13 13 12 10 11 14
8 7 12 8 5 5 1 3 6 3 3 4 2 2 0 2 6 8 11 23 30 28 27 24 23 23 23 23 21 20 18 16 12 11 11 12 15 18 17 17 16 14 12 12 11 11 13 15 16
5 7 7 4 2 0 6 6 5 5 7 4 2 0 3 5 3 9 14 23 22 20 23 20 19 19 20 21 19 18 18 16 13 13 10 8 11 12 11 7 6 7 10 12 14 15 16 18 19
3 6 3 1 1 5 4 4 7 2 5 7 7 4 6 5 6 8 8 12 13 13 14 13 14 12 8 9 11 12 13 14 14 12 8 5 6 6 6 8 10 12 14 16 17 20 23 23 23
6 6 5 6 5 4 6 6 4 2 4 7 6 6 6 7 7 8 10 16 15 13 12 10 9 7 5 5 4 4 6 4 4 3 4 4 5 7 8 10 13 16 18 19 20 22 23 24 25
5 3 4 5 2 3 2 3 4 4 5 5 7 7 7 7 7 8 13 19 18 17 14 12 11 9 8 7 6 6 5 3 1 2 3 4 4 6 10 13 14 16 18 19 20 22 24 24 25
2 3 2 3 3 3 3 3 4 8 8 6 7 8 6 6 7 7 10 15 14 13 13 11 9 6 4 1 1 2 2 2 2 2 4 5 6 8 11 15 18 19 20 21 22 24 25 25 26
1 0 4 4 4 4 2 6 5 12 12 11 9 8 8 7 7 7 9 11 11 11 8 6 4 2 1 3 4 3 3 4 3 4 5 7 10 14 17 18 19 21 23 22 23 25 27 27 26
3 4 4 4 3 1 4 5 4 8 12 11 8 8 7 7 7 6 8 8 8 8 6 4 2 1 4 5 4 1 2 4 7 9 9 11 15 17 17 20 21 22 22 23 24 27 27 28 22

GFSSGP_925_spd_081.txt.gz
Wind_Speed
7 1 3 3 2 4 2 4 2 3 1 3 2 6 7 4 2 3 6 9 21 21 18 13 13 13 12 12 12 12 12 12 12 11 12 13 13 13 12 12 12 12 13 13 13 12 12 12 12
4 5 3 2 3 2 5 2 6 5 6 7 7 4 5 2 4 7 14 16 23 24 19 16 14 13 13 12 13 12 12 12 12 12 13 13 13 13 12 12 12 12 11 11 9 10 10 10 11
2 2 3 3 2 3 4 3 6 5 8 3 4 5 6 7 4 17 10 26 24 22 20 17 15 14 14 13 13 13 12 12 12 12 13 13 13 13 13 13 13 13 13 12 11 10 10 10 11
3 4 3 3 4 4 4 4 5 7 2 3 5 5 2 1 18 14 30 27 25 23 20 18 16 15 14 13 13 12 12 12 12 12 12 12 12 12 14 14 14 13 13 13 13 13 14 14 14
3 2 2 1 4 3 4 5 7 6 6 5 3 4 1 4 9 28 31 28 27 24 21 19 16 15 14 13 13 12 12 12 12 12 11 10 11 12 13 15 13 12 12 13 13 13 13 15 16
3 2 2 3 4 4 4 5 6 5 5 5 5 5 4 13 28 33 31 29 25 26 23 20 18 16 16 15 14 13 12 12 11 9 9 12 14 12 12 13 13 13 14 14 14 15 14 14 15
5 3 4 4 3 3 4 8 6 6 6 5 9 5 1 8 28 32 30 28 26 24 24 23 21 18 18 16 13 11 13 12 11 12 12 10 11 12 12 13 14 13 15 14 14 14 13 14 15
4 4 4 4 4 5 4 7 7 7 6 3 5 7 5 9 30 31 29 28 25 25 24 25 23 21 20 17 16 15 14 14 12 11 11 12 13 13 13 12 13 14 14 14 13 13 13 14 15
4 3 4 5 6 6 4 5 2 2 7 2 7 8 6 33 31 27 23 22 23 24 25 25 24 22 20 18 16 15 15 14 13 12 12 13 13 13 14 13 14 14 14 14 13 13 13 12 13
4 5 9 5 5 4 4 6 9 6 5 3 2 3 24 32 29 24 22 22 23 25 28 26 25 23 21 19 18 17 17 15 14 11 12 12 11 11 11 12 13 13 13 14 14 14 13 12 13
5 6 5 6 3 6 3 5 4 11 4 7 10 8 19 26 24 24 23 30 37 33 31 29 25 23 21 20 19 17 14 14 14 13 12 12 11 12 12 13 13 14 14 17 17 17 17 16 15
4 5 6 4 3 1 4 4 4 8 7 9 10 20 18 17 17 24 24 25 25 30 30 29 25 25 20 20 18 16 15 15 16 13 14 13 12 12 13 14 15 16 16 16 16 17 16 16 16
4 4 4 4 2 3 1 1 4 3 4 7 11 15 21 17 18 22 25 24 26 27 29 29 27 23 22 20 18 17 17 16 16 16 15 11 12 13 13 14 14 14 13 14 14 15 15 17 17
6 6 4 5 4 2 3 2 4 2 3 8 13 13 12 12 16 12 20 22 27 27 32 29 25 24 22 22 18 18 17 16 15 15 14 13 12 12 12 13 11 11 10 11 11 13 14 16 18
4 6 1 4 5 4 1 4 4 4 3 6 7 7 8 8 11 17 26 27 32 34 32 30 28 23 23 21 20 20 17 14 15 15 14 13 11 11 10 10 9 8 7 7 9 10 12 15 18
7 5 6 5 7 2 2 4 2 4 5 5 6 6 5 6 11 15 23 29 32 34 35 32 30 27 25 23 22 20 16 15 15 15 14 12 11 9 9 7 5 4 3 5 8 10 12 14 18
2 5 4 3 4 4 3 4 4 3 3 6 6 6 7 7 5 17 26 31 36 37 36 31 30 29 26 24 21 18 16 15 15 14 13 12 10 9 6 5 3 1 2 4 6 8 11 15 18
4 5 2 5 6 1 3 4 4 5 5 8 8 10 11 9 10 17 24 28 33 36 34 33 33 30 27 24 20 18 16 16 14 13 11 10 9 8 7 5 4 4 4 4 6 8 11 14 17
3 6 5 2 5 4 9 7 11 8 6 7 8 7 8 7 5 14 21 26 33 34 33 34 33 31 28 26 23 19 18 17 15 13 12 11 11 10 9 9 8 8 7 7 7 8 11 13 15
6 6 4 1 2 1 4 9 6 7 6 7 9 8 7 6 7 12 17 25 32 36 36 35 34 32 28 25 22 19 18 16 15 14 15 14 14 14 13 12 12 12 10 9 9 8 8 9 10
5 6 4 3 2 3 4 6 6 4 5 3 2 4 4 8 9 7 15 22 26 35 37 37 34 31 27 24 19 15 15 12 15 16 17 19 18 17 16 15 14 14 13 12 11 10 8 7 5
6 5 5 6 4 4 2 4 5 3 5 3 5 3 2 2 4 6 12 20 28 31 34 33 31 27 24 22 21 19 18 16 16 17 18 17 18 18 18 17 17 16 15 14 12 10 9 7 8
6 5 7 5 4 2 2 1 5 1 5 6 4 3 2 3 4 8 9 20 25 27 29 28 26 23 23 22 22 20 17 14 10 10 11 12 14 17 19 19 17 16 14 12 10 8 9 11 11
7 7 8 5 3 2 6 6 5 5 6 4 3 1 4 6 3 6 12 17 21 22 22 21 21 21 21 20 18 17 16 14 13 12 11 10 11 11 11 10 9 7 6 7 10 12 13 14 15
5 6 2 1 2 4 3 3 8 4 4 5 7 2 5 5 2 7 9 13 14 15 14 13 13 13 14 14 15 14 13 12 11 10 10 9 8 6 4 3 4 7 8 11 13 14 16 16 18
4 6 5 5 5 4 2 6 5 3 4 6 7 5 5 6 6 7 9 15 13 13 13 13 13 11 8 7 5 5 5 4 3 2 3 3 3 3 4 5 7 10 11 12 13 15 16 18 20
4 4 3 4 3 3 3 4 4 3 4 5 7 7 6 6 6 8 11 17 17 15 13 13 12 11 8 7 6 4 3 2 1 1 1 2 2 4 6 7 8 10 13 14 16 17 19 20 21
4 6 4 1 3 4 3 3 5 5 6 5 5 7 5 5 7 7 10 15 15 16 16 15 12 11 9 6 5 4 3 3 2 2 3 4 3 5 8 11 14 15 17 19 20 21 22 22 24
2 2 2 4 3 4 0 5 5 9 9 10 8 7 8 7 7 7 8 12 14 13 12 11 8 6 4 3 3 2 3 2 2 1 2 4 5 8 11 13 15 17 19 20 20 21 24 25 26
2 1 4 4 3 2 4 5 2 7 9 9 9 8 7 7 7 6 10 12 11 11 9 8 6 3 1 2 3 3 2 1 3 5 5 6 9 11 13 15 17 20 19 19 22 24 23 24 27

GFSSGP_925_spd_084.txt.gz
Wind_Speed
5 3 4 3 3 4 3 5 1 3 1 1 3 4 6 3 3 3 7 7 22 22 18 15 13 12 11 11 11 10 10 9 10 10 11 11 12 12 12 12 11 12 12 13 13 12 12 14 14
1 6 2 2 4 1 5 2 5 5 5 7 6 4 3 2 2 6 13 16 24 23 19 15 14 14 13 12 12 11 10 10 10 11 11 11 12 12 12 12 12 12 11 11 11 12 13 13 13
2 3 3 3 3 4 5 5 6 2 7 3 4 4 6 6 2 15 7 24 24 23 20 17 16 15 14 13 13 11 10 10 11 11 11 11 12 13 13 14 14 13 13 14 14 14 14 14 13
5 3 3 3 5 5 5 3 6 7 3 1 4 6 2 2 15 13 23 26 25 22 19 19 16 16 15 14 13 12 11 10 10 10 10 10 12 13 14 14 13 13 14 14 14 14 15 16 14
3 2 1 2 4 4 4 2 8 7 5 4 3 6 3 2 7 21 28 26 25 23 20 18 16 16 16 14 14 13 12 10 11 10 8 8 11 13 15 13 12 12 14 15 15 14 15 17 15
2 2 2 4 4 4 3 5 7 5 4 4 5 6 3 8 21 29 28 26 24 24 21 19 16 16 16 15 15 14 13 11 10 9 8 13 14 13 13 14 14 14 15 15 15 16 17 17 17
4 4 5 4 4 3 5 8 7 7 7 4 8 6 2 5 23 30 27 25 24 23 22 20 18 17 16 16 15 14 13 11 11 11 11 11 13 13 14 14 14 14 15 15 16 16 17 16 16
4 3 4 4 4 5 3 7 6 7 5 2 4 6 5 8 27 29 26 25 24 23 22 21 19 19 19 16 13 14 13 13 12 12 12 14 13 13 13 14 14 14 15 15 13 13 13 13 15
4 2 4 6 6 5 3 5 2 3 7 3 6 6 2 33 30 25 21 20 21 22 22 22 21 21 19 17 16 14 14 13 14 13 12 13 14 16 17 14 14 14 15 14 13 12 12 12 12
4 5 9 5 5 3 3 5 8 6 5 4 3 5 22 30 28 24 22 20 21 24 25 25 22 21 20 18 17 18 17 15 13 13 13 12 12 11 11 13 13 13 13 14 15 15 15 14 14
5 6 5 5 5 1 3 2 5 7 4 8 12 10 16 24 22 22 23 25 28 26 27 27 25 23 22 20 18 18 17 15 12 13 12 11 11 12 13 14 15 15 16 17 16 16 17 16 16
3 7 5 4 3 0 3 2 4 6 7 4 10 19 15 17 17 23 23 22 23 26 24 27 25 24 23 20 19 18 16 15 14 14 13 11 12 13 14 15 16 16 16 15 16 17 17 18 18
5 3 6 3 4 4 1 6 6 7 6 2 11 17 19 17 19 21 22 20 25 27 23 25 25 24 21 21 18 16 15 16 15 15 15 11 13 15 16 16 15 15 13 13 14 14 16 17 18
3 6 4 4 3 3 3 3 1 0 5 5 12 16 14 16 20 16 21 22 28 29 31 29 26 25 22 21 18 17 16 17 16 16 15 13 12 14 15 15 13 12 11 11 11 12 14 15 17
4 4 1 5 5 5 4 3 4 3 2 4 5 7 10 11 18 22 28 29 34 34 33 31 29 26 22 23 20 19 17 16 16 16 15 14 13 14 14 13 11 9 8 7 8 9 10 11 15
6 6 5 4 8 3 6 6 3 2 4 5 3 5 7 8 19 22 26 28 31 32 34 32 30 28 24 22 21 19 17 16 16 16 16 15 13 13 12 11 9 7 5 3 4 6 9 11 14
3 6 5 2 5 4 4 4 3 1 5 7 8 8 8 7 9 19 25 29 31 33 34 33 31 29 26 23 22 19 16 15 16 16 16 15 13 12 10 9 7 5 2 0 3 5 8 10 12
3 5 3 6 6 2 2 3 4 3 3 8 8 8 7 10 13 17 25 26 28 32 31 32 29 27 25 24 22 18 16 16 16 15 14 13 12 11 10 8 6 5 4 3 4 4 5 8 12
2 5 5 3 5 5 7 5 8 7 5 7 8 8 6 6 0 8 18 24 27 27 32 33 31 28 29 28 23 19 20 19 17 15 14 13 12 11 11 9 8 7 7 6 5 4 5 6 11
9 5 4 2 3 3 5 9 8 7 6 6 7 6 7 4 4 8 17 24 28 31 33 31 30 32 31 28 24 19 20 18 16 15 14 14 13 13 12 11 11 10 10 10 8 7 5 5 7
8 4 5 4 3 3 4 5 4 6 5 4 4 6 5 9 8 7 13 21 25 31 33 31 32 31 29 25 21 14 17 13 16 17 17 17 16 16 16 15 14 14 13 13 11 9 7 4 2
8 6 5 6 4 3 1 4 4 3 7 4 3 2 5 4 4 5 8 16 24 28 28 30 29 29 26 23 21 20 21 17 17 17 16 16 18 18 18 18 18 17 15 14 11 9 7 6 5
6 1 5 4 4 2 1 1 6 1 6 7 6 5 2 2 1 6 7 14 20 24 25 26 26 26 24 23 22 20 18 16 11 13 13 13 15 17 18 18 17 16 15 13 11 9 7 7 8
8 6 7 5 3 1 5 5 5 5 5 0 3 5 0 4 4 4 9 16 17 19 22 23 23 23 23 23 22 19 15 11 10 10 10 10 9 9 8 8 8 7 6 4 5 7 9 11 12
4 5 3 2 1 4 1 5 10 2 2 3 8 6 2 3 2 6 8 15 19 20 20 18 19 20 18 16 16 14 12 10 10 9 8 8 6 3 2 2 2 3 4 6 8 10 11 13 15
2 6 4 5 4 4 2 5 5 2 3 3 6 4 3 3 3 6 7 15 20 18 16 15 15 14 11 11 9 8 7 6 5 3 2 2 1 1 2 3 4 5 6 7 9 11 13 15 17
3 2 3 4 2 2 2 5 3 2 3 4 5 5 3 3 5 7 9 16 18 17 15 15 15 13 11 10 8 7 5 4 3 2 2 1 1 2 3 3 4 7 9 11 13 15 16 17 18
4 6 3 3 2 2 3 4 5 4 6 4 4 5 4 4 6 7 8 16 16 17 17 16 15 15 12 9 7 5 4 3 2 2 1 1 1 2 4 6 9 11 12 14 16 18 18 19 20
2 1 6 4 3 2 2 5 5 4 8 9 8 7 6 6 7 7 9 16 18 18 17 16 13 11 9 6 5 3 3 3 2 1 1 2 3 5 8 10 12 14 17 18 19 19 21 22 22
1 2 5 4 5 2 2 5 0 5 7 9 9 7 5 5 6 6 11 16 16 15 14 12 10 7 5 4 3 4 5 3 1 2 3 4 6 9 10 11 15 18 18 18 19 21 21 22 23

GFSSGP_925_spd_087.txt.gz
Wind_Speed
2 6 5 1 2 1 2 4 1 4 4 2 5 3 5 3 2 1 7 8 20 20 16 15 14 13 13 12 11 10 9 9 10 10 10 11 11 11 10 10 10 13 13 13 12 10 9 12 14
1 8 3 2 1 2 4 2 6 5 4 9 6 4 2 2 2 6 12 13 22 20 17 15 14 14 13 13 12 11 11 11 10 11 11 11 11 11 11 12 12 12 12 12 13 13 12 12 12
4 3 1 2 2 4 4 5 5 5 12 4 4 3 3 4 2 14 5 21 21 18 17 15 15 14 14 13 13 12 11 11 11 11 11 12 12 13 13 13 13 14 14 14 14 13 13 13 12
5 2 2 2 7 4 4 2 6 10 4 3 5 6 2 1 11 9 20 22 21 19 16 16 15 14 14 13 12 12 11 11 11 11 10 11 12 13 13 13 13 14 13 13 14 14 14 13 12
3 1 2 2 5 3 4 1 9 11 6 6 5 6 3 3 8 18 23 23 23 20 17 16 16 15 14 13 12 12 11 11 10 9 8 8 12 14 13 12 13 14 15 16 15 16 16 14 13
2 1 3 6 5 3 3 5 7 5 5 6 5 8 4 4 16 21 21 21 20 21 18 16 16 15 14 13 12 12 11 11 10 7 9 14 14 13 14 14 14 15 15 16 16 17 17 16 14
4 3 4 4 3 4 4 9 9 9 7 6 9 7 2 8 14 21 19 19 19 18 17 16 15 15 14 13 13 12 11 9 10 11 12 11 13 13 13 14 14 15 16 16 16 16 15 15 15
3 3 4 4 5 6 2 8 5 8 6 3 5 6 5 12 21 20 19 19 18 17 16 16 15 15 15 13 13 13 11 11 11 10 12 12 13 13 14 14 14 15 15 15 13 12 12 13 14
3 3 7 8 7 4 3 6 1 0 5 2 6 3 1 27 26 22 20 17 17 16 16 16 17 17 16 13 11 12 12 12 10 12 10 11 13 14 12 13 14 14 15 14 12 12 12 11 12
4 5 9 5 4 4 4 3 6 4 4 4 4 5 19 28 29 25 23 20 20 19 19 17 17 18 17 16 14 14 14 13 11 11 12 13 14 12 12 13 14 15 14 15 15 15 14 13 13
4 9 5 5 5 3 3 3 5 7 5 9 16 14 21 26 26 24 23 25 25 22 20 20 19 19 19 21 19 18 15 13 12 12 11 11 11 11 12 13 15 17 16 17 16 17 18 17 16
5 7 6 5 6 6 6 5 5 9 8 4 8 19 21 22 23 27 25 24 23 23 23 23 22 23 21 18 20 19 17 15 14 12 10 10 12 13 14 16 17 16 16 16 17 18 18 18 18
6 4 6 5 7 4 6 6 5 8 8 5 8 20 22 22 24 24 22 21 22 23 24 21 25 25 22 21 19 18 17 15 14 13 11 10 12 14 16 16 15 15 14 13 14 14 15 16 17
3 11 12 7 6 5 7 4 6 2 2 2 11 17 19 22 27 23 22 23 24 23 25 23 26 26 25 23 20 18 16 16 15 14 12 11 12 15 16 16 14 12 11 10 10 11 12 14 15
5 8 4 8 6 6 4 4 7 2 3 6 9 11 13 16 24 28 31 28 26 23 24 26 29 27 25 21 19 18 17 16 15 16 14 12 13 14 15 14 12 10 8 7 7 8 9 11 13
5 6 11 6 8 2 7 14 5 4 8 8 8 8 8 11 21 21 23 22 23 20 25 26 29 28 25 20 20 18 16 15 15 15 15 14 14 14 13 11 9 7 5 4 4 5 7 10 12
4 13 12 4 7 5 6 4 4 3 6 9 8 9 9 10 10 16 18 24 30 37 36 30 30 29 25 22 19 18 17 15 14 15 16 15 14 13 12 10 8 6 4 1 1 4 6 7 9
8 8 5 16 6 2 6 3 2 2 4 7 8 7 10 12 14 17 22 24 25 26 29 29 30 26 25 23 20 19 17 15 15 16 17 15 14 13 12 10 8 7 5 4 3 3 4 5 8
4 5 11 5 7 6 9 6 8 5 3 6 8 10 11 13 7 9 18 23 21 22 27 28 31 27 27 26 24 21 19 17 16 16 16 16 15 14 12 11 10 9 8 7 6 5 4 4 7
19 14 12 2 3 4 6 10 5 7 6 8 10 10 9 6 9 11 15 18 21 25 25 27 28 28 29 28 27 22 20 18 18 17 17 16 15 15 14 13 12 11 10 9 9 8 6 5 2
16 14 10 8 4 2 5 4 6 6 10 7 7 7 7 9 9 9 11 15 17 22 26 26 30 30 27 28 24 15 17 13 16 18 18 18 17 16 15 15 14 14 14 13 12 11 9 5 4
12 11 9 7 6 5 1 3 4 6 9 8 10 8 8 7 6 6 11 14 16 18 24 26 28 27 29 28 24 19 20 16 19 20 19 17 16 17 17 17 17 16 15 14 13 12 11 9 6
8 3 6 2 2 2 1 2 4 1 5 10 9 7 7 5 4 8 11 14 14 18 22 24 25 28 29 27 23 19 15 15 6 12 12 14 14 15 15 16 16 15 14 14 13 12 10 9 7
9 6 7 1 2 3 4 4 4 5 5 0 3 7 7 4 1 3 7 12 14 18 22 23 26 28 26 23 20 17 13 9 8 7 7 7 7 8 8 9 10 10 10 9 8 8 9 10 11
3 5 0 2 3 3 0 4 9 3 2 2 5 8 4 1 3 5 8 13 15 21 23 25 25 24 20 17 15 13 11 10 9 7 7 6 5 4 4 4 4 5 5 5 6 8 10 12 14
1 7 3 3 4 3 2 5 4 0 2 3 1 4 1 0 1 4 7 12 16 20 22 21 20 17 14 12 10 9 9 7 5 4 4 4 4 5 5 5 4 4 4 5 8 10 13 15 16
2 6 5 4 2 1 1 5 4 1 2 2 3 3 2 2 3 5 7 11 14 16 17 18 17 14 11 10 10 9 9 9 8 6 6 5 4 4 4 4 4 5 7 10 12 14 16 17 18
4 5 2 3 1 1 2 4 4 2 6 5 4 4 3 4 6 7 9 12 13 17 18 18 17 18 17 15 13 12 10 8 7 6 5 4 4 4 5 6 7 8 10 11 14 16 18 18 17
2 1 5 4 2 1 3 3 4 2 5 9 6 4 4 6 7 8 10 13 17 20 21 21 20 18 16 13 11 9 8 7 6 5 4 3 4 5 6 7 9 10 13 15 16 17 17 17 18
3 1 3 3 3 2 1 4 1 2 3 8 8 6 6 7 8 9 12 15 16 17 18 18 16 15 12 9 8 7 6 5 3 3 3 4 5 6 8 9 11 15 17 17 17 18 17 19 20

GFSSGP_925_spd_093.txt.gz
Wind_Speed
3 6 6 7 6 6 11 7 6 3 2 2 1 3 3 7 10 4 13 10 18 18 17 15 15 12 11 10 9 9 9 9 8 7 8 10 10 11 11 12 12 11 11 12 13 13 13 12 13
5 8 5 6 7 11 9 11 6 6 4 4 2 3 5 7 10 12 13 14 19 17 16 14 15 13 11 10 9 9 10 10 9 8 9 9 10 11 12 12 13 13 12 13 13 12 13 12 13
6 9 7 5 12 12 11 4 4 4 6 8 4 4 3 5 8 15 14 19 18 16 16 16 15 14 12 11 11 11 11 10 10 10 10 10 11 12 13 13 13 13 13 13 12 12 13 13 11
8 6 6 10 17 13 13 10 3 6 6 5 3 5 6 5 12 10 20 20 18 16 15 15 15 14 13 12 11 11 11 10 10 10 11 12 13 13 13 13 12 14 14 14 14 13 13 12 12
12 7 11 15 20 18 13 9 1 9 9 9 7 8 5 11 11 19 21 19 18 17 16 16 16 15 14 12 12 11 10 10 9 9 10 12 13 12 12 13 14 14 14 15 15 16 14 13 12
7 7 13 15 19 17 14 9 7 8 11 7 7 10 8 13 17 19 20 19 18 18 17 17 16 15 14 13 12 11 11 9 7 7 9 14 14 14 13 13 14 14 14 15 15 16 14 13 12
14 11 16 19 18 15 13 8 10 11 11 9 6 12 9 14 19 20 20 19 18 18 18 17 16 15 14 13 12 11 10 9 11 15 15 14 14 13 13 13 13 13 14 14 15 15 14 13 13
10 13 21 19 18 19 11 5 6 10 11 4 8 7 9 15 23 21 19 19 19 18 18 18 17 16 15 13 14 11 10 10 12 12 11 13 14 13 12 13 13 13 13 11 11 12 12 13 13
10 11 17 22 20 15 13 4 8 9 4 8 9 6 14 27 25 23 21 20 20 19 19 19 19 18 17 14 13 11 12 13 8 9 11 12 9 10 10 12 12 12 11 11 12 13 14 14 14
12 14 23 18 16 16 15 12 10 5 11 13 11 5 21 28 27 24 22 21 21 20 20 19 19 19 16 16 12 12 13 9 8 8 8 8 8 10 11 11 11 12 14 15 15 17 14 11 11
17 20 19 17 18 18 17 14 14 13 14 15 17 12 20 25 25 23 22 23 22 22 20 20 19 19 18 15 16 11 12 9 8 9 7 8 8 9 7 7 7 7 8 8 10 10 12 13 12
21 20 19 22 21 14 19 19 16 14 14 7 12 16 19 21 20 23 23 22 23 23 22 20 20 20 15 15 13 10 10 9 9 8 7 7 6 7 8 7 8 7 7 8 9 10 11 12 12
18 18 19 19 19 19 16 20 21 16 14 6 3 7 19 20 20 22 22 21 22 23 22 21 20 19 19 12 11 11 9 8 8 8 7 7 7 7 8 9 8 7 7 7 8 8 8 8 10
12 12 15 19 21 18 22 20 19 20 11 10 12 14 16 18 21 22 23 22 22 22 23 22 20 19 17 13 12 10 9 8 8 8 7 7 7 8 9 9 8 7 6 6 6 5 6 6 7
13 17 17 19 18 23 18 23 28 22 12 15 13 15 16 18 22 21 22 22 23 23 23 23 21 18 17 14 12 12 10 8 7 7 7 7 7 9 9 9 8 6 6 5 4 4 3 4 4
16 19 18 16 21 20 21 29 23 23 18 14 16 14 15 18 19 19 18 19 20 21 23 20 18 17 14 16 13 17 14 7 5 6 8 8 9 9 9 8 7 6 5 3 2 1 1 3 4
12 16 20 20 19 19 22 31 21 22 24 17 16 16 15 15 15 21 15 16 22 21 21 19 18 17 14 17 17 18 13 16 14 11 9 10 10 10 9 8 7 6 4 2 1 1 3 4 5
16 17 18 17 18 19 23 23 19 22 13 17 18 16 16 18 22 27 27 32 23 20 17 17 17 15 16 15 18 18 13 12 12 11 11 11 11 11 9 7 7 6 3 2 2 3 3 4 6
19 20 23 20 19 22 21 22 21 22 11 15 15 17 15 17 18 25 27 27 24 19 13 18 21 24 19 21 17 16 17 14 12 11 11 12 11 11 9 7 7 6 5 4 4 4 5 7 6
18 20 21 20 20 22 21 23 22 23 16 16 17 17 18 16 17 20 27 28 27 32 18 25 22 25 18 22 16 15 16 14 11 11 11 12 11 10 9 8 7 8 7 6 7 7 7 8 6
16 17 19 19 20 22 20 23 20 23 17 15 16 14 14 16 18 18 21 26 23 20 23 25 26 24 21 20 17 14 14 12 12 11 12 12 11 10 10 10 9 9 9 9 9 8 8 10 10
16 14 16 18 17 15 17 15 20 21 21 17 16 16 16 12 7 13 18 24 25 19 20 23 22 22 21 21 20 19 17 15 12 12 12 11 12 11 11 11 11 10 10 10 10 10 10 10 11
15 15 14 17 17 19 17 14 18 22 22 21 19 17 15 11 11 9 9 18 17 19 22 22 20 20 20 22 19 20 15 11 11 11 12 11 11 12 11 10 10 10 10 11 11 11 11 11 12
16 12 11 13 14 11 19 11 19 16 24 22 23 20 18 13 13 10 10 11 13 16 18 18 19 18 19 21 19 17 14 13 12 12 12 11 10 8 8 8 9 9 9 9 8 8 9 10 11
8 7 2 4 4 6 16 8 8 7 8 2 17 17 13 13 10 10 11 10 13 12 14 16 18 20 20 20 18 15 14 12 12 11 9 8 7 6 6 5 5 4 3 3 3 5 7 9 11
14 1 3 4 2 4 4 6 11 6 10 13 8 9 11 9 9 9 10 12 13 15 16 18 21 19 21 19 16 14 12 10 8 7 5 6 5 5 4 3 2 2 2 3 4 6 8 10 12
7 6 3 4 10 3 6 7 6 9 9 7 10 11 10 9 9 9 11 13 15 16 16 19 20 20 18 16 15 12 10 8 7 7 6 6 5 5 4 2 2 2 3 5 7 9 11 13 14
4 11 2 3 3 2 9 20 7 9 8 8 9 11 10 9 10 9 10 14 15 16 18 18 18 18 18 15 12 10 10 10 10 8 7 6 5 4 2 1 2 4 6 8 10 11 13 15 16
1 3 1 7 1 4 4 8 10 11 6 8 10 10 10 11 11 11 11 15 16 17 18 18 18 17 17 15 13 12 11 9 8 7 5 4 3 2 2 3 5 7 9 10 12 15 16 18 18
6 7 7 3 8 7 4 6 9 10 7 10 11 11 11 11 11 11 14 16 18 19 18 18 18 18 15 14 13 11 9 8 6 5 4 2 2 2 4 6 7 9 11 12 15 16 17 18 20

GFSSGP_925_spd_096.txt.gz
Wind_Speed
2 2 9 7 2 5 10 13 3 5 0 7 5 1 6 14 6 4 21 14 27 23 20 19 19 17 15 13 13 12 12 12 12 12 12 13 12 12 13 13 14 14 14 14 15 15 13 15 17
5 8 6 2 4 7 11 16 8 5 9 7 6 1 4 9 8 11 13 22 24 25 20 19 17 15 14 12 12 12 12 12 12 12 12 13 13 14 14 14 14 14 14 14 14 15 15 14 15
5 8 2 4 7 10 13 7 5 11 9 6 5 4 4 5 14 17 24 23 23 22 23 20 17 15 14 13 13 13 13 13 13 13 13 14 15 15 15 15 15 15 15 15 15 15 14 14 15
6 3 4 6 15 15 20 15 5 9 7 7 5 10 6 9 17 18 25 24 22 25 24 20 19 17 16 15 14 14 13 13 13 14 14 15 14 15 14 15 16 16 16 17 16 15 14 15 14
13 3 6 9 16 19 19 8 4 8 9 8 5 9 8 15 24 27 26 25 24 25 21 21 19 17 17 15 14 13 13 12 12 13 13 15 16 15 15 16 16 16 17 17 16 16 15 14 14
3 3 6 12 17 19 20 15 15 20 11 9 8 10 7 18 23 25 23 24 22 24 22 21 19 18 16 15 14 13 13 10 10 11 13 16 16 16 16 15 15 16 16 16 16 15 15 14 14
6 7 10 15 17 18 15 12 6 6 8 9 6 12 10 14 23 24 23 22 23 22 23 21 20 18 17 15 14 14 11 14 16 18 17 16 15 15 15 15 14 14 14 14 14 15 15 15 15
3 4 13 15 14 19 18 15 13 27 3 10 9 6 9 15 26 24 23 23 23 24 22 21 20 19 18 17 15 13 14 16 17 16 15 15 15 15 14 14 13 13 12 12 13 15 16 16 15
6 5 11 17 17 18 18 9 10 9 9 4 3 7 22 34 29 25 23 23 23 24 25 25 22 21 19 18 15 14 14 14 13 13 15 14 16 14 12 13 12 12 13 14 16 16 14 16 17
7 8 14 13 14 15 18 15 9 5 24 6 5 14 32 32 28 23 21 20 23 23 27 28 25 25 23 20 16 14 14 14 11 13 12 11 17 13 10 11 14 17 18 18 18 16 15 14 14
9 17 13 16 17 16 18 18 3 6 6 4 10 14 21 23 22 21 22 23 24 23 26 28 27 29 23 22 19 14 15 15 13 8 12 11 10 6 9 12 13 13 12 13 13 15 15 13 15
16 17 16 16 17 18 18 17 16 18 14 4 8 16 18 16 16 19 21 24 26 24 25 25 26 25 24 27 19 16 15 12 13 10 12 11 11 12 7 10 9 9 10 11 12 12 13 13 14
14 12 16 16 14 14 14 17 15 13 11 9 7 2 17 15 14 21 23 25 27 24 24 23 25 21 24 26 20 14 18 14 13 11 10 10 10 10 12 10 9 10 9 9 10 10 10 10 12
10 15 14 11 14 15 16 14 16 15 9 6 6 8 12 15 15 20 22 24 28 27 25 24 24 26 18 18 20 16 16 15 14 12 11 9 10 12 11 12 10 9 8 8 7 8 8 8 8
9 14 12 12 12 14 12 18 23 16 16 11 12 11 7 16 23 19 24 23 27 29 28 26 21 31 24 17 19 18 18 17 14 13 11 9 11 11 12 11 11 8 7 7 6 6 6 6 6
14 15 13 7 16 18 12 26 18 11 15 17 14 12 12 15 17 23 26 28 26 29 30 27 25 21 25 25 23 24 21 18 17 17 14 14 12 12 12 12 12 9 8 6 4 4 3 3 3
10 11 14 13 13 10 19 23 13 14 15 18 10 12 12 10 15 23 26 26 24 26 30 28 30 19 23 23 22 22 21 17 16 10 13 13 15 13 12 10 9 8 6 4 4 1 1 3 3
13 15 16 15 13 11 13 20 15 11 16 14 12 16 12 12 13 19 24 26 24 23 30 32 28 25 24 23 21 21 16 15 12 13 13 13 15 14 11 10 10 9 6 5 3 2 1 2 3
15 14 17 18 18 18 17 15 15 15 11 13 13 12 13 13 10 20 21 25 27 28 30 35 33 27 24 24 23 14 14 16 17 15 13 13 13 15 12 12 10 10 8 6 7 3 3 3 3
16 18 16 15 16 15 17 19 16 12 13 12 7 6 10 8 17 18 26 29 31 29 29 35 33 31 28 28 25 21 22 18 17 16 14 15 14 15 15 13 11 10 10 9 6 5 6 6 5
15 16 15 17 14 17 14 18 17 13 14 13 10 9 8 12 11 18 23 31 28 24 20 27 29 31 30 28 22 21 20 18 17 18 17 17 15 14 14 13 12 11 9 8 7 8 8 8 10
12 17 14 11 15 8 13 12 15 16 16 16 13 9 6 9 7 12 9 16 23 19 16 25 28 27 24 22 27 29 26 23 21 20 19 18 16 16 15 13 11 10 9 11 10 9 11 9 9
15 4 9 16 14 11 15 9 12 13 17 17 13 11 11 8 6 7 14 16 21 20 26 25 26 27 22 24 23 22 24 21 19 18 18 17 17 15 13 11 10 11 11 9 8 7 3 6 9
12 6 8 10 5 9 12 3 6 9 16 15 9 10 10 12 10 7 8 22 20 25 25 24 25 25 21 25 22 22 20 21 22 20 19 17 16 14 11 10 10 8 6 6 5 5 7 9 7
6 1 4 3 1 5 8 5 11 18 19 3 18 13 13 13 9 7 6 10 16 18 23 22 26 22 22 21 20 22 20 20 20 18 17 16 13 12 10 7 5 6 8 6 6 5 5 5 6
13 4 2 4 2 3 5 5 4 18 16 14 18 13 15 10 9 8 8 11 15 13 14 17 20 25 20 21 19 19 19 18 17 16 12 16 13 13 12 10 7 4 2 2 2 3 5 6 9
7 4 6 3 4 3 4 5 9 17 3 9 15 9 9 9 8 9 8 15 16 14 13 16 21 22 19 19 19 17 16 13 11 11 9 11 11 10 10 7 6 5 4 4 6 7 9 10 11
3 8 3 1 4 5 5 12 7 7 7 10 12 10 9 10 9 7 7 13 15 16 15 19 20 20 21 19 17 16 14 12 12 12 12 10 11 10 7 6 5 5 5 5 6 8 9 11 13
1 3 2 2 5 3 3 6 9 8 8 11 11 9 8 8 7 8 9 19 20 19 22 20 20 19 18 17 18 18 17 14 13 14 12 11 9 7 6 4 4 5 6 7 9 11 13 14 15
6 5 4 2 4 4 3 5 8 9 12 12 10 8 7 7 8 8 12 17 18 18 18 18 19 19 21 19 18 18 15 14 13 11 10 7 5 4 4 5 5 6 7 8 10 12 13 16 17

GFSSGP_925_spd_099.txt.gz
Wind_Speed
4 2 2 3 4 3 5 8 3 6 3 3 5 8 7 4 2 3 18 21 29 31 27 24 23 20 19 17 16 16 15 15 15 15 15 14 14 14 14 14 15 15 15 15 15 17 17 18 18
5 6 5 1 3 1 6 7 14 11 6 9 7 5 3 2 3 7 18 31 28 33 28 26 24 20 18 18 17 16 14 15 15 15 14 15 15 15 15 15 15 15 15 16 16 17 16 18 19
6 5 2 4 4 6 6 5 9 1 4 6 5 5 5 5 4 14 25 33 27 31 28 25 23 20 18 17 17 17 16 16 15 16 16 16 16 16 16 15 16 16 16 17 17 16 15 17 18
1 3 3 2 10 9 13 12 9 5 7 4 6 9 4 11 20 19 36 31 30 31 27 23 21 20 19 18 18 18 17 17 16 16 17 17 17 16 17 16 16 17 18 17 17 17 15 17 17
3 1 2 4 12 12 15 8 5 3 4 11 4 4 4 3 26 36 34 35 38 31 27 24 21 20 20 19 18 18 17 17 17 18 17 19 17 18 17 16 16 16 17 17 17 15 14 16 17
1 1 3 7 12 10 13 4 2 4 8 10 5 6 3 22 34 34 32 36 36 33 28 24 22 21 20 20 18 18 16 16 16 16 19 18 17 17 16 16 15 15 16 16 16 17 17 17 16
6 1 4 6 10 13 11 3 6 5 4 9 16 5 6 10 32 34 34 35 32 30 28 26 24 22 21 20 19 17 16 15 16 18 18 18 17 16 15 15 14 14 14 16 17 17 17 17 16
4 2 3 4 8 9 7 5 9 8 5 1 6 3 7 16 35 33 35 36 31 28 29 27 25 24 22 22 20 18 19 21 20 19 17 18 17 16 14 13 13 13 14 15 17 19 20 18 18
0 2 7 8 9 7 16 5 7 4 4 2 6 15 12 35 37 34 32 33 34 28 27 27 26 25 24 23 19 20 20 19 17 14 15 17 16 13 13 13 13 14 16 18 17 17 18 17 18
4 5 5 5 9 10 15 6 3 3 3 2 7 6 36 33 31 27 28 28 30 32 30 28 27 27 25 22 20 21 19 16 18 20 20 17 13 11 12 15 18 19 19 17 17 17 17 16 17
5 10 5 10 15 16 15 14 5 6 5 8 5 3 23 26 20 22 23 28 33 36 35 31 30 29 27 24 21 21 20 19 17 20 12 21 14 12 16 18 16 17 15 16 17 17 16 17 16
7 8 9 12 17 17 15 5 4 7 6 11 10 11 16 19 16 19 21 26 32 35 37 36 32 34 29 25 24 24 22 20 14 16 20 16 12 11 15 15 13 12 14 14 14 14 14 15 14
5 6 7 8 10 11 11 5 8 8 7 13 15 17 13 9 8 15 22 29 32 32 36 37 37 35 32 27 27 24 24 23 18 23 18 13 13 13 13 14 11 12 12 11 12 12 12 13 13
6 11 8 8 10 9 11 6 4 1 8 8 6 19 19 18 15 18 22 28 31 31 36 35 36 35 33 29 28 28 26 23 20 18 17 15 15 16 14 14 13 12 10 10 10 10 10 9 10
8 7 10 8 7 9 9 13 19 1 7 10 11 12 13 19 30 29 35 34 36 37 33 37 36 31 33 31 29 29 25 21 20 18 16 17 18 18 17 15 14 12 11 9 10 8 8 7 10
5 4 4 6 6 9 7 25 6 6 8 8 11 10 9 17 20 30 30 33 35 40 36 37 36 37 35 32 31 27 25 21 18 19 18 18 17 18 18 16 13 12 13 9 7 6 6 5 3
4 5 7 7 4 5 6 19 12 9 10 15 9 13 13 10 12 21 35 34 38 42 37 36 35 34 34 32 30 29 23 17 17 19 18 17 18 19 17 18 16 12 11 9 6 4 3 3 2
10 7 7 7 6 10 10 10 14 10 12 15 12 13 14 15 17 26 34 36 37 40 37 39 33 27 29 33 33 29 26 21 19 17 17 18 19 19 18 17 15 13 11 9 7 4 2 1 2
6 8 10 12 13 8 14 15 10 9 11 9 8 8 14 15 11 26 29 38 35 34 38 48 40 39 40 34 32 30 29 25 22 18 18 18 19 19 18 16 16 13 11 9 6 5 4 1 1
8 10 10 10 7 7 13 14 11 12 8 14 12 10 11 8 8 16 30 33 36 33 34 40 45 42 41 38 36 34 29 25 22 20 19 16 18 20 17 17 15 14 12 9 9 7 5 3 2
7 7 8 13 9 3 7 10 9 14 8 12 9 6 6 9 9 2 22 33 32 31 37 39 41 37 36 34 34 27 24 20 22 22 20 20 17 20 18 16 14 14 12 11 9 8 8 7 4
9 4 8 10 5 5 2 11 8 9 14 8 9 9 10 8 5 10 10 26 31 30 36 28 29 32 35 36 34 27 30 23 26 27 24 22 19 16 17 16 14 13 12 11 10 9 9 9 9
9 16 5 6 5 2 8 2 7 5 10 7 9 9 14 15 14 11 18 23 25 32 31 29 32 36 35 34 30 27 23 24 22 24 23 22 19 18 18 15 14 13 10 9 10 10 7 8 8
1 4 8 3 2 4 5 5 5 2 3 10 14 9 13 9 7 7 11 22 26 29 26 28 31 29 28 27 28 32 31 27 25 25 23 22 21 18 15 14 14 12 12 10 9 8 7 6 6
5 4 3 4 2 2 9 3 5 11 10 10 18 13 10 12 9 12 9 10 22 24 28 30 29 25 29 29 27 25 27 28 25 25 25 23 21 19 15 15 12 10 9 8 7 7 7 6 6
6 4 1 3 5 4 9 7 6 12 11 14 8 8 12 8 6 9 9 15 18 21 23 22 26 24 21 26 20 22 19 21 26 25 22 21 22 19 15 13 10 10 8 7 6 5 5 5 5
5 3 6 2 3 3 2 5 8 13 6 14 12 17 13 11 8 8 9 18 21 19 18 24 22 22 23 23 21 17 22 23 20 18 20 19 19 19 16 13 11 8 6 5 5 4 6 7 9
2 7 1 2 5 5 7 11 6 5 7 12 11 7 12 7 6 7 6 13 16 18 20 23 26 24 25 25 22 21 22 22 21 21 22 20 18 15 11 9 9 7 6 4 3 3 3 6 8
4 3 3 3 1 3 4 5 6 9 9 10 6 11 11 4 6 8 10 20 23 23 24 23 25 26 23 21 19 19 18 17 17 17 16 15 12 8 8 7 6 5 4 4 5 6 7 9 11
3 3 3 3 3 0 1 3 6 9 8 9 8 7 6 8 8 8 12 20 23 24 24 23 22 22 23 23 22 20 19 18 17 15 12 8 7 6 5 5 5 4 4 5 6 7 9 12 13

GFSSGP_925_spd_102.txt.gz
Wind_Speed
5 2 1 1 3 3 4 6 3 9 7 5 6 7 9 4 4 4 9 16 31 32 28 26 24 21 20 19 20 19 19 19 18 17 16 15 15 15 15 15 14 14 14 16 17 18 19 20 22
5 1 1 1 3 1 5 4 6 10 6 2 9 5 4 3 3 9 15 28 33 32 27 26 24 21 18 18 18 18 17 17 16 15 15 15 16 16 16 15 15 15 15 18 18 17 18 20 20
6 3 3 3 3 6 5 3 2 9 4 4 4 6 6 8 5 18 14 35 35 32 28 25 22 20 20 18 17 17 17 17 17 17 17 16 16 17 16 16 16 16 16 17 17 17 18 20 21
1 2 2 3 9 6 7 3 9 9 4 11 6 6 4 5 19 16 35 34 36 33 30 26 22 19 19 19 18 17 18 17 18 18 18 17 17 17 17 17 17 17 17 17 16 17 19 23 24
2 2 2 4 8 5 9 4 4 6 3 6 4 6 4 7 17 34 35 33 36 33 29 25 22 19 19 20 19 18 18 18 19 20 19 18 18 17 16 17 16 17 16 16 15 17 19 21 21
2 1 2 7 9 4 4 3 3 4 2 1 6 5 3 8 32 35 34 35 34 33 28 24 22 22 21 21 20 19 18 19 19 21 19 17 17 16 16 16 16 17 17 16 17 17 18 19 20
4 1 4 3 3 4 3 3 3 1 1 2 3 2 2 2 23 37 37 34 35 33 29 25 25 24 22 21 21 20 20 18 20 20 19 18 17 16 15 15 15 16 17 16 16 17 17 18 19
4 3 3 4 6 6 4 3 3 1 3 4 2 3 4 6 16 33 36 35 34 33 31 29 27 25 24 22 22 19 19 19 20 19 18 18 17 15 14 14 14 15 16 17 18 19 17 18 16
2 2 4 4 2 3 3 2 3 2 1 2 5 4 5 21 21 25 29 27 29 30 32 30 29 27 26 23 22 21 22 22 20 18 18 17 15 15 15 14 14 15 16 17 18 18 18 16 16
2 3 4 3 5 5 7 3 3 2 1 3 4 4 14 24 22 22 22 24 25 29 32 31 30 29 27 23 24 26 23 22 21 19 17 16 14 13 16 17 18 16 15 16 17 17 17 15 16
3 6 2 4 8 9 13 10 5 6 4 8 10 9 8 14 16 22 22 25 28 36 33 32 31 30 29 27 26 23 22 23 22 20 19 16 13 15 21 22 19 18 17 18 17 18 18 16 15
5 8 7 5 8 9 12 7 4 8 7 9 8 9 15 16 14 16 23 25 26 34 36 34 34 33 30 29 28 24 23 26 24 20 18 17 17 20 20 19 18 19 18 18 18 18 16 15 15
4 3 7 6 8 6 7 6 5 7 5 5 5 12 18 18 17 7 15 22 26 29 33 39 38 35 31 30 29 27 25 24 23 19 22 18 17 20 19 16 17 16 16 15 15 16 15 14 13
5 8 8 5 8 5 6 7 2 4 7 6 7 9 13 17 25 24 24 28 33 33 35 39 39 37 33 32 32 30 26 23 22 23 22 20 15 19 20 17 16 16 15 14 14 13 12 13 11
7 6 7 7 5 4 3 14 3 7 12 13 13 11 15 20 27 35 49 35 40 38 41 35 38 37 36 34 33 30 28 26 25 24 22 20 16 18 21 19 17 16 14 13 13 12 12 12 10
4 3 4 7 5 4 6 6 10 9 6 10 10 13 17 19 26 40 39 35 37 37 39 38 35 39 38 36 34 33 34 30 25 24 20 18 18 18 20 19 18 16 15 13 12 11 9 9 8
3 5 6 6 4 4 5 4 7 9 7 10 10 11 15 19 22 26 31 33 36 37 39 36 37 42 41 38 38 38 34 29 24 21 20 20 22 21 20 20 18 17 14 12 10 8 7 6 5
6 7 7 7 4 4 10 7 7 9 6 10 10 9 14 19 23 26 31 34 36 36 36 39 44 44 45 42 42 39 33 25 23 20 21 22 21 22 20 20 19 16 14 11 9 8 6 4 2
6 5 9 9 7 7 11 10 8 9 6 9 9 9 10 16 22 24 31 38 39 37 37 47 47 46 45 45 40 36 33 28 23 23 21 21 23 22 22 22 18 15 14 12 9 8 6 3 2
7 7 11 8 5 7 9 16 7 7 8 8 9 8 12 6 8 14 27 34 36 37 44 44 47 49 45 43 37 34 35 30 26 21 21 22 23 23 22 21 18 16 15 13 11 9 7 4 1
5 7 6 11 5 5 5 15 5 6 6 6 9 7 11 9 11 15 21 33 34 32 37 37 43 45 44 42 38 28 29 24 20 20 22 23 23 23 22 20 18 17 15 13 12 10 8 6 5
8 6 12 14 7 6 2 11 4 6 9 5 8 9 8 7 12 16 20 22 25 26 28 30 38 42 41 42 36 34 28 25 25 31 27 24 22 23 21 20 18 18 16 13 11 10 10 9 8
10 12 8 12 13 4 5 3 6 4 5 7 9 9 9 9 18 19 20 30 36 28 17 26 32 32 35 35 34 34 29 27 25 29 25 23 22 21 21 19 17 16 15 14 13 12 11 11 10
13 6 13 3 1 3 7 4 5 4 8 11 13 10 9 6 11 13 20 28 28 31 27 28 28 25 26 31 30 30 24 22 22 27 25 25 24 22 19 18 17 15 13 12 13 12 10 8 7
5 6 4 5 4 3 11 5 5 7 10 7 13 10 7 8 0 8 14 15 21 26 24 27 28 21 27 27 27 25 23 24 26 26 25 25 23 21 21 18 15 14 13 12 11 9 8 6 5
4 3 1 3 5 5 5 3 5 13 8 7 11 10 12 13 9 10 9 17 18 19 21 22 24 22 23 22 30 25 20 19 25 23 24 24 21 19 17 17 15 13 11 10 8 7 5 3 2
3 4 2 1 3 4 2 2 3 4 9 10 13 14 11 10 9 12 11 12 10 13 17 18 20 22 25 25 20 19 18 25 22 20 19 21 19 18 18 17 15 12 8 7 5 3 2 3 4
1 6 1 2 5 5 6 4 5 4 4 7 5 7 10 6 7 8 7 13 19 18 21 22 22 22 22 20 19 18 18 20 18 19 20 19 19 19 16 13 11 9 7 4 3 2 2 3 4
3 3 1 4 1 3 4 4 6 4 0 1 6 7 6 6 7 8 8 16 20 22 24 24 24 23 24 23 24 24 23 22 21 21 20 21 18 15 11 9 8 6 4 3 3 2 2 4 6
4 3 3 3 6 0 1 4 5 5 6 6 7 8 4 3 9 9 12 16 20 21 22 23 24 26 24 24 25 24 23 22 21 20 16 12 11 9 6 5 4 3 3 4 4 5 6 9 11

GFSSGP_925_spd_105.txt.gz
Wind_Speed
4 2 1 3 2 3 3 6 3 7 8 3 1 3 9 4 5 5 8 14 30 33 28 27 23 20 19 18 18 18 18 17 17 17 16 14 14 14 14 13 13 13 18 17 16 17 18 20 20
4 1 2 2 3 1 5 4 4 5 7 5 5 6 4 3 3 8 15 19 31 32 29 27 24 21 18 20 18 17 18 18 16 14 13 13 14 14 14 14 13 12 17 17 16 17 17 20 21
3 3 2 3 4 6 5 5 2 4 6 4 3 4 3 4 3 16 9 31 33 32 31 28 26 23 20 19 19 17 15 15 14 15 15 14 15 15 15 15 14 16 17 17 17 16 18 21 21
3 2 3 2 8 6 6 4 5 14 1 6 2 4 2 5 8 11 29 35 34 31 30 27 25 22 19 19 18 17 17 15 16 16 17 17 15 16 16 16 15 16 16 17 18 19 22 21 20
3 2 2 3 7 4 2 3 8 13 2 5 5 3 2 4 9 24 32 35 36 31 28 26 23 20 19 19 19 19 18 18 17 18 18 18 17 16 17 17 15 16 16 17 18 19 19 19 19
2 2 3 8 6 1 2 4 3 3 2 2 3 2 2 11 24 26 27 32 34 31 28 25 23 21 20 20 20 20 20 20 20 18 19 17 17 17 16 16 16 16 17 17 18 18 18 18 17
4 3 3 3 2 3 2 2 2 4 3 2 3 2 2 6 19 28 25 28 32 31 27 25 22 21 21 21 20 20 20 21 21 18 18 17 17 16 16 16 16 16 17 17 17 17 18 17 16
4 3 2 3 2 5 3 1 1 3 3 3 2 3 4 5 25 22 26 26 29 29 26 24 23 23 23 21 21 21 21 20 21 18 17 17 16 16 16 16 16 17 17 18 17 17 18 17 15
2 1 3 2 3 3 2 4 2 1 2 3 3 1 9 27 28 24 24 19 22 25 27 26 27 26 24 22 21 21 20 21 21 19 17 16 16 16 17 16 16 17 18 18 17 19 18 17 18
2 3 5 4 4 4 7 2 5 1 3 4 4 2 22 32 27 25 22 20 16 21 27 28 28 27 26 24 21 21 22 24 21 20 17 16 16 15 17 18 17 15 15 16 17 18 17 18 20
1 3 2 3 6 8 9 9 4 4 4 8 8 9 16 23 25 23 23 25 27 27 27 29 29 29 27 24 24 26 24 22 20 19 19 17 17 18 21 21 18 18 17 19 19 20 18 19 19
4 5 1 5 4 5 6 6 5 7 9 9 11 10 16 16 18 23 23 22 23 28 29 30 29 29 26 27 29 26 24 23 22 22 20 17 19 22 22 21 20 21 20 21 19 19 19 19 19
4 2 6 7 9 6 7 9 6 8 11 7 5 13 14 12 13 20 25 23 21 26 30 33 32 32 27 29 29 26 26 25 23 22 19 16 22 23 22 21 21 20 20 18 17 17 17 17 17
3 4 8 7 8 5 8 6 4 3 5 4 6 10 14 15 17 21 24 29 24 29 33 36 35 35 32 32 31 28 29 27 25 21 20 18 21 22 20 20 20 20 18 17 16 15 15 15 13
5 4 7 2 3 5 2 5 5 8 7 9 10 7 10 14 19 25 34 30 36 36 36 40 38 35 35 35 32 30 30 29 26 22 22 20 20 21 20 20 20 19 18 17 16 14 14 13 11
4 3 4 7 4 4 4 6 7 6 4 8 8 7 7 12 23 29 32 34 37 36 30 39 34 32 36 36 35 33 31 29 27 25 24 23 20 19 20 20 20 19 18 17 16 15 15 12 10
4 4 4 6 5 5 4 6 7 9 4 7 8 7 12 11 15 25 28 25 26 37 33 38 32 35 38 38 38 36 32 29 28 28 26 24 22 21 21 20 20 19 19 17 15 13 11 10 9
6 5 5 7 5 5 9 9 12 11 6 8 7 9 8 13 21 28 29 26 27 30 31 35 29 35 42 40 40 36 33 30 29 29 27 24 24 23 21 21 19 19 18 16 14 12 11 9 6
6 4 6 9 9 5 8 8 9 10 8 8 8 7 8 10 17 30 26 33 27 32 32 35 38 40 44 44 43 37 35 33 31 28 25 24 25 24 23 22 21 20 17 15 13 12 10 7 5
6 7 12 10 6 4 9 11 8 7 7 8 7 8 8 7 9 13 26 28 34 37 39 42 47 43 49 39 37 29 39 32 28 25 24 24 25 24 24 23 22 20 18 15 13 11 9 5 5
6 7 6 10 10 4 7 7 6 4 5 6 5 7 7 10 11 14 19 31 32 33 40 47 51 42 37 44 37 29 34 26 24 21 21 21 24 25 24 24 22 20 18 16 14 12 9 7 7
6 4 9 13 10 6 8 5 5 7 7 5 7 9 10 9 8 13 18 26 33 33 28 27 25 26 36 44 35 40 32 23 20 25 26 19 22 22 23 23 21 19 16 15 13 11 10 9 9
9 11 8 7 7 4 6 2 7 7 7 14 12 13 14 9 8 12 16 29 31 29 28 27 22 20 22 31 30 32 24 25 24 23 18 21 17 19 19 20 20 17 16 14 12 12 11 11 8
10 4 4 4 3 2 4 6 5 4 8 14 11 12 11 7 5 5 10 17 28 31 36 38 33 28 22 27 26 26 24 26 20 20 22 20 20 16 19 20 19 17 15 14 13 12 11 10 9
9 6 4 6 5 6 6 2 6 8 8 9 11 9 9 7 6 7 9 14 22 21 19 20 27 24 29 28 24 27 27 22 12 19 24 25 23 19 20 19 18 16 15 13 12 10 9 7 7
4 3 2 3 5 5 7 7 5 5 6 7 11 10 11 12 8 6 3 5 11 14 14 15 17 20 24 16 19 13 13 18 20 20 23 25 22 24 20 18 15 14 12 12 11 10 8 5 4
5 5 2 3 4 3 3 2 5 9 10 11 12 14 15 13 12 9 7 11 10 13 15 16 16 19 24 20 20 9 17 16 13 15 20 21 20 19 19 17 16 14 13 10 9 8 7 4 2
2 6 2 3 5 5 6 3 5 13 13 12 11 11 10 11 11 11 10 14 17 14 21 22 16 19 19 18 19 16 15 14 13 13 17 18 18 18 18 17 15 13 11 9 7 5 4 4 2
5 4 3 4 1 2 5 4 4 6 9 7 8 7 8 9 9 8 8 12 21 20 23 20 16 17 16 16 14 14 12 12 12 14 15 16 17 18 17 15 13 10 8 5 4 4 4 4 3
3 2 3 3 3 2 1 5 4 5 5 6 6 7 5 7 11 10 9 15 19 18 20 19 18 19 18 18 19 18 17 17 19 20 20 18 17 14 11 10 8 6 5 4 4 4 4 4 6

GFSSGP_925_spd_108.txt.gz
Wind_Speed
3 2 0 2 3 4 3 5 2 4 8 3 2 4 5 4 5 4 7 12 33 36 31 26 23 21 20 19 18 17 17 16 16 16 15 13 13 12 12 12 12 16 16 16 16 18 18 18 18
1 2 2 2 4 1 5 4 7 2 5 7 0 1 5 2 3 6 12 18 33 36 32 27 24 23 21 20 19 18 18 18 17 14 12 12 12 12 12 12 12 16 16 16 15 17 19 20 19
1 3 3 3 3 6 5 5 5 3 7 3 3 4 2 1 3 12 3 28 32 33 31 29 25 23 22 20 20 19 19 17 15 13 13 12 12 12 13 12 16 16 16 15 15 19 19 19 19
4 3 3 2 7 5 4 5 2 7 3 4 2 2 3 5 8 7 23 30 32 30 30 28 25 23 22 20 18 17 16 15 15 15 14 14 14 13 13 14 16 16 17 15 18 19 19 18 19
2 2 1 5 5 4 3 5 6 6 4 2 4 1 3 4 7 19 29 28 29 29 29 27 26 23 21 19 18 17 16 16 16 17 16 15 16 16 14 14 15 17 18 17 18 18 18 17 16
3 2 3 9 5 4 3 4 3 4 1 4 4 1 3 4 20 25 29 30 30 30 27 24 24 21 19 18 18 17 17 17 17 19 18 17 17 16 15 15 14 16 17 17 17 17 17 16 16
5 3 4 3 2 2 2 1 3 3 5 5 3 2 2 3 16 26 28 30 30 28 27 23 22 21 20 19 19 19 19 19 18 19 20 17 17 17 17 17 17 16 16 17 17 16 16 15 15
4 3 2 4 4 4 3 2 1 2 2 1 2 4 5 5 20 26 28 28 28 27 26 24 22 22 22 22 21 21 21 22 19 18 17 16 16 16 16 17 17 17 17 16 17 17 16 16 16
2 1 2 2 2 3 2 5 2 2 3 2 4 3 4 24 26 24 23 23 26 25 25 24 22 23 23 23 22 21 21 20 21 19 18 19 18 19 18 19 18 19 17 18 18 17 17 18 19
3 3 5 4 2 4 6 3 4 3 4 4 2 5 17 24 25 21 23 22 23 24 24 23 23 24 23 23 23 22 20 23 24 22 20 19 18 18 18 19 18 17 16 18 18 17 18 20 22
2 3 3 4 5 5 5 6 4 4 5 8 6 7 12 17 18 20 21 27 32 31 27 25 24 25 24 23 21 22 23 26 22 19 19 19 21 22 22 21 21 20 17 19 19 20 20 21 22
2 6 4 4 3 3 5 4 4 8 9 10 9 10 14 16 17 21 22 24 26 32 32 28 26 26 25 24 24 24 26 24 21 20 19 20 21 23 23 19 20 20 20 21 20 21 21 21 21
3 3 5 7 9 6 6 8 7 8 9 11 4 10 17 16 19 22 24 23 27 29 34 31 29 28 26 23 25 27 26 24 22 23 21 18 21 23 23 21 21 22 22 21 21 20 20 20 19
3 5 8 7 7 5 4 7 2 5 6 9 6 9 13 16 18 20 24 26 28 31 39 35 33 32 29 25 28 28 26 24 24 24 20 19 24 25 23 23 23 23 20 19 19 19 18 17 16
3 4 7 1 4 6 3 6 5 6 5 6 7 3 7 11 20 26 31 31 31 34 33 39 36 34 32 28 30 29 28 26 27 25 21 21 25 25 24 24 23 22 21 20 19 18 16 15 14
4 3 4 7 5 4 0 7 12 7 6 11 7 6 7 10 15 24 27 29 28 26 31 34 36 36 36 32 32 31 30 30 28 26 24 23 25 24 25 25 23 21 20 19 18 17 16 13 10
5 4 4 7 4 4 3 7 8 10 7 8 9 7 5 8 11 19 22 24 26 27 27 32 34 37 39 35 32 33 30 31 31 26 27 25 25 24 24 25 23 21 20 19 18 18 15 13 12
6 5 4 6 5 0 9 11 12 12 7 8 9 8 8 7 15 25 27 22 19 24 26 25 29 34 37 34 32 32 30 31 31 29 30 27 25 24 24 24 23 22 21 20 18 17 15 13 11
6 4 7 10 9 4 7 9 13 11 7 8 8 9 9 8 12 20 25 26 24 25 28 31 30 30 32 32 31 30 31 32 30 30 31 30 27 26 26 24 23 23 22 20 18 16 15 13 11
7 7 8 8 6 4 8 10 15 12 9 7 7 8 8 7 7 9 20 25 27 31 31 34 31 30 33 32 32 25 33 30 28 26 28 28 27 26 25 25 25 24 23 19 18 17 14 7 11
6 5 5 11 8 2 8 6 6 5 5 6 6 5 7 7 10 7 12 24 29 33 36 37 37 35 24 28 26 28 26 23 24 22 22 20 23 25 25 24 24 23 21 19 18 15 14 9 9
7 2 6 7 5 4 6 4 5 10 7 6 9 8 9 11 8 7 11 19 27 35 35 37 40 38 25 31 29 33 25 19 17 27 22 19 20 17 22 22 23 21 20 18 17 15 13 9 9
8 10 2 1 4 3 8 2 6 7 10 16 16 14 14 13 9 10 12 26 31 29 35 37 37 38 35 30 31 32 23 22 21 21 25 25 23 23 19 23 23 22 18 16 15 14 13 11 11
8 3 3 2 3 3 7 4 5 10 15 16 13 13 14 15 7 6 8 13 18 19 23 27 33 29 29 28 27 26 22 15 12 12 19 20 26 23 19 20 21 20 18 16 14 13 12 12 10
8 6 5 6 6 3 6 4 4 17 13 8 13 12 11 7 7 5 4 6 13 18 19 18 19 18 20 22 21 21 16 15 6 17 25 30 27 23 19 18 20 19 16 16 14 14 13 12 11
4 3 3 2 5 5 5 3 5 15 15 12 14 11 12 13 11 10 7 7 11 15 17 15 15 16 20 22 24 27 21 14 15 21 22 26 29 26 16 12 17 17 15 14 13 13 11 9 8
3 4 1 1 0 2 4 4 5 12 18 15 13 14 15 14 11 12 11 12 12 17 16 17 18 17 21 23 18 17 14 26 15 18 22 22 20 20 21 19 17 15 14 14 13 12 11 9 9
5 3 3 3 5 6 4 4 7 14 15 14 13 13 12 11 13 13 11 15 19 19 22 21 19 19 18 25 8 14 18 19 16 12 12 15 17 17 17 18 15 15 15 13 12 11 9 8 7
4 3 3 1 2 1 6 4 3 4 7 11 10 10 11 12 10 10 12 17 22 24 23 21 18 19 15 13 14 13 13 12 10 9 12 12 13 13 16 16 16 13 11 10 9 8 8 8 6
0 2 3 3 5 2 1 5 2 4 3 3 8 9 8 7 8 9 15 17 21 22 21 21 22 20 18 16 16 14 13 12 13 14 13 14 16 16 15 13 10 9 8 7 6 7 8 6 5

GFSSGP_925_spd_111.txt.gz
Wind_Speed
1 2 4 3 1 1 2 4 2 2 3 1 2 3 4 2 4 2 1 7 24 32 25 26 26 24 22 21 20 19 18 18 17 17 16 14 13 13 13 14 15 15 16 17 18 18 19 18 18
1 3 2 2 2 3 4 3 9 6 5 6 3 1 3 2 3 2 9 8 23 28 25 25 27 25 23 21 20 19 19 18 17 16 14 13 13 12 12 13 16 15 15 16 19 19 19 19 18
3 3 1 3 3 9 4 4 5 3 11 3 2 2 1 2 2 12 3 21 27 23 23 23 27 26 24 22 21 20 19 18 17 14 14 13 12 13 13 13 17 16 14 17 18 18 19 19 19
5 2 2 3 9 5 4 3 2 8 5 2 2 1 2 5 5 7 17 24 26 23 21 23 25 24 24 22 21 20 19 17 15 14 14 13 13 14 12 16 18 17 15 19 18 18 18 18 18
3 1 2 5 8 5 5 4 4 8 5 4 5 1 2 4 2 13 23 24 27 25 23 22 23 23 23 22 21 20 18 15 16 15 15 15 14 14 16 16 18 18 18 19 18 18 16 16 17
2 0 3 10 12 5 5 5 5 1 2 3 1 1 1 3 8 18 22 24 24 25 23 22 23 23 22 20 19 17 17 17 17 18 16 15 16 14 14 15 17 17 15 17 16 16 16 16 16
3 2 5 4 3 3 4 1 2 0 3 1 1 2 1 6 9 16 20 21 21 23 23 22 20 20 22 21 19 19 18 19 19 19 18 16 16 16 14 14 16 16 16 16 15 15 14 15 17
3 1 2 3 8 8 6 1 2 2 0 1 1 1 2 5 14 20 21 20 22 23 23 22 19 18 18 18 20 19 19 20 21 22 20 19 17 16 16 16 16 18 16 16 15 15 15 16 17
2 1 2 4 5 4 3 5 1 1 1 2 2 2 1 23 19 19 19 17 19 22 22 22 20 19 18 18 19 19 19 20 20 20 19 18 18 16 16 16 17 17 18 17 15 16 17 19 19
2 2 5 3 3 4 9 7 7 5 9 2 4 4 8 20 24 20 21 20 20 20 21 22 21 20 20 18 18 19 19 18 18 19 20 20 18 17 16 17 17 17 18 17 16 16 18 21 20
1 3 3 5 7 6 5 10 7 8 10 6 7 6 13 17 21 24 23 26 28 25 28 25 23 22 21 19 20 21 21 23 22 20 21 20 21 22 22 20 19 18 21 18 19 20 21 22 22
2 4 3 4 3 4 6 6 9 11 11 11 9 7 15 18 18 21 23 25 26 24 25 27 25 24 23 21 22 24 24 26 24 21 20 22 23 23 23 23 21 19 20 21 23 23 23 23 22
2 3 3 7 10 8 10 12 12 7 9 13 7 8 15 19 23 25 27 26 29 28 26 27 29 26 25 24 23 24 26 26 23 21 21 22 23 24 23 21 21 20 22 23 24 24 23 22 21
1 6 10 7 6 5 4 5 1 6 4 7 9 11 14 19 24 24 26 28 30 30 28 27 29 30 29 26 25 26 26 26 23 22 22 21 23 24 22 22 23 23 22 22 22 23 22 21 19
2 5 7 3 2 5 3 4 4 2 4 7 10 9 10 13 20 26 29 31 32 28 27 26 25 25 28 30 26 27 29 26 23 23 21 20 24 25 25 25 25 23 22 22 22 21 20 20 18
3 2 6 6 6 2 0 9 9 7 3 12 12 7 9 10 19 25 24 26 23 25 28 27 27 26 29 31 29 29 28 26 24 25 22 21 25 26 26 26 25 24 22 21 20 19 18 17 15
4 6 7 8 2 4 1 10 9 11 11 13 13 8 8 10 11 19 23 25 24 23 25 26 26 30 28 27 31 30 27 25 26 26 23 23 26 25 25 25 24 23 22 20 19 18 16 14 14
6 6 6 10 5 6 12 14 14 13 9 11 12 13 8 10 12 16 24 26 23 25 25 24 28 26 26 25 29 29 27 26 26 27 26 24 27 26 25 25 24 23 22 21 20 18 15 14 12
6 5 12 15 13 5 10 15 14 16 12 11 11 12 10 8 9 8 18 24 22 25 28 31 31 29 28 28 26 26 28 28 27 27 26 25 25 25 24 25 25 25 24 22 20 17 15 13 12
7 10 9 10 4 4 9 16 10 12 11 8 7 9 11 10 12 6 7 20 24 27 31 31 34 34 34 30 24 21 26 26 29 29 25 25 23 21 23 25 26 25 25 23 21 19 16 10 13
7 4 7 7 7 2 12 5 8 20 9 8 13 10 10 9 13 12 6 19 23 24 31 32 30 32 33 30 25 21 15 14 20 22 21 22 22 20 20 22 24 24 24 23 21 19 17 11 13
5 2 7 4 2 5 10 3 5 20 20 22 18 15 13 14 11 12 10 15 23 28 28 32 35 33 30 26 26 27 25 14 17 25 25 25 22 19 16 18 22 24 25 23 22 20 17 14 10
7 10 1 2 1 1 13 2 2 16 20 25 24 17 14 12 11 13 12 15 23 22 31 33 31 32 30 31 23 26 12 12 16 19 16 24 29 27 22 13 18 24 24 22 20 19 18 16 13
11 3 3 3 1 3 9 3 5 11 17 21 20 15 14 12 10 7 7 8 12 13 17 22 23 18 20 21 18 18 20 18 19 18 13 12 23 32 30 26 24 26 24 21 20 20 18 16 14
10 6 4 4 6 3 5 3 4 15 21 15 15 14 12 13 10 4 6 9 12 13 13 15 20 16 16 16 16 19 22 11 21 21 28 27 31 32 33 25 18 23 22 20 21 19 17 16 15
4 3 3 1 3 6 7 7 6 11 14 15 14 13 14 16 13 13 8 11 14 17 20 21 21 19 14 13 19 23 12 14 10 16 21 26 30 34 30 20 16 16 19 20 18 16 16 15 14
2 4 2 3 1 3 3 1 4 17 20 20 18 18 16 14 14 14 14 13 19 20 19 22 22 24 18 17 17 23 16 11 9 11 10 14 19 24 24 11 9 12 13 17 17 16 15 13 12
4 3 1 3 5 5 5 3 9 13 16 16 15 15 15 14 14 13 14 18 20 21 22 20 21 27 22 16 24 20 16 13 11 8 9 8 14 13 19 18 17 17 18 15 14 13 12 11 9
3 3 4 1 1 1 5 3 5 1 9 11 12 12 12 13 12 12 14 22 22 28 24 25 25 21 16 15 14 13 9 5 8 8 8 8 10 11 16 17 15 15 14 13 12 10 9 8 8
1 2 3 2 2 0 1 3 2 2 4 6 7 9 11 10 11 10 16 20 23 22 26 26 26 22 21 20 19 17 15 13 12 13 12 11 13 12 13 14 13 12 10 8 7 7 7 7 7

GFSSGP_925_spd_114.txt.gz
Wind_Speed
1 3 4 3 5 5 8 4 5 5 2 5 3 6 5 6 3 3 3 8 21 26 24 24 26 24 22 21 21 20 20 18 18 16 14 13 13 13 14 14 14 15 17 17 18 18 18 18 18
3 4 4 2 7 10 9 8 9 8 4 8 3 6 7 4 2 4 10 8 22 27 25 23 25 24 23 22 20 20 19 19 18 16 13 12 13 12 13 14 14 14 17 18 18 18 18 17 17
4 6 3 4 10 15 10 6 4 3 5 5 2 3 2 2 1 5 2 16 26 24 24 23 25 23 23 21 21 20 19 19 18 16 13 11 12 12 12 15 15 15 17 16 17 17 18 18 17
5 5 4 9 16 12 13 8 4 11 7 4 4 5 3 3 1 3 11 22 25 23 22 22 24 22 22 21 20 20 19 19 16 14 13 12 12 12 12 16 14 15 17 16 16 17 17 16 17
5 3 9 14 20 16 10 7 8 11 10 7 5 1 1 3 2 6 18 23 22 21 21 21 23 22 21 20 20 19 19 17 14 14 13 14 13 11 15 17 14 16 17 16 15 15 16 16 16
5 4 10 15 18 13 10 9 8 10 11 6 7 5 3 3 6 13 19 21 20 20 20 21 22 22 21 21 20 20 17 15 15 14 15 15 13 15 15 18 17 16 17 15 15 15 15 15 16
9 8 14 16 15 10 11 5 9 7 6 2 3 5 3 6 9 15 18 18 20 19 20 20 20 20 21 20 21 19 16 16 16 15 15 17 15 16 16 17 15 15 16 15 14 14 15 15 15
4 5 11 10 12 15 9 10 4 5 0 4 1 3 3 8 14 17 18 17 20 20 20 20 21 21 19 17 18 17 17 17 20 18 17 20 17 15 13 14 14 14 15 14 14 14 15 15 16
2 5 8 11 9 10 4 6 3 2 7 2 4 4 4 13 16 18 19 17 20 22 22 22 21 20 19 17 17 17 18 19 19 19 17 16 13 13 13 13 16 15 15 14 13 15 16 17 17
5 5 5 5 9 10 10 12 12 8 11 9 7 2 2 16 19 22 22 19 22 23 24 23 21 18 18 17 17 17 18 19 19 19 17 13 13 12 12 15 16 15 15 14 14 15 17 15 15
2 5 4 10 10 12 14 14 14 15 17 16 13 11 7 15 18 19 23 21 24 24 23 22 21 19 19 18 19 18 19 17 21 18 16 14 13 14 14 15 15 14 14 11 12 12 11 13 13
6 5 7 7 7 8 14 14 14 14 16 16 17 15 8 14 16 21 19 26 28 28 26 24 21 20 20 19 19 19 18 19 17 16 15 15 14 15 15 14 14 14 11 13 11 11 12 13 14
5 6 6 10 12 13 13 14 17 15 15 15 15 11 12 13 16 22 24 24 25 25 26 25 23 22 22 20 19 17 20 17 16 16 14 14 14 15 15 14 13 13 14 14 13 13 12 13 12
6 10 13 9 9 8 9 11 3 7 4 7 10 13 14 15 18 20 23 25 27 26 26 26 25 23 23 22 20 18 21 18 15 14 14 14 14 14 14 14 13 14 14 15 15 14 13 12 11
7 9 10 1 6 9 4 12 10 4 6 8 8 8 7 11 17 22 26 29 27 25 26 27 25 23 22 22 21 20 25 21 15 13 15 15 14 15 14 15 15 15 15 15 15 13 13 12 11
4 5 8 8 5 1 5 13 6 7 7 11 13 12 7 7 11 18 23 25 25 23 25 26 25 24 23 22 21 19 25 22 16 14 15 15 15 15 15 16 17 16 16 15 15 14 13 12 10
1 9 13 10 6 6 7 13 9 14 13 13 13 13 9 8 6 13 19 23 26 25 23 23 25 26 25 21 20 18 21 21 18 16 15 15 16 16 16 16 16 17 15 14 14 12 11 11 9
12 13 9 12 8 13 14 16 15 15 16 14 14 13 10 9 7 5 15 19 23 23 25 26 27 23 23 22 23 20 17 18 17 17 16 15 16 16 14 15 16 16 14 14 13 13 11 10 9
11 12 13 11 8 10 9 14 6 12 10 10 9 10 9 8 6 2 8 18 20 21 24 26 25 24 24 24 24 22 16 15 15 17 15 16 16 21 20 14 16 16 16 15 14 13 12 10 9
11 11 12 4 5 4 15 4 4 11 10 10 13 11 10 10 8 3 2 13 18 20 24 26 26 25 27 24 26 17 19 13 12 14 16 15 18 22 19 16 16 14 14 14 14 12 12 7 10
9 10 13 10 10 3 14 6 4 17 14 15 13 12 10 10 11 7 4 9 18 22 25 26 26 28 28 27 28 21 18 15 13 14 17 17 18 19 18 16 13 12 13 14 14 13 13 10 10
9 14 10 5 5 7 11 4 5 20 20 20 18 17 14 12 10 9 7 9 17 21 23 26 29 28 28 28 28 21 19 11 13 23 21 23 23 23 19 10 8 8 12 15 17 16 12 9 10
10 13 4 2 2 5 15 4 10 21 20 26 23 20 16 15 13 11 9 10 11 17 20 20 20 20 21 24 24 22 17 14 15 22 25 24 26 31 34 22 9 10 9 11 15 16 15 14 10
16 5 3 2 2 3 7 5 10 13 18 21 22 17 14 13 13 8 4 5 8 13 16 19 19 20 20 24 20 18 13 13 16 18 21 26 27 27 31 33 19 23 20 20 24 20 15 13 13
16 11 2 1 3 5 8 6 5 15 21 16 14 15 14 13 11 8 5 8 11 13 16 18 19 19 20 20 17 15 13 9 10 18 20 19 23 30 39 37 34 30 23 27 26 18 17 13 13
8 6 3 3 6 5 9 10 6 14 12 16 16 14 15 15 12 12 8 12 14 15 16 21 25 23 20 20 19 20 12 19 16 15 16 19 19 19 33 31 28 19 23 22 20 17 17 16 13
5 5 2 1 2 4 3 12 4 15 16 18 19 18 17 16 14 13 14 15 19 20 21 24 26 22 21 26 31 21 16 13 11 13 12 17 18 23 29 28 20 18 17 17 13 10 11 11 10
5 1 1 2 5 5 5 11 7 16 16 16 19 18 16 15 15 14 14 19 21 22 20 23 20 17 19 18 15 14 10 9 13 10 10 10 10 15 24 25 13 11 10 8 13 13 16 10 7
1 2 3 1 3 4 6 6 5 8 11 13 13 13 13 13 12 12 15 19 21 26 28 26 25 20 20 19 13 14 9 9 9 11 10 10 9 10 15 18 15 13 15 17 11 10 8 6 5
2 2 4 4 2 1 3 3 5 5 6 8 9 10 11 10 10 12 16 20 23 20 26 24 24 23 19 18 16 18 19 17 16 15 13 11 11 11 11 11 11 10 9 7 7 6 5 4 5

GFSSGP_925_spd_117.txt.gz
Wind_Speed
4 5 6 5 6 7 13 11 8 4 9 6 5 8 6 11 8 3 6 6 19 24 25 24 25 23 22 20 21 20 17 16 16 14 14 13 13 13 12 12 14 17 17 17 17 17 17 17 17
5 5 7 6 8 12 11 13 8 8 3 5 2 6 9 6 7 6 11 9 18 23 22 23 25 24 22 21 19 19 17 16 16 13 12 12 13 13 13 13 14 17 17 17 17 17 17 17 17
5 9 8 5 14 15 14 3 5 1 5 6 4 2 7 5 7 7 7 17 21 21 21 22 25 24 22 21 19 18 17 17 15 13 11 11 12 12 13 14 14 16 16 16 17 17 17 16 16
6 6 7 12 19 15 15 14 5 6 7 7 4 9 6 5 2 4 11 21 23 20 19 24 24 22 21 20 19 18 17 17 15 12 11 11 11 10 13 14 15 16 16 16 16 16 16 16 16
8 7 11 15 20 21 19 9 8 10 10 9 9 9 1 7 3 6 17 22 23 21 21 19 22 20 21 19 18 18 18 16 13 12 11 10 11 8 15 13 16 16 16 15 15 15 16 15 15
6 6 12 15 20 19 17 10 13 13 15 14 5 15 4 8 6 11 18 22 19 21 22 20 21 21 20 20 19 19 18 15 12 12 12 12 9 14 15 13 15 16 14 14 15 16 16 14 15
11 9 14 18 18 18 12 8 11 16 14 8 6 10 7 9 7 13 18 19 18 18 18 22 19 18 20 20 20 21 18 13 13 12 13 12 13 15 16 14 14 15 14 13 13 14 15 15 15
6 9 17 15 14 15 12 12 7 7 11 7 4 4 3 16 14 14 16 17 17 19 19 18 22 19 17 16 19 19 15 13 14 15 14 14 16 15 16 14 12 14 13 13 13 14 14 15 16
5 6 11 13 13 11 9 8 12 2 11 8 4 8 6 11 11 13 15 16 18 19 21 22 23 21 21 19 16 15 14 15 16 14 18 16 13 11 11 13 11 14 13 12 13 14 15 16 20
6 8 12 10 10 11 12 12 12 12 10 15 12 8 2 7 9 12 13 14 17 18 18 21 20 21 18 19 17 15 13 16 16 16 16 14 11 10 14 13 13 13 12 13 13 18 17 15 13
3 11 9 9 10 12 14 15 14 15 16 17 15 10 10 7 10 14 15 15 19 16 14 19 20 25 23 18 15 17 17 18 19 18 17 12 12 10 10 13 12 9 11 9 12 9 8 9 9
8 7 7 10 9 10 13 14 16 16 15 15 15 16 14 11 12 14 18 20 22 20 13 20 20 22 17 15 16 17 17 17 19 21 16 14 11 13 13 12 12 9 8 10 8 8 10 11 11
9 8 10 11 12 13 14 16 16 16 15 14 15 17 18 14 14 17 18 18 17 22 26 25 24 15 17 17 17 17 13 17 23 16 14 12 11 13 12 11 11 10 9 10 9 10 11 10 10
9 12 13 11 9 11 12 14 14 12 4 9 12 16 15 15 16 17 17 19 21 17 22 25 19 18 19 18 17 15 13 18 16 15 14 12 12 13 12 12 11 10 11 11 11 10 10 10 9
10 10 11 1 5 10 8 14 16 12 6 10 11 11 12 11 17 19 21 21 23 26 26 23 24 23 19 18 18 15 16 16 17 14 13 13 13 13 13 13 12 13 12 12 11 10 10 9 9
7 7 8 9 4 3 5 12 10 4 10 10 14 13 11 10 13 19 22 23 24 26 28 28 26 26 22 21 18 20 16 20 14 13 13 14 14 13 13 13 13 13 13 12 12 10 9 9 9
6 12 12 8 2 5 7 15 13 13 14 14 15 14 15 12 10 14 17 20 23 25 28 29 28 24 23 22 18 20 18 19 16 13 13 15 14 15 14 14 14 15 14 12 11 10 9 9 8
15 15 13 11 9 11 11 13 11 10 11 12 12 13 15 14 12 9 12 18 21 24 27 30 29 26 22 19 15 18 19 23 16 14 15 17 17 16 15 14 14 15 14 12 11 10 9 8 7
13 14 14 11 7 10 11 8 5 6 5 8 12 11 13 13 6 5 11 16 16 15 24 25 26 23 27 24 20 18 20 21 16 15 16 17 18 18 15 15 16 14 13 13 12 10 8 7 7
15 12 13 7 3 8 12 4 3 10 12 15 11 11 11 11 12 13 10 13 15 17 26 44 32 33 30 27 23 19 22 16 14 13 14 16 18 18 18 19 18 16 13 12 12 11 9 8 8
14 9 15 15 13 7 16 8 8 17 13 15 18 19 15 13 11 12 6 11 12 18 23 23 28 30 30 25 25 24 24 19 14 14 13 16 18 21 18 16 14 13 11 12 11 10 9 6 7
11 17 13 8 7 7 10 3 7 16 15 18 16 16 16 13 14 10 10 11 13 16 16 17 23 25 27 26 23 27 18 15 12 20 20 19 18 24 25 23 21 15 14 11 9 10 9 4 5
10 14 8 6 9 7 12 5 5 19 16 22 20 15 14 12 13 14 10 11 12 11 10 16 8 11 21 25 22 19 14 13 13 20 20 23 25 26 25 24 21 16 11 10 9 2 2 6 11
14 14 5 6 8 1 13 5 5 12 12 17 16 16 14 15 14 14 8 7 7 7 8 10 15 6 20 25 19 14 9 8 11 14 19 22 25 27 27 28 29 22 14 11 7 8 10 13 16
15 14 3 2 4 7 13 3 7 12 11 11 12 14 14 13 14 14 4 7 7 11 15 13 16 21 15 22 18 17 11 5 8 14 19 22 20 16 17 18 27 24 20 18 15 11 14 15 17
8 7 3 2 5 6 8 8 6 9 5 8 14 14 13 14 12 13 11 14 10 13 21 25 24 22 18 19 25 23 14 10 6 8 7 10 14 12 19 25 29 24 25 20 17 15 18 15 17
9 7 3 2 5 5 2 9 5 10 14 16 16 16 16 14 13 13 14 15 14 18 22 26 24 21 22 25 22 17 15 12 5 4 6 9 8 10 13 17 17 21 18 15 14 15 10 8 7
4 3 2 1 4 5 3 9 8 14 15 15 17 16 14 13 14 13 13 18 21 22 24 26 26 26 26 21 19 17 13 14 11 6 7 8 7 10 16 20 20 18 10 11 11 11 10 10 9
2 2 3 3 2 4 7 7 8 10 10 12 13 11 13 13 13 12 13 19 21 24 23 25 28 26 26 23 19 15 13 11 11 10 9 7 6 7 16 22 18 11 8 7 9 10 9 7 4
3 4 6 4 6 4 4 4 7 7 8 9 10 10 10 11 9 9 15 19 22 21 21 21 22 24 22 21 22 20 19 19 18 16 14 13 13 10 11 12 9 8 6 5 6 5 3 6 5

GFSSGP_925_spd_120.txt.gz
Wind_Speed
6 8 9 7 2 5 9 12 9 3 2 7 7 2 6 9 6 3 13 8 25 26 26 28 25 24 22 21 20 17 17 17 16 16 15 14 14 13 14 18 19 19 18 18 18 18 19 19 20
6 8 5 3 4 8 8 14 11 4 7 6 2 5 8 7 9 9 10 19 26 27 25 26 25 23 23 22 22 19 18 17 16 15 15 13 13 13 14 17 19 18 18 17 17 18 19 18 20
7 7 2 4 7 11 11 17 11 5 4 3 5 2 4 5 9 12 16 24 27 28 25 25 26 24 23 22 21 18 17 17 15 14 14 13 13 13 14 16 18 17 17 17 17 17 17 19 20
6 3 4 6 15 13 16 16 3 8 4 5 6 4 6 8 5 12 18 25 26 27 28 23 26 24 22 21 20 19 17 17 15 13 12 12 11 13 15 15 18 18 17 17 16 16 16 19 21
9 3 6 9 13 15 16 17 10 7 6 10 6 7 7 6 10 14 20 25 25 25 30 26 25 23 21 20 19 19 18 18 14 13 11 11 10 12 15 15 18 17 16 16 16 15 15 16 21
3 3 6 10 13 16 16 14 9 4 13 13 7 9 6 11 14 18 21 24 23 23 25 25 24 22 21 20 19 19 19 16 14 12 12 11 10 16 15 15 18 16 16 16 16 15 15 16 19
6 5 10 12 13 15 15 14 4 9 9 15 9 4 4 6 12 18 23 23 27 29 28 24 22 21 21 21 20 21 18 15 13 13 13 11 14 15 15 17 18 17 16 15 15 14 14 16 20
4 4 11 11 11 13 8 12 9 8 7 9 1 2 2 11 2 17 20 20 18 30 30 25 21 20 20 19 19 21 17 13 13 14 15 15 15 16 16 17 17 16 15 14 14 14 14 20 22
2 3 5 11 9 10 12 11 9 10 5 5 9 3 12 11 6 9 14 17 21 21 28 26 22 20 19 19 20 18 15 12 15 18 15 18 17 16 15 16 16 15 15 13 13 14 20 22 19
2 4 8 9 8 10 13 13 13 13 9 7 8 2 14 10 5 6 7 9 17 23 28 29 26 26 24 22 22 18 14 16 18 16 19 17 15 16 18 15 14 14 14 14 17 21 22 19 16
3 6 11 11 9 9 10 13 13 12 10 9 12 12 8 15 14 12 11 8 5 10 32 31 30 25 26 25 25 22 17 19 19 17 21 20 18 23 17 16 12 12 12 19 15 12 11 6 7
4 12 7 7 9 10 11 13 11 10 9 10 10 10 10 5 11 11 12 11 17 9 19 24 29 25 26 28 25 23 21 23 22 20 19 22 20 19 13 16 13 13 12 12 9 9 13 13 14
10 7 10 11 9 7 10 10 12 12 10 10 10 11 10 9 10 15 18 20 18 23 23 23 23 23 22 18 21 21 24 28 25 25 17 20 16 19 15 18 16 14 15 10 12 14 11 9 15
8 10 12 11 9 6 8 9 8 10 9 1 6 10 10 10 12 15 17 17 14 23 21 24 24 28 19 20 18 19 25 22 23 21 19 18 17 19 18 19 16 15 15 14 15 12 11 14 14
8 11 12 6 2 3 6 10 5 13 8 5 8 9 8 9 11 13 17 20 18 20 19 24 21 18 20 22 21 21 21 23 24 19 18 17 19 18 18 18 17 16 15 16 15 13 12 13 12
10 10 5 6 4 5 4 9 10 11 7 9 10 9 9 8 8 14 20 17 27 21 22 19 20 18 19 23 26 22 19 22 23 21 16 17 20 20 18 19 19 18 17 16 16 15 15 13 12
2 9 11 7 5 7 7 8 8 12 12 10 10 11 13 10 12 15 14 19 21 27 28 28 33 36 30 25 26 25 25 24 23 20 18 18 20 19 20 19 19 19 18 17 16 14 14 13 12
10 11 9 10 5 7 7 8 8 7 5 5 10 13 14 11 14 12 17 21 14 28 24 31 32 31 21 28 25 24 23 29 24 17 20 19 19 19 21 21 21 20 19 17 15 15 14 13 11
11 12 11 10 5 4 5 4 5 13 14 14 14 15 17 15 18 13 4 7 12 17 19 26 26 20 18 26 32 30 25 27 25 18 19 18 19 19 20 21 22 21 20 17 15 14 14 13 10
10 13 8 8 7 5 6 9 14 10 11 8 11 12 16 18 18 16 11 9 14 12 17 21 30 22 15 8 24 26 27 27 21 19 20 20 21 19 19 19 21 21 21 17 15 14 11 10 8
11 9 11 12 11 11 6 6 5 7 10 10 10 10 13 15 18 17 19 6 8 12 17 20 29 22 31 31 26 27 27 24 19 20 22 23 24 23 21 22 21 20 18 19 11 16 13 10 6
8 11 10 10 5 4 5 2 4 5 8 14 12 9 11 14 15 16 19 15 5 8 13 21 19 25 18 23 29 29 22 22 18 21 21 19 19 22 23 25 24 21 17 21 18 16 10 10 8
6 11 13 6 7 5 7 3 5 12 12 15 12 11 11 9 11 15 17 26 11 9 16 17 26 18 12 28 32 28 27 24 23 17 18 18 18 22 21 22 25 24 21 19 19 17 12 9 6
9 14 4 4 3 2 6 2 4 5 4 10 12 11 12 11 12 12 22 29 13 16 15 21 26 18 19 14 18 22 23 21 16 13 12 15 18 20 23 20 20 23 23 19 17 16 13 5 4
9 10 3 3 3 1 6 3 1 5 1 4 12 12 11 11 11 11 12 5 22 17 14 20 24 24 26 21 14 13 9 17 17 14 15 16 17 19 15 21 20 19 19 17 16 15 10 7 7
8 5 2 2 3 4 6 2 2 1 6 8 9 10 12 14 13 14 13 16 16 18 19 27 24 24 20 23 22 23 18 14 9 10 9 10 12 14 22 25 22 20 19 19 16 16 15 12 11
5 4 1 1 5 2 4 4 4 9 8 9 11 13 13 13 14 13 17 20 17 19 19 24 26 23 25 25 23 22 18 17 14 13 14 11 9 10 15 20 23 23 22 21 21 18 14 10 8
2 1 1 2 3 5 2 5 4 8 9 11 13 12 12 12 12 12 14 21 23 25 25 27 28 27 26 27 25 24 19 17 16 15 15 9 8 7 12 15 15 17 17 15 13 12 11 8 7
2 1 2 2 1 2 4 3 6 7 7 9 9 11 12 11 11 10 13 21 23 26 27 29 30 30 29 26 22 22 18 17 16 15 15 12 9 8 14 17 18 16 12 9 7 4 2 3 3
3 3 2 1 4 3 4 2 7 8 6 10 10 9 5 8 8 9 14 18 21 21 23 22 24 25 25 25 24 25 23 22 22 23 22 18 14 10 11 13 11 8 5 4 4 2 2 3 5

GFSSGP_925_spd_126.txt.gz
Wind_Speed
7 5 4 2 4 3 3 6 3 8 10 5 5 4 5 3 2 3 3 20 28 41 38 34 32 30 28 26 26 25 23 21 20 19 19 18 19 20 20 20 20 19 19 18 19 19 20 19 22
5 3 3 2 4 1 5 4 5 4 10 8 5 5 2 1 3 7 14 16 30 36 37 35 34 31 28 29 27 26 24 22 20 19 19 18 21 20 19 20 19 19 19 19 19 20 21 21 23
1 2 3 4 3 5 4 3 4 16 10 9 5 6 2 0 2 16 8 25 35 34 35 35 34 33 31 29 27 27 25 23 21 19 19 19 21 20 19 19 19 19 19 20 19 21 22 22 23
3 4 4 3 4 5 5 8 8 14 15 6 3 5 3 18 5 2 14 30 35 33 34 34 34 34 32 29 27 26 24 24 23 20 19 19 20 20 19 19 19 18 19 20 20 19 20 22 23
4 3 2 1 4 6 6 6 7 13 6 6 2 2 3 8 15 17 19 24 29 32 34 34 34 33 32 30 29 27 25 24 23 23 20 18 20 22 20 18 18 18 18 20 20 19 18 21 23
4 3 3 2 4 6 5 7 6 5 1 2 4 2 3 7 16 10 9 16 25 30 33 33 31 31 31 30 29 28 25 23 23 23 20 18 21 24 22 18 17 17 17 18 21 21 20 25 23
5 3 3 3 4 6 4 12 7 8 6 5 3 2 4 4 11 13 9 12 20 29 31 31 31 31 30 29 29 28 26 23 22 22 21 22 22 23 22 20 18 17 16 18 22 23 26 24 24
4 3 2 2 3 4 4 8 4 8 5 2 2 1 3 1 10 16 10 3 3 18 27 32 32 31 29 29 28 28 25 23 22 23 22 24 23 25 22 19 18 17 16 17 21 22 21 24 23
3 4 1 2 3 5 5 6 1 5 5 3 7 3 4 9 7 14 22 22 4 10 1 27 33 32 31 28 29 28 26 24 23 25 25 24 25 26 22 19 18 17 17 19 23 21 22 23 21
4 3 4 3 3 4 3 1 6 5 7 3 4 2 2 4 6 9 13 18 19 24 29 28 33 32 31 30 29 28 26 25 26 25 27 27 29 25 21 19 18 17 17 24 26 19 21 22 21
4 4 4 6 5 4 4 7 2 3 5 6 9 5 4 4 7 13 16 18 30 16 29 52 44 34 31 27 30 28 26 26 27 27 29 29 28 24 21 20 18 21 28 26 24 19 19 21 22
0 5 4 5 4 5 5 4 6 3 9 8 8 4 4 7 7 11 19 18 20 13 11 14 23 31 31 30 32 29 26 29 30 29 31 31 29 26 22 19 20 27 31 26 21 14 14 22 24
3 3 4 6 9 5 5 6 4 8 13 8 8 7 3 7 10 15 25 24 31 21 28 26 19 12 25 32 33 32 29 32 32 33 32 30 29 26 22 20 25 29 24 20 19 13 25 25 25
2 4 8 8 8 3 4 3 2 6 8 12 12 10 9 8 10 15 13 22 32 33 32 31 22 16 34 28 31 34 31 34 35 33 31 28 28 26 22 23 27 24 21 19 14 14 30 28 26
5 6 8 3 3 4 2 4 2 6 4 11 11 9 9 10 19 15 20 16 24 35 30 31 21 16 22 14 20 23 29 33 35 35 30 31 28 26 26 26 26 21 19 16 13 21 33 30 27
4 4 4 6 2 1 3 5 5 9 9 9 8 8 9 11 13 23 25 24 13 23 31 36 25 26 27 18 28 21 27 33 33 35 29 32 29 28 27 26 25 22 20 18 23 28 32 29 27
5 2 4 6 4 3 3 2 5 6 8 9 9 11 14 13 16 25 27 31 29 24 29 30 26 26 31 33 23 29 33 34 35 33 28 33 31 30 28 26 25 24 22 21 25 28 30 28 27
4 4 4 5 4 2 2 2 4 6 8 7 8 9 9 11 6 20 24 29 29 8 26 21 22 24 26 28 32 31 35 32 30 30 23 29 32 30 29 29 26 25 24 22 24 23 26 28 26
2 3 4 4 2 2 2 3 2 4 6 9 9 9 11 13 11 16 19 23 28 11 13 22 25 22 24 28 27 27 27 33 27 28 29 27 30 30 31 29 26 25 24 24 24 23 23 23 23
1 2 4 6 5 4 4 2 3 4 1 3 8 11 11 12 15 16 21 18 23 20 8 16 20 20 16 25 23 22 20 25 28 26 29 26 20 29 28 26 26 26 26 27 25 24 21 18 20
2 4 3 5 6 3 5 2 4 4 3 5 7 9 12 10 12 13 18 14 17 19 3 8 13 14 18 20 22 16 12 15 16 22 21 21 23 24 26 26 27 26 28 27 25 25 23 18 13
3 7 5 3 3 2 3 4 3 5 8 4 7 12 11 13 11 9 14 14 15 11 2 10 13 18 18 18 20 18 19 6 2 19 18 20 18 20 23 25 26 26 26 26 24 23 23 24 20
8 3 6 3 3 2 4 3 5 5 7 9 15 14 14 13 13 13 11 14 14 8 10 16 19 19 15 13 14 16 19 19 20 20 14 15 17 17 20 22 23 24 23 24 24 23 24 21 17
5 2 7 5 3 2 4 3 4 4 4 6 12 13 14 14 14 13 12 6 5 13 15 19 20 21 17 14 11 21 29 31 30 25 26 17 15 11 14 19 24 23 22 22 23 23 20 15 11
8 5 2 4 4 4 1 2 6 2 4 5 11 11 13 12 14 15 14 11 10 13 14 17 22 19 17 13 16 22 25 34 36 31 23 20 20 17 15 17 16 20 21 23 23 19 17 17 12
1 5 4 5 1 4 4 2 5 4 6 3 6 8 10 13 12 14 13 13 15 16 18 17 15 16 14 20 19 16 15 18 23 23 23 18 21 20 18 17 12 18 22 20 20 20 16 16 9
1 1 3 5 3 3 3 2 3 4 3 3 7 7 9 10 12 13 16 19 18 19 18 19 17 14 15 13 11 16 17 15 14 13 12 13 16 18 16 19 21 17 17 14 12 14 11 10 12
2 5 2 3 2 2 4 3 4 4 4 3 5 6 6 8 9 9 12 14 18 21 23 22 22 22 21 20 17 18 17 15 15 14 15 13 12 12 14 17 19 20 17 16 15 13 13 12 10
1 1 1 3 4 4 1 5 5 6 5 6 1 1 3 6 7 7 11 14 17 21 24 24 24 26 24 23 21 21 20 19 18 16 17 13 11 11 12 13 14 14 14 13 13 10 9 11 11
4 5 5 4 3 1 3 5 3 7 7 7 5 2 3 6 6 6 10 12 15 18 20 22 25 25 23 22 22 22 20 19 17 15 13 13 14 12 11 11 10 10 10 9 9 10 10 11 11

GFSSGP_925_spd_129.txt.gz
Wind_Speed
6 2 1 3 3 4 3 5 2 7 7 5 7 6 2 2 2 4 0 12 25 35 34 31 30 30 28 26 25 24 22 21 20 19 20 20 20 19 19 19 18 17 17 16 17 18 20 21 21
0 4 3 2 4 2 5 4 5 3 8 13 8 3 5 4 4 3 8 7 25 37 35 31 30 30 29 26 27 25 22 22 21 20 19 21 20 19 18 19 19 18 17 17 18 19 21 21 22
5 3 3 3 3 4 4 3 6 14 12 5 5 5 3 2 4 4 5 13 23 32 33 30 30 30 29 28 28 26 23 23 22 22 21 22 20 19 19 18 18 18 18 19 20 20 21 22 23
3 5 4 3 4 5 3 7 6 12 7 7 5 1 4 1 3 3 8 17 25 28 30 26 29 29 28 28 26 26 24 23 22 22 22 22 21 19 19 19 18 18 19 18 20 20 21 22 23
5 3 3 2 4 4 5 4 8 7 5 5 6 4 2 3 8 12 17 21 25 26 30 24 26 26 28 27 26 25 23 22 22 22 21 22 21 21 19 19 19 19 18 18 18 19 21 21 23
4 3 3 1 4 4 5 5 5 6 6 7 5 4 2 4 7 13 18 20 22 25 29 25 25 26 26 26 26 25 24 24 21 23 22 21 22 21 19 19 19 19 19 19 17 19 21 21 22
5 3 4 3 3 4 2 8 3 5 5 5 3 4 2 2 5 10 16 18 19 22 26 22 23 25 25 25 26 26 24 23 23 21 20 22 23 21 20 19 18 19 20 20 22 23 21 22 21
4 4 3 2 2 4 2 5 3 3 5 6 2 4 4 2 7 8 13 16 17 20 21 16 14 20 22 23 26 26 25 23 22 22 17 23 25 22 20 18 18 19 20 21 23 23 21 20 19
3 4 2 3 1 6 4 4 3 3 3 4 2 1 3 5 6 10 8 12 14 18 22 12 4 3 14 25 26 27 25 23 22 22 19 22 24 21 20 19 18 19 21 21 21 23 22 19 18
4 3 6 5 3 4 4 2 4 3 5 3 5 4 3 7 6 9 12 11 15 18 17 18 21 16 33 31 28 28 27 24 23 24 24 24 26 22 20 19 18 18 21 21 22 22 20 18 19
3 4 4 5 6 6 3 5 1 3 6 6 7 7 5 6 6 12 19 23 24 23 19 20 40 37 48 43 32 30 28 26 26 25 26 27 27 22 20 19 19 20 23 23 23 21 20 19 21
0 5 4 4 4 1 3 2 6 2 6 10 6 6 4 6 5 10 17 19 20 16 18 8 15 21 44 46 33 32 30 28 28 27 28 30 29 24 21 19 20 25 26 24 23 23 21 22 23
3 3 3 6 8 6 2 4 4 2 5 7 7 9 9 7 10 16 12 22 19 20 13 5 12 8 16 28 27 30 31 30 30 30 30 32 29 25 21 19 23 29 27 24 22 22 22 23 24
1 4 7 6 6 4 2 1 5 0 7 8 10 8 6 6 7 11 19 21 14 24 17 12 23 13 4 14 15 25 30 32 33 33 33 31 28 25 22 22 27 29 22 19 17 25 25 24 23
3 4 6 2 4 2 5 1 2 4 4 8 9 8 6 5 10 12 16 20 20 18 26 20 18 20 3 12 6 9 26 34 35 35 34 32 29 26 24 26 31 25 18 17 20 30 27 25 24
3 4 4 6 4 2 4 7 0 5 4 7 7 8 8 7 8 17 18 22 24 12 26 31 29 27 18 20 14 13 18 29 34 36 33 30 29 26 25 29 28 22 17 16 23 32 30 27 25
6 1 2 7 2 1 2 5 1 4 5 7 7 8 10 13 15 20 22 23 22 17 25 31 36 37 27 21 19 15 14 19 33 35 34 32 30 27 27 30 26 21 19 17 24 33 31 28 25
4 2 4 5 4 1 3 7 3 3 4 4 5 5 7 9 8 19 25 22 21 13 23 31 29 32 29 29 29 22 19 23 31 37 34 32 32 31 29 29 27 23 22 24 27 33 30 29 27
2 3 4 4 4 3 5 5 5 4 4 6 7 9 11 9 12 21 21 19 18 8 19 25 27 28 32 28 27 21 27 26 26 31 30 32 33 33 31 29 28 26 27 28 29 31 30 27 25
4 2 4 5 4 2 3 6 3 5 4 2 8 12 10 9 9 14 19 18 14 7 17 23 25 22 23 26 32 20 24 24 26 24 23 29 33 33 29 29 29 28 28 28 30 32 28 26 27
2 4 3 5 5 1 0 6 2 4 3 5 6 6 10 10 12 11 15 19 12 7 14 19 22 22 24 26 27 19 23 20 18 17 21 18 23 33 31 31 29 28 28 29 30 33 31 26 18
2 5 3 3 3 3 3 4 3 4 7 4 8 9 10 14 12 11 12 16 12 7 9 13 17 18 18 22 25 26 26 21 18 17 21 19 18 24 25 23 27 27 27 29 29 28 27 28 20
6 2 3 3 3 2 2 3 5 5 6 10 11 13 13 13 14 12 9 11 11 3 11 14 14 11 13 13 18 24 25 24 29 27 19 14 17 19 21 24 25 26 27 28 25 24 22 25 22
2 3 6 4 3 2 3 3 4 4 5 8 10 13 13 14 14 13 14 12 15 14 18 20 20 16 11 12 15 19 24 27 26 25 29 27 22 22 13 17 22 25 25 25 22 22 21 23 19
5 5 2 3 3 5 1 2 7 3 2 3 10 12 11 10 12 13 14 17 16 15 19 20 21 18 15 14 11 16 19 24 27 28 28 24 23 22 15 8 11 17 20 21 22 23 24 22 19
2 5 5 5 2 5 4 3 4 3 2 3 6 8 8 9 10 11 12 13 15 19 19 17 14 18 18 20 16 16 18 19 20 21 25 23 23 22 17 12 11 15 17 19 24 24 21 19 17
3 2 4 6 1 3 3 5 1 2 4 5 7 7 9 7 9 10 11 14 14 17 19 18 17 14 10 13 15 17 17 19 19 18 16 15 16 20 21 17 15 15 17 17 18 18 16 13 12
2 6 3 3 1 3 4 5 4 5 5 5 4 5 7 8 8 9 11 13 16 17 21 19 17 15 13 12 15 14 17 19 15 13 14 13 14 15 16 15 17 18 18 15 11 9 7 8 9
2 1 4 4 4 3 2 5 5 6 6 5 5 3 4 6 6 6 9 12 15 19 21 22 22 21 19 18 18 17 17 17 16 15 15 16 15 13 15 16 15 13 11 9 7 8 9 8 8
4 6 6 4 3 1 3 5 2 5 6 6 3 2 1 2 4 5 8 11 14 16 19 20 21 22 21 22 23 21 21 18 20 16 14 15 16 13 14 13 13 11 9 9 9 8 7 7 8

GFSSGP_925_spd_132.txt.gz
Wind_Speed
4 2 2 4 3 4 3 4 2 6 7 3 6 6 3 2 1 3 9 5 15 26 30 25 27 27 24 23 22 20 20 18 19 20 20 19 17 16 16 16 15 15 15 17 18 19 20 20 20
1 3 4 2 4 2 4 3 4 5 7 10 5 2 4 2 2 1 4 2 20 29 29 24 26 25 25 21 21 21 19 19 19 20 20 19 17 16 16 16 15 15 16 17 19 19 20 19 21
5 3 3 3 3 4 4 1 6 7 9 4 5 4 3 3 5 3 7 9 23 32 28 25 25 24 23 20 21 20 19 18 18 18 19 18 18 16 16 16 16 16 17 17 19 20 21 20 21
3 5 4 3 4 4 2 5 5 9 6 6 2 2 2 1 4 8 2 14 23 33 28 25 23 22 23 21 21 21 19 18 18 19 18 17 17 16 16 16 16 17 18 19 20 21 22 21 21
6 3 3 1 3 4 3 4 5 6 6 6 6 5 4 3 7 2 9 18 24 31 27 24 23 21 20 20 21 20 20 19 18 18 20 17 17 16 16 16 17 16 16 17 20 20 21 22 22
4 3 3 3 4 3 5 3 3 3 3 6 6 6 3 4 4 2 9 15 20 29 28 19 19 18 19 20 20 21 20 19 19 18 19 20 17 16 15 16 17 16 16 17 20 19 19 21 22
5 4 4 3 2 3 2 5 2 4 4 4 2 3 4 3 2 3 6 11 15 20 24 16 18 16 17 19 21 20 19 19 19 21 19 20 20 17 15 15 16 17 15 17 21 19 20 22 23
4 4 3 3 2 3 3 5 2 1 4 7 1 1 4 2 3 3 6 10 12 15 18 16 18 19 17 17 17 20 20 20 19 22 20 19 21 18 17 16 16 17 16 21 21 19 19 21 21
3 4 2 3 4 4 3 2 2 1 2 4 3 2 4 3 4 4 5 8 11 15 17 15 13 14 13 9 9 16 21 24 23 22 19 21 22 20 18 17 18 18 18 19 20 17 17 18 18
4 3 7 5 3 4 3 1 2 2 5 3 4 5 5 2 3 5 8 8 10 14 19 21 13 7 10 7 4 7 21 26 26 24 22 26 24 21 19 18 19 19 19 18 19 17 17 17 20
3 4 4 4 7 4 2 2 1 2 4 2 7 7 7 7 6 7 10 12 9 15 20 24 23 18 21 21 30 37 41 31 27 27 26 29 26 22 21 20 20 21 21 22 20 16 15 19 23
1 5 4 4 4 3 3 1 2 4 2 5 6 4 4 9 7 11 13 11 11 13 20 20 22 21 20 22 23 26 28 30 29 29 28 31 28 24 23 22 23 24 22 22 18 18 19 21 22
3 3 4 7 6 6 3 3 3 4 2 5 6 9 8 7 11 13 12 13 7 12 16 21 17 17 20 22 11 20 27 33 33 32 31 32 30 26 23 22 24 27 24 22 22 21 22 23 24
3 4 6 5 4 3 5 2 6 3 3 5 5 7 5 5 8 12 16 16 14 8 17 19 17 13 11 7 7 3 30 38 35 35 33 32 30 26 24 23 25 28 25 25 23 22 23 24 24
2 4 7 2 3 1 5 1 4 1 1 5 7 6 5 5 7 9 14 18 15 14 13 22 22 14 12 7 5 5 5 25 35 36 34 33 30 27 25 25 29 31 27 24 25 24 24 24 24
3 4 4 4 4 2 3 7 4 2 2 4 7 7 6 5 7 11 19 19 17 13 9 24 24 19 15 12 10 16 18 6 29 33 33 33 30 27 24 27 32 29 25 23 28 28 26 25 24
5 2 3 7 2 3 4 5 4 3 1 4 6 7 9 11 8 12 19 19 19 16 9 27 28 24 19 14 9 13 16 20 24 30 31 31 30 27 25 29 32 26 25 25 30 30 28 26 24
4 2 4 5 4 1 4 9 5 3 1 3 6 7 7 8 12 18 21 19 17 20 14 27 34 29 23 12 18 13 13 14 21 28 30 31 30 28 26 31 29 25 25 28 32 32 29 28 26
2 3 5 5 5 3 3 6 6 4 2 4 6 7 9 11 12 21 21 20 15 16 12 29 30 34 31 19 15 8 13 14 16 24 29 29 29 28 27 32 29 24 24 28 33 32 29 26 24
3 3 5 5 3 1 5 8 5 3 1 4 7 10 11 9 13 15 17 18 14 11 13 24 29 34 36 25 21 13 19 13 18 18 22 23 24 26 25 30 28 25 25 27 33 34 29 25 26
3 4 4 5 5 0 5 6 3 2 2 4 7 8 7 11 15 15 14 17 12 8 8 18 23 27 30 23 22 16 19 19 17 15 18 21 23 28 28 28 28 28 28 29 33 35 32 27 25
3 3 3 2 4 2 3 4 4 2 6 4 8 11 10 14 14 11 10 10 10 9 5 7 13 11 18 24 25 25 16 17 21 20 15 15 21 23 31 27 26 28 29 30 32 32 31 32 29
6 1 1 1 2 3 2 2 6 3 4 6 9 10 13 13 13 11 9 11 11 9 10 13 10 9 12 19 22 24 20 17 26 19 18 21 18 20 24 24 26 26 27 31 31 32 30 31 33
3 2 5 4 2 2 2 3 5 3 3 4 7 10 13 13 14 11 15 17 18 18 18 17 17 12 12 13 19 21 25 28 23 20 26 25 26 25 26 24 19 20 24 28 30 30 28 27 27
3 5 3 4 3 5 1 2 8 3 2 3 5 9 9 10 11 13 12 15 17 17 17 19 21 20 13 11 11 17 23 23 23 26 28 26 24 20 19 22 16 18 23 24 26 27 25 24 25
2 5 5 5 2 4 3 4 4 1 4 1 3 5 6 7 8 9 11 13 14 14 14 18 20 20 17 15 13 13 16 22 23 23 23 23 23 22 19 15 16 17 18 21 22 22 23 25 24
3 2 4 6 2 3 3 6 5 1 3 2 5 5 4 5 6 6 8 12 12 13 12 14 17 16 19 18 15 14 15 19 20 18 20 19 19 19 17 12 10 11 16 20 25 26 23 19 16
3 7 3 3 1 3 4 4 5 4 4 3 2 2 3 3 4 5 7 8 11 12 12 12 12 14 15 16 16 17 16 17 19 21 19 17 19 19 20 19 19 20 21 22 21 20 16 12 8
3 2 4 4 4 4 2 5 6 5 4 4 5 3 2 3 3 3 5 6 9 13 15 14 14 15 16 18 20 20 19 19 17 16 14 13 13 13 15 16 17 15 14 15 16 13 10 9 9
4 6 6 4 4 2 3 6 1 5 5 5 5 5 3 3 1 3 6 7 11 14 16 16 17 18 18 19 24 22 21 21 21 19 17 14 14 12 12 14 14 12 10 8 6 6 7 7 7